<?xml version="1.0" encoding="utf-8"?>
<gpx xmlns:xsi="http://www.w3.org/2001/XMLSchema-instance" xmlns:xsd="http://www.w3.org/2001/XMLSchema" version="1.1" creator="Shapelink.com" xmlns="http://www.topografix.com/GPX/1/1" xmlns:gpxtpx="http://www.garmin.com/xmlschemas/TrackPointExtension/v1">
  <metadata>
    <name>Cykling 86.61 km, 2012-07-21</name>
    <desc></desc>
    <author><name>Alexander Engvall</name></author> 
    <time>2012-07-21T18:21:53Z</time>
  </metadata>
  <trk>
    <name>Cykling 86.61 km, 2012-07-21</name>
    <trkseg>
      <trkpt lat="59.6132609" lon="14.9314031">
        <ele>98</ele>
        <time>2012-07-21T18:21:53Z</time>
      </trkpt>
      <trkpt lat="59.613367" lon="14.9314049">
        <ele>98.8</ele>
        <time>2012-07-21T18:21:55Z</time>
      </trkpt>
      <trkpt lat="59.6135029" lon="14.9313817">
        <ele>98.8</ele>
        <time>2012-07-21T18:21:57Z</time>
      </trkpt>
      <trkpt lat="59.6139218" lon="14.931278">
        <ele>100.2</ele>
        <time>2012-07-21T18:22:03Z</time>
      </trkpt>
      <trkpt lat="59.6139906" lon="14.9312596">
        <ele>100.8</ele>
        <time>2012-07-21T18:22:04Z</time>
      </trkpt>
      <trkpt lat="59.6142762" lon="14.9311969">
        <ele>101.6</ele>
        <time>2012-07-21T18:22:08Z</time>
      </trkpt>
      <trkpt lat="59.6146593" lon="14.9311218">
        <ele>99.4</ele>
        <time>2012-07-21T18:22:13Z</time>
      </trkpt>
      <trkpt lat="59.6150463" lon="14.9310362">
        <ele>100.4</ele>
        <time>2012-07-21T18:22:18Z</time>
      </trkpt>
      <trkpt lat="59.6154325" lon="14.9309635">
        <ele>100.6</ele>
        <time>2012-07-21T18:22:23Z</time>
      </trkpt>
      <trkpt lat="59.6158303" lon="14.9308761">
        <ele>99.8</ele>
        <time>2012-07-21T18:22:28Z</time>
      </trkpt>
      <trkpt lat="59.6161954" lon="14.9308014">
        <ele>99.4</ele>
        <time>2012-07-21T18:22:33Z</time>
      </trkpt>
      <trkpt lat="59.6165953" lon="14.9307166">
        <ele>102.2</ele>
        <time>2012-07-21T18:22:39Z</time>
      </trkpt>
      <trkpt lat="59.6169624" lon="14.9306585">
        <ele>105.4</ele>
        <time>2012-07-21T18:22:45Z</time>
      </trkpt>
      <trkpt lat="59.6172723" lon="14.9306561">
        <ele>104.2</ele>
        <time>2012-07-21T18:22:50Z</time>
      </trkpt>
      <trkpt lat="59.6173356" lon="14.9306689">
        <ele>104.8</ele>
        <time>2012-07-21T18:22:51Z</time>
      </trkpt>
      <trkpt lat="59.61771" lon="14.9307478">
        <ele>108.4</ele>
        <time>2012-07-21T18:22:57Z</time>
      </trkpt>
      <trkpt lat="59.6181424" lon="14.9308434">
        <ele>111.8</ele>
        <time>2012-07-21T18:23:03Z</time>
      </trkpt>
      <trkpt lat="59.6185121" lon="14.9309242">
        <ele>113</ele>
        <time>2012-07-21T18:23:08Z</time>
      </trkpt>
      <trkpt lat="59.6188964" lon="14.9310119">
        <ele>113.4</ele>
        <time>2012-07-21T18:23:13Z</time>
      </trkpt>
      <trkpt lat="59.6192579" lon="14.9310972">
        <ele>114.6</ele>
        <time>2012-07-21T18:23:18Z</time>
      </trkpt>
      <trkpt lat="59.6196454" lon="14.9311573">
        <ele>116.6</ele>
        <time>2012-07-21T18:23:24Z</time>
      </trkpt>
      <trkpt lat="59.6200057" lon="14.9311419">
        <ele>118</ele>
        <time>2012-07-21T18:23:30Z</time>
      </trkpt>
      <trkpt lat="59.6203607" lon="14.9310817">
        <ele>118.6</ele>
        <time>2012-07-21T18:23:36Z</time>
      </trkpt>
      <trkpt lat="59.6207098" lon="14.9310054">
        <ele>118.8</ele>
        <time>2012-07-21T18:23:42Z</time>
      </trkpt>
      <trkpt lat="59.6210723" lon="14.9309309">
        <ele>118.8</ele>
        <time>2012-07-21T18:23:48Z</time>
      </trkpt>
      <trkpt lat="59.6214486" lon="14.9308579">
        <ele>118.6</ele>
        <time>2012-07-21T18:23:54Z</time>
      </trkpt>
      <trkpt lat="59.6218443" lon="14.9307766">
        <ele>117.4</ele>
        <time>2012-07-21T18:24:00Z</time>
      </trkpt>
      <trkpt lat="59.6222624" lon="14.9306922">
        <ele>115.8</ele>
        <time>2012-07-21T18:24:06Z</time>
      </trkpt>
      <trkpt lat="59.6226415" lon="14.9306202">
        <ele>113.8</ele>
        <time>2012-07-21T18:24:11Z</time>
      </trkpt>
      <trkpt lat="59.6230653" lon="14.9305275">
        <ele>111.2</ele>
        <time>2012-07-21T18:24:16Z</time>
      </trkpt>
      <trkpt lat="59.6235002" lon="14.9304343">
        <ele>109</ele>
        <time>2012-07-21T18:24:21Z</time>
      </trkpt>
      <trkpt lat="59.6239334" lon="14.9303426">
        <ele>106.4</ele>
        <time>2012-07-21T18:24:26Z</time>
      </trkpt>
      <trkpt lat="59.6243866" lon="14.9302421">
        <ele>104.2</ele>
        <time>2012-07-21T18:24:31Z</time>
      </trkpt>
      <trkpt lat="59.6247545" lon="14.9301432">
        <ele>102.8</ele>
        <time>2012-07-21T18:24:35Z</time>
      </trkpt>
      <trkpt lat="59.6251849" lon="14.9299463">
        <ele>102.4</ele>
        <time>2012-07-21T18:24:40Z</time>
      </trkpt>
      <trkpt lat="59.6255772" lon="14.9296676">
        <ele>102.2</ele>
        <time>2012-07-21T18:24:45Z</time>
      </trkpt>
      <trkpt lat="59.6259376" lon="14.9293537">
        <ele>102</ele>
        <time>2012-07-21T18:24:50Z</time>
      </trkpt>
      <trkpt lat="59.6262276" lon="14.9297432">
        <ele>100.8</ele>
        <time>2012-07-21T18:24:55Z</time>
      </trkpt>
      <trkpt lat="59.6265054" lon="14.9302938">
        <ele>97.6</ele>
        <time>2012-07-21T18:25:00Z</time>
      </trkpt>
      <trkpt lat="59.6267908" lon="14.930868">
        <ele>97.2</ele>
        <time>2012-07-21T18:25:05Z</time>
      </trkpt>
      <trkpt lat="59.6270787" lon="14.9314641">
        <ele>96.4</ele>
        <time>2012-07-21T18:25:10Z</time>
      </trkpt>
      <trkpt lat="59.6273675" lon="14.9320681">
        <ele>95.4</ele>
        <time>2012-07-21T18:25:15Z</time>
      </trkpt>
      <trkpt lat="59.62765" lon="14.9326626">
        <ele>95</ele>
        <time>2012-07-21T18:25:20Z</time>
      </trkpt>
      <trkpt lat="59.6279034" lon="14.9332054">
        <ele>96.2</ele>
        <time>2012-07-21T18:25:25Z</time>
      </trkpt>
      <trkpt lat="59.6281734" lon="14.933806">
        <ele>97.4</ele>
        <time>2012-07-21T18:25:31Z</time>
      </trkpt>
      <trkpt lat="59.6284599" lon="14.9344882">
        <ele>96.2</ele>
        <time>2012-07-21T18:25:36Z</time>
      </trkpt>
      <trkpt lat="59.6286855" lon="14.9350989">
        <ele>94.4</ele>
        <time>2012-07-21T18:25:40Z</time>
      </trkpt>
      <trkpt lat="59.6289001" lon="14.9356786">
        <ele>93</ele>
        <time>2012-07-21T18:25:44Z</time>
      </trkpt>
      <trkpt lat="59.6291633" lon="14.9363863">
        <ele>93.6</ele>
        <time>2012-07-21T18:25:49Z</time>
      </trkpt>
      <trkpt lat="59.6294057" lon="14.9370437">
        <ele>94</ele>
        <time>2012-07-21T18:25:54Z</time>
      </trkpt>
      <trkpt lat="59.6296283" lon="14.9376191">
        <ele>94.4</ele>
        <time>2012-07-21T18:25:59Z</time>
      </trkpt>
      <trkpt lat="59.6298543" lon="14.9382265">
        <ele>93</ele>
        <time>2012-07-21T18:26:04Z</time>
      </trkpt>
      <trkpt lat="59.630108" lon="14.9388603">
        <ele>91.2</ele>
        <time>2012-07-21T18:26:09Z</time>
      </trkpt>
      <trkpt lat="59.6303994" lon="14.9394161">
        <ele>90.8</ele>
        <time>2012-07-21T18:26:14Z</time>
      </trkpt>
      <trkpt lat="59.6307142" lon="14.939918">
        <ele>91.2</ele>
        <time>2012-07-21T18:26:19Z</time>
      </trkpt>
      <trkpt lat="59.6310142" lon="14.9404071">
        <ele>92.6</ele>
        <time>2012-07-21T18:26:24Z</time>
      </trkpt>
      <trkpt lat="59.6312294" lon="14.9408318">
        <ele>94</ele>
        <time>2012-07-21T18:26:28Z</time>
      </trkpt>
      <trkpt lat="59.6312741" lon="14.9409628">
        <ele>94.4</ele>
        <time>2012-07-21T18:26:29Z</time>
      </trkpt>
      <trkpt lat="59.6313769" lon="14.9417169">
        <ele>95.8</ele>
        <time>2012-07-21T18:26:34Z</time>
      </trkpt>
      <trkpt lat="59.6313783" lon="14.941873">
        <ele>96.2</ele>
        <time>2012-07-21T18:26:35Z</time>
      </trkpt>
      <trkpt lat="59.6313738" lon="14.9420277">
        <ele>96</ele>
        <time>2012-07-21T18:26:36Z</time>
      </trkpt>
      <trkpt lat="59.6313247" lon="14.9424822">
        <ele>97.8</ele>
        <time>2012-07-21T18:26:39Z</time>
      </trkpt>
      <trkpt lat="59.6311778" lon="14.9431887">
        <ele>99.6</ele>
        <time>2012-07-21T18:26:44Z</time>
      </trkpt>
      <trkpt lat="59.6310129" lon="14.9438461">
        <ele>100.2</ele>
        <time>2012-07-21T18:26:49Z</time>
      </trkpt>
      <trkpt lat="59.6308437" lon="14.9444748">
        <ele>101.4</ele>
        <time>2012-07-21T18:26:54Z</time>
      </trkpt>
      <trkpt lat="59.6306609" lon="14.945126">
        <ele>102.6</ele>
        <time>2012-07-21T18:27:00Z</time>
      </trkpt>
      <trkpt lat="59.630632" lon="14.9452298">
        <ele>102.8</ele>
        <time>2012-07-21T18:27:01Z</time>
      </trkpt>
      <trkpt lat="59.6304868" lon="14.9457906">
        <ele>103.2</ele>
        <time>2012-07-21T18:27:07Z</time>
      </trkpt>
      <trkpt lat="59.6303116" lon="14.9464557">
        <ele>106.8</ele>
        <time>2012-07-21T18:27:15Z</time>
      </trkpt>
      <trkpt lat="59.6302676" lon="14.9466336">
        <ele>107.6</ele>
        <time>2012-07-21T18:27:17Z</time>
      </trkpt>
      <trkpt lat="59.630132" lon="14.9471744">
        <ele>110.2</ele>
        <time>2012-07-21T18:27:23Z</time>
      </trkpt>
      <trkpt lat="59.6299428" lon="14.9479208">
        <ele>110</ele>
        <time>2012-07-21T18:27:30Z</time>
      </trkpt>
      <trkpt lat="59.6297719" lon="14.9485563">
        <ele>110.8</ele>
        <time>2012-07-21T18:27:36Z</time>
      </trkpt>
      <trkpt lat="59.6296032" lon="14.9491872">
        <ele>112</ele>
        <time>2012-07-21T18:27:44Z</time>
      </trkpt>
      <trkpt lat="59.6293449" lon="14.9496679">
        <ele>113.8</ele>
        <time>2012-07-21T18:27:54Z</time>
      </trkpt>
      <trkpt lat="59.6289836" lon="14.9497663">
        <ele>114.8</ele>
        <time>2012-07-21T18:28:03Z</time>
      </trkpt>
      <trkpt lat="59.6285892" lon="14.9498171">
        <ele>119</ele>
        <time>2012-07-21T18:28:12Z</time>
      </trkpt>
      <trkpt lat="59.6285006" lon="14.949851">
        <ele>120</ele>
        <time>2012-07-21T18:28:14Z</time>
      </trkpt>
      <trkpt lat="59.6282058" lon="14.9500067">
        <ele>123.2</ele>
        <time>2012-07-21T18:28:21Z</time>
      </trkpt>
      <trkpt lat="59.6279543" lon="14.9501746">
        <ele>126.8</ele>
        <time>2012-07-21T18:28:27Z</time>
      </trkpt>
      <trkpt lat="59.6278614" lon="14.9502941">
        <ele>128.6</ele>
        <time>2012-07-21T18:28:30Z</time>
      </trkpt>
      <trkpt lat="59.6275803" lon="14.9508062">
        <ele>132.8</ele>
        <time>2012-07-21T18:28:40Z</time>
      </trkpt>
      <trkpt lat="59.6275516" lon="14.9508578">
        <ele>133.8</ele>
        <time>2012-07-21T18:28:41Z</time>
      </trkpt>
      <trkpt lat="59.627492" lon="14.9509563">
        <ele>134.6</ele>
        <time>2012-07-21T18:28:43Z</time>
      </trkpt>
      <trkpt lat="59.6273385" lon="14.9511345">
        <ele>134.4</ele>
        <time>2012-07-21T18:28:47Z</time>
      </trkpt>
      <trkpt lat="59.6272948" lon="14.9511762">
        <ele>134.6</ele>
        <time>2012-07-21T18:28:48Z</time>
      </trkpt>
      <trkpt lat="59.6272516" lon="14.9512106">
        <ele>135.2</ele>
        <time>2012-07-21T18:28:49Z</time>
      </trkpt>
      <trkpt lat="59.6269777" lon="14.9514882">
        <ele>136.8</ele>
        <time>2012-07-21T18:28:56Z</time>
      </trkpt>
      <trkpt lat="59.626945" lon="14.9515443">
        <ele>137.4</ele>
        <time>2012-07-21T18:28:58Z</time>
      </trkpt>
      <trkpt lat="59.6267293" lon="14.9519347">
        <ele>139</ele>
        <time>2012-07-21T18:29:03Z</time>
      </trkpt>
      <trkpt lat="59.6266533" lon="14.9520923">
        <ele>138.8</ele>
        <time>2012-07-21T18:29:05Z</time>
      </trkpt>
      <trkpt lat="59.6265208" lon="14.9523278">
        <ele>139.6</ele>
        <time>2012-07-21T18:29:08Z</time>
      </trkpt>
      <trkpt lat="59.6263272" lon="14.9525697">
        <ele>140.4</ele>
        <time>2012-07-21T18:29:12Z</time>
      </trkpt>
      <trkpt lat="59.626008" lon="14.9530019">
        <ele>142.2</ele>
        <time>2012-07-21T18:29:19Z</time>
      </trkpt>
      <trkpt lat="59.625703" lon="14.9535485">
        <ele>142.6</ele>
        <time>2012-07-21T18:29:26Z</time>
      </trkpt>
      <trkpt lat="59.6254233" lon="14.9541089">
        <ele>144.6</ele>
        <time>2012-07-21T18:29:33Z</time>
      </trkpt>
      <trkpt lat="59.625258" lon="14.9545502">
        <ele>147.2</ele>
        <time>2012-07-21T18:29:38Z</time>
      </trkpt>
      <trkpt lat="59.6251989" lon="14.954731">
        <ele>147.4</ele>
        <time>2012-07-21T18:29:40Z</time>
      </trkpt>
      <trkpt lat="59.6251658" lon="14.9548201">
        <ele>147.2</ele>
        <time>2012-07-21T18:29:41Z</time>
      </trkpt>
      <trkpt lat="59.6249685" lon="14.9553175">
        <ele>147</ele>
        <time>2012-07-21T18:29:47Z</time>
      </trkpt>
      <trkpt lat="59.6246902" lon="14.9558823">
        <ele>145.6</ele>
        <time>2012-07-21T18:29:54Z</time>
      </trkpt>
      <trkpt lat="59.6243593" lon="14.9563884">
        <ele>146.8</ele>
        <time>2012-07-21T18:30:01Z</time>
      </trkpt>
      <trkpt lat="59.6240531" lon="14.9569118">
        <ele>147.6</ele>
        <time>2012-07-21T18:30:08Z</time>
      </trkpt>
      <trkpt lat="59.6237552" lon="14.957441">
        <ele>148</ele>
        <time>2012-07-21T18:30:15Z</time>
      </trkpt>
      <trkpt lat="59.6234743" lon="14.9579094">
        <ele>148.4</ele>
        <time>2012-07-21T18:30:21Z</time>
      </trkpt>
      <trkpt lat="59.6231973" lon="14.9583953">
        <ele>150.4</ele>
        <time>2012-07-21T18:30:27Z</time>
      </trkpt>
      <trkpt lat="59.6229265" lon="14.9589066">
        <ele>154.2</ele>
        <time>2012-07-21T18:30:33Z</time>
      </trkpt>
      <trkpt lat="59.6226358" lon="14.9594625">
        <ele>156</ele>
        <time>2012-07-21T18:30:39Z</time>
      </trkpt>
      <trkpt lat="59.6224324" lon="14.9598961">
        <ele>156.4</ele>
        <time>2012-07-21T18:30:44Z</time>
      </trkpt>
      <trkpt lat="59.6223555" lon="14.9600601">
        <ele>155.6</ele>
        <time>2012-07-21T18:30:46Z</time>
      </trkpt>
      <trkpt lat="59.6223204" lon="14.9601477">
        <ele>155.6</ele>
        <time>2012-07-21T18:30:47Z</time>
      </trkpt>
      <trkpt lat="59.6220712" lon="14.9606095">
        <ele>155.2</ele>
        <time>2012-07-21T18:30:53Z</time>
      </trkpt>
      <trkpt lat="59.6219323" lon="14.9608433">
        <ele>154.2</ele>
        <time>2012-07-21T18:30:56Z</time>
      </trkpt>
      <trkpt lat="59.6217744" lon="14.9610859">
        <ele>154.2</ele>
        <time>2012-07-21T18:30:59Z</time>
      </trkpt>
      <trkpt lat="59.6214917" lon="14.9615419">
        <ele>153.2</ele>
        <time>2012-07-21T18:31:04Z</time>
      </trkpt>
      <trkpt lat="59.6211979" lon="14.9620035">
        <ele>154.8</ele>
        <time>2012-07-21T18:31:09Z</time>
      </trkpt>
      <trkpt lat="59.6209061" lon="14.9624574">
        <ele>155</ele>
        <time>2012-07-21T18:31:14Z</time>
      </trkpt>
      <trkpt lat="59.6206166" lon="14.9629003">
        <ele>155.6</ele>
        <time>2012-07-21T18:31:19Z</time>
      </trkpt>
      <trkpt lat="59.6203204" lon="14.9634056">
        <ele>156.2</ele>
        <time>2012-07-21T18:31:24Z</time>
      </trkpt>
      <trkpt lat="59.620066" lon="14.964007">
        <ele>157.2</ele>
        <time>2012-07-21T18:31:29Z</time>
      </trkpt>
      <trkpt lat="59.6198105" lon="14.9646654">
        <ele>153.8</ele>
        <time>2012-07-21T18:31:34Z</time>
      </trkpt>
      <trkpt lat="59.6195584" lon="14.96537">
        <ele>154.6</ele>
        <time>2012-07-21T18:31:39Z</time>
      </trkpt>
      <trkpt lat="59.6193455" lon="14.9659343">
        <ele>154.6</ele>
        <time>2012-07-21T18:31:43Z</time>
      </trkpt>
      <trkpt lat="59.6192915" lon="14.9660682">
        <ele>154.8</ele>
        <time>2012-07-21T18:31:44Z</time>
      </trkpt>
      <trkpt lat="59.6191455" lon="14.9664686">
        <ele>158.6</ele>
        <time>2012-07-21T18:31:47Z</time>
      </trkpt>
      <trkpt lat="59.6190414" lon="14.9667086">
        <ele>158.4</ele>
        <time>2012-07-21T18:31:49Z</time>
      </trkpt>
      <trkpt lat="59.6188051" lon="14.9673978">
        <ele>161</ele>
        <time>2012-07-21T18:31:54Z</time>
      </trkpt>
      <trkpt lat="59.6185777" lon="14.9680941">
        <ele>162.2</ele>
        <time>2012-07-21T18:31:59Z</time>
      </trkpt>
      <trkpt lat="59.6183243" lon="14.9688064">
        <ele>163.6</ele>
        <time>2012-07-21T18:32:04Z</time>
      </trkpt>
      <trkpt lat="59.6181003" lon="14.9694886">
        <ele>161.6</ele>
        <time>2012-07-21T18:32:08Z</time>
      </trkpt>
      <trkpt lat="59.6178233" lon="14.9702008">
        <ele>156</ele>
        <time>2012-07-21T18:32:12Z</time>
      </trkpt>
      <trkpt lat="59.6175526" lon="14.9708691">
        <ele>154</ele>
        <time>2012-07-21T18:32:16Z</time>
      </trkpt>
      <trkpt lat="59.617288" lon="14.9714783">
        <ele>152.4</ele>
        <time>2012-07-21T18:32:20Z</time>
      </trkpt>
      <trkpt lat="59.6172279" lon="14.9716288">
        <ele>152.2</ele>
        <time>2012-07-21T18:32:21Z</time>
      </trkpt>
      <trkpt lat="59.6170485" lon="14.9721004">
        <ele>151.2</ele>
        <time>2012-07-21T18:32:24Z</time>
      </trkpt>
      <trkpt lat="59.6167681" lon="14.9727863">
        <ele>150</ele>
        <time>2012-07-21T18:32:29Z</time>
      </trkpt>
      <trkpt lat="59.616515" lon="14.9734421">
        <ele>150.6</ele>
        <time>2012-07-21T18:32:34Z</time>
      </trkpt>
      <trkpt lat="59.6162817" lon="14.9741077">
        <ele>149.6</ele>
        <time>2012-07-21T18:32:39Z</time>
      </trkpt>
      <trkpt lat="59.6160426" lon="14.974775">
        <ele>148.6</ele>
        <time>2012-07-21T18:32:44Z</time>
      </trkpt>
      <trkpt lat="59.6157855" lon="14.9754642">
        <ele>148.6</ele>
        <time>2012-07-21T18:32:49Z</time>
      </trkpt>
      <trkpt lat="59.6155356" lon="14.9761149">
        <ele>148.6</ele>
        <time>2012-07-21T18:32:54Z</time>
      </trkpt>
      <trkpt lat="59.615288" lon="14.976777">
        <ele>149.8</ele>
        <time>2012-07-21T18:32:59Z</time>
      </trkpt>
      <trkpt lat="59.6150429" lon="14.9774559">
        <ele>151.8</ele>
        <time>2012-07-21T18:33:04Z</time>
      </trkpt>
      <trkpt lat="59.6148407" lon="14.9780307">
        <ele>152.2</ele>
        <time>2012-07-21T18:33:08Z</time>
      </trkpt>
      <trkpt lat="59.6146972" lon="14.9784673">
        <ele>151.8</ele>
        <time>2012-07-21T18:33:11Z</time>
      </trkpt>
      <trkpt lat="59.6146305" lon="14.9787768">
        <ele>152.4</ele>
        <time>2012-07-21T18:33:13Z</time>
      </trkpt>
      <trkpt lat="59.6145185" lon="14.9792645">
        <ele>152.8</ele>
        <time>2012-07-21T18:33:16Z</time>
      </trkpt>
      <trkpt lat="59.6144664" lon="14.9794236">
        <ele>153</ele>
        <time>2012-07-21T18:33:17Z</time>
      </trkpt>
      <trkpt lat="59.6143352" lon="14.97974">
        <ele>152.2</ele>
        <time>2012-07-21T18:33:19Z</time>
      </trkpt>
      <trkpt lat="59.6141747" lon="14.9800475">
        <ele>150.8</ele>
        <time>2012-07-21T18:33:21Z</time>
      </trkpt>
      <trkpt lat="59.6138582" lon="14.9807895">
        <ele>148.4</ele>
        <time>2012-07-21T18:33:25Z</time>
      </trkpt>
      <trkpt lat="59.6135992" lon="14.981435">
        <ele>144</ele>
        <time>2012-07-21T18:33:28Z</time>
      </trkpt>
      <trkpt lat="59.6133236" lon="14.9820903">
        <ele>140</ele>
        <time>2012-07-21T18:33:31Z</time>
      </trkpt>
      <trkpt lat="59.6130465" lon="14.9827195">
        <ele>134</ele>
        <time>2012-07-21T18:33:34Z</time>
      </trkpt>
      <trkpt lat="59.6127817" lon="14.9833227">
        <ele>129.2</ele>
        <time>2012-07-21T18:33:37Z</time>
      </trkpt>
      <trkpt lat="59.6125236" lon="14.9839489">
        <ele>125.4</ele>
        <time>2012-07-21T18:33:40Z</time>
      </trkpt>
      <trkpt lat="59.6122641" lon="14.9846184">
        <ele>121.4</ele>
        <time>2012-07-21T18:33:43Z</time>
      </trkpt>
      <trkpt lat="59.6120037" lon="14.9853123">
        <ele>116.6</ele>
        <time>2012-07-21T18:33:46Z</time>
      </trkpt>
      <trkpt lat="59.6117694" lon="14.9860587">
        <ele>112.6</ele>
        <time>2012-07-21T18:33:49Z</time>
      </trkpt>
      <trkpt lat="59.6115326" lon="14.986828">
        <ele>109.2</ele>
        <time>2012-07-21T18:33:52Z</time>
      </trkpt>
      <trkpt lat="59.6113648" lon="14.9876967">
        <ele>105</ele>
        <time>2012-07-21T18:33:55Z</time>
      </trkpt>
      <trkpt lat="59.6113294" lon="14.9886204">
        <ele>101.8</ele>
        <time>2012-07-21T18:33:58Z</time>
      </trkpt>
      <trkpt lat="59.611336" lon="14.9894946">
        <ele>99.8</ele>
        <time>2012-07-21T18:34:01Z</time>
      </trkpt>
      <trkpt lat="59.6113203" lon="14.9903269">
        <ele>98.8</ele>
        <time>2012-07-21T18:34:04Z</time>
      </trkpt>
      <trkpt lat="59.611265" lon="14.9911373">
        <ele>98</ele>
        <time>2012-07-21T18:34:07Z</time>
      </trkpt>
      <trkpt lat="59.6112071" lon="14.9919065">
        <ele>97.6</ele>
        <time>2012-07-21T18:34:10Z</time>
      </trkpt>
      <trkpt lat="59.6111552" lon="14.9926223">
        <ele>97.4</ele>
        <time>2012-07-21T18:34:13Z</time>
      </trkpt>
      <trkpt lat="59.6110991" lon="14.9935388">
        <ele>95.8</ele>
        <time>2012-07-21T18:34:17Z</time>
      </trkpt>
      <trkpt lat="59.6110397" lon="14.9944323">
        <ele>94.8</ele>
        <time>2012-07-21T18:34:21Z</time>
      </trkpt>
      <trkpt lat="59.6109822" lon="14.9952768">
        <ele>94.2</ele>
        <time>2012-07-21T18:34:25Z</time>
      </trkpt>
      <trkpt lat="59.6109257" lon="14.9960763">
        <ele>94.8</ele>
        <time>2012-07-21T18:34:29Z</time>
      </trkpt>
      <trkpt lat="59.6108801" lon="14.9969017">
        <ele>98</ele>
        <time>2012-07-21T18:34:34Z</time>
      </trkpt>
      <trkpt lat="59.6109015" lon="14.9976224">
        <ele>98.6</ele>
        <time>2012-07-21T18:34:39Z</time>
      </trkpt>
      <trkpt lat="59.610934" lon="14.9983665">
        <ele>98</ele>
        <time>2012-07-21T18:34:44Z</time>
      </trkpt>
      <trkpt lat="59.6109678" lon="14.9990829">
        <ele>98.8</ele>
        <time>2012-07-21T18:34:49Z</time>
      </trkpt>
      <trkpt lat="59.6110002" lon="14.9998828">
        <ele>100.8</ele>
        <time>2012-07-21T18:34:55Z</time>
      </trkpt>
      <trkpt lat="59.61105" lon="15.0005864">
        <ele>101.4</ele>
        <time>2012-07-21T18:35:00Z</time>
      </trkpt>
      <trkpt lat="59.6111239" lon="15.0014142">
        <ele>101</ele>
        <time>2012-07-21T18:35:05Z</time>
      </trkpt>
      <trkpt lat="59.6111944" lon="15.00216">
        <ele>100.2</ele>
        <time>2012-07-21T18:35:09Z</time>
      </trkpt>
      <trkpt lat="59.6112658" lon="15.0029241">
        <ele>99</ele>
        <time>2012-07-21T18:35:13Z</time>
      </trkpt>
      <trkpt lat="59.611314" lon="15.0036427">
        <ele>97.2</ele>
        <time>2012-07-21T18:35:17Z</time>
      </trkpt>
      <trkpt lat="59.6113418" lon="15.0043485">
        <ele>96.4</ele>
        <time>2012-07-21T18:35:21Z</time>
      </trkpt>
      <trkpt lat="59.6112878" lon="15.0050448">
        <ele>96</ele>
        <time>2012-07-21T18:35:25Z</time>
      </trkpt>
      <trkpt lat="59.6111416" lon="15.0056263">
        <ele>96.2</ele>
        <time>2012-07-21T18:35:29Z</time>
      </trkpt>
      <trkpt lat="59.611098" lon="15.0057436">
        <ele>96.2</ele>
        <time>2012-07-21T18:35:30Z</time>
      </trkpt>
      <trkpt lat="59.6109703" lon="15.0060534">
        <ele>97.8</ele>
        <time>2012-07-21T18:35:33Z</time>
      </trkpt>
      <trkpt lat="59.6108615" lon="15.0063413">
        <ele>99.2</ele>
        <time>2012-07-21T18:35:36Z</time>
      </trkpt>
      <trkpt lat="59.6106574" lon="15.0068677">
        <ele>100</ele>
        <time>2012-07-21T18:35:42Z</time>
      </trkpt>
      <trkpt lat="59.6106107" lon="15.0069535">
        <ele>99.6</ele>
        <time>2012-07-21T18:35:43Z</time>
      </trkpt>
      <trkpt lat="59.6103596" lon="15.0071981">
        <ele>98</ele>
        <time>2012-07-21T18:35:47Z</time>
      </trkpt>
      <trkpt lat="59.6102869" lon="15.0072477">
        <ele>97.4</ele>
        <time>2012-07-21T18:35:48Z</time>
      </trkpt>
      <trkpt lat="59.610058" lon="15.0074111">
        <ele>97.2</ele>
        <time>2012-07-21T18:35:51Z</time>
      </trkpt>
      <trkpt lat="59.6099587" lon="15.00764">
        <ele>97.2</ele>
        <time>2012-07-21T18:35:53Z</time>
      </trkpt>
      <trkpt lat="59.6099394" lon="15.008264">
        <ele>96.4</ele>
        <time>2012-07-21T18:35:57Z</time>
      </trkpt>
      <trkpt lat="59.6099384" lon="15.0084205">
        <ele>96.4</ele>
        <time>2012-07-21T18:35:58Z</time>
      </trkpt>
      <trkpt lat="59.6099317" lon="15.0085705">
        <ele>96.6</ele>
        <time>2012-07-21T18:35:59Z</time>
      </trkpt>
      <trkpt lat="59.6098477" lon="15.0091137">
        <ele>98.2</ele>
        <time>2012-07-21T18:36:03Z</time>
      </trkpt>
      <trkpt lat="59.6097064" lon="15.0098675">
        <ele>99.8</ele>
        <time>2012-07-21T18:36:09Z</time>
      </trkpt>
      <trkpt lat="59.6094831" lon="15.0105358">
        <ele>98.8</ele>
        <time>2012-07-21T18:36:15Z</time>
      </trkpt>
      <trkpt lat="59.6092411" lon="15.0112065">
        <ele>98.8</ele>
        <time>2012-07-21T18:36:21Z</time>
      </trkpt>
      <trkpt lat="59.6091376" lon="15.0118994">
        <ele>100.8</ele>
        <time>2012-07-21T18:36:27Z</time>
      </trkpt>
      <trkpt lat="59.6090809" lon="15.0126182">
        <ele>104.6</ele>
        <time>2012-07-21T18:36:34Z</time>
      </trkpt>
      <trkpt lat="59.6090265" lon="15.0133844">
        <ele>106</ele>
        <time>2012-07-21T18:36:42Z</time>
      </trkpt>
      <trkpt lat="59.6089319" lon="15.0138158">
        <ele>106.8</ele>
        <time>2012-07-21T18:36:46Z</time>
      </trkpt>
      <trkpt lat="59.608833" lon="15.0140955">
        <ele>108.2</ele>
        <time>2012-07-21T18:36:49Z</time>
      </trkpt>
      <trkpt lat="59.6087769" lon="15.0142904">
        <ele>109</ele>
        <time>2012-07-21T18:36:51Z</time>
      </trkpt>
      <trkpt lat="59.6087409" lon="15.0145264">
        <ele>109</ele>
        <time>2012-07-21T18:36:54Z</time>
      </trkpt>
      <trkpt lat="59.6087462" lon="15.0147597">
        <ele>108.2</ele>
        <time>2012-07-21T18:36:57Z</time>
      </trkpt>
      <trkpt lat="59.6089807" lon="15.0153841">
        <ele>106.2</ele>
        <time>2012-07-21T18:37:03Z</time>
      </trkpt>
      <trkpt lat="59.6092965" lon="15.0159583">
        <ele>105.6</ele>
        <time>2012-07-21T18:37:09Z</time>
      </trkpt>
      <trkpt lat="59.6096369" lon="15.0164391">
        <ele>106.2</ele>
        <time>2012-07-21T18:37:15Z</time>
      </trkpt>
      <trkpt lat="59.609986" lon="15.0169124">
        <ele>106.8</ele>
        <time>2012-07-21T18:37:21Z</time>
      </trkpt>
      <trkpt lat="59.6103073" lon="15.0172847">
        <ele>107.2</ele>
        <time>2012-07-21T18:37:26Z</time>
      </trkpt>
      <trkpt lat="59.6106445" lon="15.0175804">
        <ele>108.8</ele>
        <time>2012-07-21T18:37:31Z</time>
      </trkpt>
      <trkpt lat="59.6110329" lon="15.0179231">
        <ele>110.4</ele>
        <time>2012-07-21T18:37:37Z</time>
      </trkpt>
      <trkpt lat="59.6113692" lon="15.0182015">
        <ele>111</ele>
        <time>2012-07-21T18:37:42Z</time>
      </trkpt>
      <trkpt lat="59.6117085" lon="15.0185186">
        <ele>112</ele>
        <time>2012-07-21T18:37:47Z</time>
      </trkpt>
      <trkpt lat="59.6120404" lon="15.0188726">
        <ele>112.4</ele>
        <time>2012-07-21T18:37:52Z</time>
      </trkpt>
      <trkpt lat="59.6122104" lon="15.0191217">
        <ele>112.8</ele>
        <time>2012-07-21T18:37:55Z</time>
      </trkpt>
      <trkpt lat="59.6123456" lon="15.0194209">
        <ele>112.8</ele>
        <time>2012-07-21T18:37:58Z</time>
      </trkpt>
      <trkpt lat="59.6125827" lon="15.0200567">
        <ele>112.2</ele>
        <time>2012-07-21T18:38:04Z</time>
      </trkpt>
      <trkpt lat="59.6128264" lon="15.0207276">
        <ele>111</ele>
        <time>2012-07-21T18:38:10Z</time>
      </trkpt>
      <trkpt lat="59.6130429" lon="15.0213254">
        <ele>109</ele>
        <time>2012-07-21T18:38:15Z</time>
      </trkpt>
      <trkpt lat="59.6132614" lon="15.0219521">
        <ele>106.4</ele>
        <time>2012-07-21T18:38:20Z</time>
      </trkpt>
      <trkpt lat="59.6134917" lon="15.02261">
        <ele>104</ele>
        <time>2012-07-21T18:38:25Z</time>
      </trkpt>
      <trkpt lat="59.6137285" lon="15.0232695">
        <ele>101.2</ele>
        <time>2012-07-21T18:38:30Z</time>
      </trkpt>
      <trkpt lat="59.6139619" lon="15.0239422">
        <ele>101</ele>
        <time>2012-07-21T18:38:35Z</time>
      </trkpt>
      <trkpt lat="59.6141959" lon="15.0246183">
        <ele>100.2</ele>
        <time>2012-07-21T18:38:40Z</time>
      </trkpt>
      <trkpt lat="59.6144269" lon="15.0252788">
        <ele>100.2</ele>
        <time>2012-07-21T18:38:45Z</time>
      </trkpt>
      <trkpt lat="59.6146523" lon="15.0259257">
        <ele>100.4</ele>
        <time>2012-07-21T18:38:50Z</time>
      </trkpt>
      <trkpt lat="59.6148533" lon="15.0265703">
        <ele>100.6</ele>
        <time>2012-07-21T18:38:55Z</time>
      </trkpt>
      <trkpt lat="59.6150437" lon="15.0272721">
        <ele>104.4</ele>
        <time>2012-07-21T18:39:01Z</time>
      </trkpt>
      <trkpt lat="59.6152014" lon="15.0278288">
        <ele>107.6</ele>
        <time>2012-07-21T18:39:06Z</time>
      </trkpt>
      <trkpt lat="59.615231" lon="15.0279508">
        <ele>108</ele>
        <time>2012-07-21T18:39:07Z</time>
      </trkpt>
      <trkpt lat="59.6154184" lon="15.0286442">
        <ele>112.6</ele>
        <time>2012-07-21T18:39:13Z</time>
      </trkpt>
      <trkpt lat="59.6155919" lon="15.0293134">
        <ele>117.6</ele>
        <time>2012-07-21T18:39:19Z</time>
      </trkpt>
      <trkpt lat="59.6157857" lon="15.0300336">
        <ele>123</ele>
        <time>2012-07-21T18:39:26Z</time>
      </trkpt>
      <trkpt lat="59.615967" lon="15.03072">
        <ele>125</ele>
        <time>2012-07-21T18:39:33Z</time>
      </trkpt>
      <trkpt lat="59.616146" lon="15.0314141">
        <ele>126.4</ele>
        <time>2012-07-21T18:39:40Z</time>
      </trkpt>
      <trkpt lat="59.6163166" lon="15.0320501">
        <ele>127.4</ele>
        <time>2012-07-21T18:39:46Z</time>
      </trkpt>
      <trkpt lat="59.6165014" lon="15.0327344">
        <ele>129.4</ele>
        <time>2012-07-21T18:39:53Z</time>
      </trkpt>
      <trkpt lat="59.6165838" lon="15.0330168">
        <ele>129.8</ele>
        <time>2012-07-21T18:39:56Z</time>
      </trkpt>
      <trkpt lat="59.6167528" lon="15.0333661">
        <ele>129.8</ele>
        <time>2012-07-21T18:40:00Z</time>
      </trkpt>
      <trkpt lat="59.6171035" lon="15.0339017">
        <ele>126.6</ele>
        <time>2012-07-21T18:40:06Z</time>
      </trkpt>
      <trkpt lat="59.6174555" lon="15.0343993">
        <ele>124</ele>
        <time>2012-07-21T18:40:11Z</time>
      </trkpt>
      <trkpt lat="59.6177731" lon="15.0348188">
        <ele>122.4</ele>
        <time>2012-07-21T18:40:15Z</time>
      </trkpt>
      <trkpt lat="59.6180991" lon="15.0352521">
        <ele>121.2</ele>
        <time>2012-07-21T18:40:19Z</time>
      </trkpt>
      <trkpt lat="59.618433" lon="15.0357198">
        <ele>119.4</ele>
        <time>2012-07-21T18:40:23Z</time>
      </trkpt>
      <trkpt lat="59.6187612" lon="15.0362428">
        <ele>118</ele>
        <time>2012-07-21T18:40:27Z</time>
      </trkpt>
      <trkpt lat="59.619061" lon="15.0367733">
        <ele>117.8</ele>
        <time>2012-07-21T18:40:31Z</time>
      </trkpt>
      <trkpt lat="59.6193615" lon="15.0372846">
        <ele>118.8</ele>
        <time>2012-07-21T18:40:35Z</time>
      </trkpt>
      <trkpt lat="59.6196602" lon="15.0377736">
        <ele>119.6</ele>
        <time>2012-07-21T18:40:39Z</time>
      </trkpt>
      <trkpt lat="59.6199322" lon="15.0382637">
        <ele>121.2</ele>
        <time>2012-07-21T18:40:43Z</time>
      </trkpt>
      <trkpt lat="59.6202096" lon="15.0388474">
        <ele>122.4</ele>
        <time>2012-07-21T18:40:48Z</time>
      </trkpt>
      <trkpt lat="59.6205189" lon="15.0394464">
        <ele>124.8</ele>
        <time>2012-07-21T18:40:54Z</time>
      </trkpt>
      <trkpt lat="59.6208615" lon="15.0399271">
        <ele>126.6</ele>
        <time>2012-07-21T18:41:00Z</time>
      </trkpt>
      <trkpt lat="59.6212282" lon="15.0402602">
        <ele>129</ele>
        <time>2012-07-21T18:41:06Z</time>
      </trkpt>
      <trkpt lat="59.6216167" lon="15.0405179">
        <ele>130.6</ele>
        <time>2012-07-21T18:41:12Z</time>
      </trkpt>
      <trkpt lat="59.6220198" lon="15.0406462">
        <ele>129.4</ele>
        <time>2012-07-21T18:41:17Z</time>
      </trkpt>
      <trkpt lat="59.6224137" lon="15.040756">
        <ele>130</ele>
        <time>2012-07-21T18:41:22Z</time>
      </trkpt>
      <trkpt lat="59.6227755" lon="15.0408598">
        <ele>127.4</ele>
        <time>2012-07-21T18:41:27Z</time>
      </trkpt>
      <trkpt lat="59.6231327" lon="15.0409748">
        <ele>128</ele>
        <time>2012-07-21T18:41:32Z</time>
      </trkpt>
      <trkpt lat="59.6235282" lon="15.0411097">
        <ele>129.8</ele>
        <time>2012-07-21T18:41:38Z</time>
      </trkpt>
      <trkpt lat="59.6239423" lon="15.041381">
        <ele>130</ele>
        <time>2012-07-21T18:41:44Z</time>
      </trkpt>
      <trkpt lat="59.6242939" lon="15.0417008">
        <ele>129.2</ele>
        <time>2012-07-21T18:41:49Z</time>
      </trkpt>
      <trkpt lat="59.6246395" lon="15.0420173">
        <ele>128.6</ele>
        <time>2012-07-21T18:41:54Z</time>
      </trkpt>
      <trkpt lat="59.62499" lon="15.0423358">
        <ele>128.2</ele>
        <time>2012-07-21T18:41:59Z</time>
      </trkpt>
      <trkpt lat="59.6253336" lon="15.0426482">
        <ele>127.8</ele>
        <time>2012-07-21T18:42:04Z</time>
      </trkpt>
      <trkpt lat="59.6257023" lon="15.0429888">
        <ele>126.2</ele>
        <time>2012-07-21T18:42:09Z</time>
      </trkpt>
      <trkpt lat="59.6260761" lon="15.0433347">
        <ele>125</ele>
        <time>2012-07-21T18:42:14Z</time>
      </trkpt>
      <trkpt lat="59.6264505" lon="15.043678">
        <ele>124.4</ele>
        <time>2012-07-21T18:42:19Z</time>
      </trkpt>
      <trkpt lat="59.6268302" lon="15.0440278">
        <ele>122.8</ele>
        <time>2012-07-21T18:42:24Z</time>
      </trkpt>
      <trkpt lat="59.6272208" lon="15.0443663">
        <ele>120.6</ele>
        <time>2012-07-21T18:42:29Z</time>
      </trkpt>
      <trkpt lat="59.6276135" lon="15.0447273">
        <ele>118</ele>
        <time>2012-07-21T18:42:34Z</time>
      </trkpt>
      <trkpt lat="59.62801" lon="15.0450155">
        <ele>118</ele>
        <time>2012-07-21T18:42:39Z</time>
      </trkpt>
      <trkpt lat="59.6280941" lon="15.0450422">
        <ele>118</ele>
        <time>2012-07-21T18:42:40Z</time>
      </trkpt>
      <trkpt lat="59.6284631" lon="15.0450263">
        <ele>116.6</ele>
        <time>2012-07-21T18:42:44Z</time>
      </trkpt>
      <trkpt lat="59.6288632" lon="15.0449788">
        <ele>116.4</ele>
        <time>2012-07-21T18:42:48Z</time>
      </trkpt>
      <trkpt lat="59.6292455" lon="15.0450018">
        <ele>116.6</ele>
        <time>2012-07-21T18:42:52Z</time>
      </trkpt>
      <trkpt lat="59.6296445" lon="15.0453138">
        <ele>117.2</ele>
        <time>2012-07-21T18:42:57Z</time>
      </trkpt>
      <trkpt lat="59.6298264" lon="15.0455925">
        <ele>116.6</ele>
        <time>2012-07-21T18:43:00Z</time>
      </trkpt>
      <trkpt lat="59.6299357" lon="15.0457812">
        <ele>116.4</ele>
        <time>2012-07-21T18:43:02Z</time>
      </trkpt>
      <trkpt lat="59.630221" lon="15.0463442">
        <ele>118.6</ele>
        <time>2012-07-21T18:43:08Z</time>
      </trkpt>
      <trkpt lat="59.630492" lon="15.0468472">
        <ele>121</ele>
        <time>2012-07-21T18:43:14Z</time>
      </trkpt>
      <trkpt lat="59.6305893" lon="15.0470014">
        <ele>121.8</ele>
        <time>2012-07-21T18:43:16Z</time>
      </trkpt>
      <trkpt lat="59.6307987" lon="15.0472653">
        <ele>122.8</ele>
        <time>2012-07-21T18:43:20Z</time>
      </trkpt>
      <trkpt lat="59.6310265" lon="15.0474314">
        <ele>124.8</ele>
        <time>2012-07-21T18:43:24Z</time>
      </trkpt>
      <trkpt lat="59.6311571" lon="15.0474496">
        <ele>125.2</ele>
        <time>2012-07-21T18:43:26Z</time>
      </trkpt>
      <trkpt lat="59.631367" lon="15.0474082">
        <ele>124.8</ele>
        <time>2012-07-21T18:43:29Z</time>
      </trkpt>
      <trkpt lat="59.631589" lon="15.0473268">
        <ele>124.6</ele>
        <time>2012-07-21T18:43:32Z</time>
      </trkpt>
      <trkpt lat="59.6320143" lon="15.0471709">
        <ele>122.4</ele>
        <time>2012-07-21T18:43:37Z</time>
      </trkpt>
      <trkpt lat="59.6324532" lon="15.0470383">
        <ele>122</ele>
        <time>2012-07-21T18:43:42Z</time>
      </trkpt>
      <trkpt lat="59.632865" lon="15.0469105">
        <ele>122.4</ele>
        <time>2012-07-21T18:43:47Z</time>
      </trkpt>
      <trkpt lat="59.6332559" lon="15.0467943">
        <ele>123</ele>
        <time>2012-07-21T18:43:52Z</time>
      </trkpt>
      <trkpt lat="59.6336302" lon="15.046665">
        <ele>123.2</ele>
        <time>2012-07-21T18:43:57Z</time>
      </trkpt>
      <trkpt lat="59.6340057" lon="15.0465296">
        <ele>123.2</ele>
        <time>2012-07-21T18:44:02Z</time>
      </trkpt>
      <trkpt lat="59.6343686" lon="15.0464421">
        <ele>123.2</ele>
        <time>2012-07-21T18:44:07Z</time>
      </trkpt>
      <trkpt lat="59.6347552" lon="15.0466975">
        <ele>121.2</ele>
        <time>2012-07-21T18:44:13Z</time>
      </trkpt>
      <trkpt lat="59.6350729" lon="15.0470905">
        <ele>121.4</ele>
        <time>2012-07-21T18:44:18Z</time>
      </trkpt>
      <trkpt lat="59.6354162" lon="15.0474993">
        <ele>122.8</ele>
        <time>2012-07-21T18:44:24Z</time>
      </trkpt>
      <trkpt lat="59.6357542" lon="15.047863">
        <ele>121.4</ele>
        <time>2012-07-21T18:44:29Z</time>
      </trkpt>
      <trkpt lat="59.6361386" lon="15.0482789">
        <ele>119</ele>
        <time>2012-07-21T18:44:34Z</time>
      </trkpt>
      <trkpt lat="59.6365029" lon="15.0486756">
        <ele>117.2</ele>
        <time>2012-07-21T18:44:39Z</time>
      </trkpt>
      <trkpt lat="59.6368678" lon="15.0490732">
        <ele>115.4</ele>
        <time>2012-07-21T18:44:44Z</time>
      </trkpt>
      <trkpt lat="59.6372417" lon="15.0494881">
        <ele>113.2</ele>
        <time>2012-07-21T18:44:49Z</time>
      </trkpt>
      <trkpt lat="59.637583" lon="15.0498892">
        <ele>110</ele>
        <time>2012-07-21T18:44:53Z</time>
      </trkpt>
      <trkpt lat="59.6379674" lon="15.0503176">
        <ele>106.8</ele>
        <time>2012-07-21T18:44:57Z</time>
      </trkpt>
      <trkpt lat="59.6383387" lon="15.0507365">
        <ele>106.8</ele>
        <time>2012-07-21T18:45:01Z</time>
      </trkpt>
      <trkpt lat="59.6386934" lon="15.0510875">
        <ele>106.8</ele>
        <time>2012-07-21T18:45:05Z</time>
      </trkpt>
      <trkpt lat="59.6390833" lon="15.0513616">
        <ele>106.8</ele>
        <time>2012-07-21T18:45:09Z</time>
      </trkpt>
      <trkpt lat="59.6394676" lon="15.0515461">
        <ele>107.2</ele>
        <time>2012-07-21T18:45:13Z</time>
      </trkpt>
      <trkpt lat="59.639826" lon="15.0516985">
        <ele>108</ele>
        <time>2012-07-21T18:45:17Z</time>
      </trkpt>
      <trkpt lat="59.6402359" lon="15.0518683">
        <ele>109.2</ele>
        <time>2012-07-21T18:45:22Z</time>
      </trkpt>
      <trkpt lat="59.6405989" lon="15.0520115">
        <ele>108.8</ele>
        <time>2012-07-21T18:45:27Z</time>
      </trkpt>
      <trkpt lat="59.6409848" lon="15.052076">
        <ele>107</ele>
        <time>2012-07-21T18:45:33Z</time>
      </trkpt>
      <trkpt lat="59.641364" lon="15.0520359">
        <ele>109.2</ele>
        <time>2012-07-21T18:45:39Z</time>
      </trkpt>
      <trkpt lat="59.6417358" lon="15.0520051">
        <ele>112.2</ele>
        <time>2012-07-21T18:45:45Z</time>
      </trkpt>
      <trkpt lat="59.6420724" lon="15.0520506">
        <ele>117</ele>
        <time>2012-07-21T18:45:51Z</time>
      </trkpt>
      <trkpt lat="59.6424386" lon="15.0521676">
        <ele>115.4</ele>
        <time>2012-07-21T18:45:57Z</time>
      </trkpt>
      <trkpt lat="59.6428226" lon="15.0522755">
        <ele>115.8</ele>
        <time>2012-07-21T18:46:03Z</time>
      </trkpt>
      <trkpt lat="59.6432195" lon="15.0523354">
        <ele>114.4</ele>
        <time>2012-07-21T18:46:08Z</time>
      </trkpt>
      <trkpt lat="59.6436462" lon="15.0523798">
        <ele>114.8</ele>
        <time>2012-07-21T18:46:13Z</time>
      </trkpt>
      <trkpt lat="59.6440766" lon="15.0522966">
        <ele>115.8</ele>
        <time>2012-07-21T18:46:18Z</time>
      </trkpt>
      <trkpt lat="59.6444817" lon="15.052149">
        <ele>115.8</ele>
        <time>2012-07-21T18:46:23Z</time>
      </trkpt>
      <trkpt lat="59.6448896" lon="15.0521196">
        <ele>115.2</ele>
        <time>2012-07-21T18:46:29Z</time>
      </trkpt>
      <trkpt lat="59.6452507" lon="15.0521807">
        <ele>116.2</ele>
        <time>2012-07-21T18:46:34Z</time>
      </trkpt>
      <trkpt lat="59.6456185" lon="15.0523358">
        <ele>115.4</ele>
        <time>2012-07-21T18:46:39Z</time>
      </trkpt>
      <trkpt lat="59.645978" lon="15.052652">
        <ele>114.4</ele>
        <time>2012-07-21T18:46:44Z</time>
      </trkpt>
      <trkpt lat="59.6463444" lon="15.053055">
        <ele>113</ele>
        <time>2012-07-21T18:46:49Z</time>
      </trkpt>
      <trkpt lat="59.6467099" lon="15.0534211">
        <ele>112.6</ele>
        <time>2012-07-21T18:46:54Z</time>
      </trkpt>
      <trkpt lat="59.6471015" lon="15.053755">
        <ele>111.4</ele>
        <time>2012-07-21T18:46:59Z</time>
      </trkpt>
      <trkpt lat="59.6474729" lon="15.0540889">
        <ele>110.2</ele>
        <time>2012-07-21T18:47:04Z</time>
      </trkpt>
      <trkpt lat="59.6477916" lon="15.0544334">
        <ele>111.6</ele>
        <time>2012-07-21T18:47:09Z</time>
      </trkpt>
      <trkpt lat="59.6478526" lon="15.0545303">
        <ele>111.8</ele>
        <time>2012-07-21T18:47:10Z</time>
      </trkpt>
      <trkpt lat="59.6480406" lon="15.055">
        <ele>109.8</ele>
        <time>2012-07-21T18:47:14Z</time>
      </trkpt>
      <trkpt lat="59.6482899" lon="15.0556486">
        <ele>107</ele>
        <time>2012-07-21T18:47:19Z</time>
      </trkpt>
      <trkpt lat="59.6485927" lon="15.056238">
        <ele>106.2</ele>
        <time>2012-07-21T18:47:24Z</time>
      </trkpt>
      <trkpt lat="59.6488969" lon="15.0567923">
        <ele>104.6</ele>
        <time>2012-07-21T18:47:29Z</time>
      </trkpt>
      <trkpt lat="59.6491697" lon="15.0572995">
        <ele>105.6</ele>
        <time>2012-07-21T18:47:34Z</time>
      </trkpt>
      <trkpt lat="59.6494755" lon="15.0578615">
        <ele>109.4</ele>
        <time>2012-07-21T18:47:40Z</time>
      </trkpt>
      <trkpt lat="59.6497536" lon="15.0583874">
        <ele>110.8</ele>
        <time>2012-07-21T18:47:46Z</time>
      </trkpt>
      <trkpt lat="59.6500485" lon="15.0589371">
        <ele>113.8</ele>
        <time>2012-07-21T18:47:53Z</time>
      </trkpt>
      <trkpt lat="59.6503391" lon="15.0594867">
        <ele>115.8</ele>
        <time>2012-07-21T18:48:00Z</time>
      </trkpt>
      <trkpt lat="59.650598" lon="15.0599876">
        <ele>117.4</ele>
        <time>2012-07-21T18:48:06Z</time>
      </trkpt>
      <trkpt lat="59.6508916" lon="15.0605495">
        <ele>119.6</ele>
        <time>2012-07-21T18:48:13Z</time>
      </trkpt>
      <trkpt lat="59.6511457" lon="15.0610462">
        <ele>121</ele>
        <time>2012-07-21T18:48:19Z</time>
      </trkpt>
      <trkpt lat="59.6514201" lon="15.0615927">
        <ele>119.4</ele>
        <time>2012-07-21T18:48:26Z</time>
      </trkpt>
      <trkpt lat="59.6516848" lon="15.0620839">
        <ele>120.2</ele>
        <time>2012-07-21T18:48:32Z</time>
      </trkpt>
      <trkpt lat="59.651965" lon="15.0625786">
        <ele>121.8</ele>
        <time>2012-07-21T18:48:38Z</time>
      </trkpt>
      <trkpt lat="59.6522515" lon="15.06308">
        <ele>122.4</ele>
        <time>2012-07-21T18:48:44Z</time>
      </trkpt>
      <trkpt lat="59.6525241" lon="15.0635629">
        <ele>122</ele>
        <time>2012-07-21T18:48:49Z</time>
      </trkpt>
      <trkpt lat="59.6527969" lon="15.0640347">
        <ele>122</ele>
        <time>2012-07-21T18:48:54Z</time>
      </trkpt>
      <trkpt lat="59.6531" lon="15.064573">
        <ele>122</ele>
        <time>2012-07-21T18:49:00Z</time>
      </trkpt>
      <trkpt lat="59.6533806" lon="15.0652033">
        <ele>123</ele>
        <time>2012-07-21T18:49:06Z</time>
      </trkpt>
      <trkpt lat="59.6535435" lon="15.0658653">
        <ele>124.8</ele>
        <time>2012-07-21T18:49:11Z</time>
      </trkpt>
      <trkpt lat="59.6536499" lon="15.0665656">
        <ele>126</ele>
        <time>2012-07-21T18:49:16Z</time>
      </trkpt>
      <trkpt lat="59.6537392" lon="15.0672496">
        <ele>128</ele>
        <time>2012-07-21T18:49:21Z</time>
      </trkpt>
      <trkpt lat="59.6538369" lon="15.0680566">
        <ele>129.8</ele>
        <time>2012-07-21T18:49:27Z</time>
      </trkpt>
      <trkpt lat="59.653964" lon="15.0688454">
        <ele>130.8</ele>
        <time>2012-07-21T18:49:33Z</time>
      </trkpt>
      <trkpt lat="59.6540651" lon="15.0692537">
        <ele>131.8</ele>
        <time>2012-07-21T18:49:36Z</time>
      </trkpt>
      <trkpt lat="59.6541628" lon="15.0695562">
        <ele>130.6</ele>
        <time>2012-07-21T18:49:38Z</time>
      </trkpt>
      <trkpt lat="59.65422" lon="15.0696957">
        <ele>130.2</ele>
        <time>2012-07-21T18:49:39Z</time>
      </trkpt>
      <trkpt lat="59.6544837" lon="15.0701172">
        <ele>128.8</ele>
        <time>2012-07-21T18:49:43Z</time>
      </trkpt>
      <trkpt lat="59.6546245" lon="15.0702334">
        <ele>128.6</ele>
        <time>2012-07-21T18:49:45Z</time>
      </trkpt>
      <trkpt lat="59.6546929" lon="15.07027">
        <ele>128.4</ele>
        <time>2012-07-21T18:49:46Z</time>
      </trkpt>
      <trkpt lat="59.6548338" lon="15.0703157">
        <ele>128.4</ele>
        <time>2012-07-21T18:49:48Z</time>
      </trkpt>
      <trkpt lat="59.6552321" lon="15.0703711">
        <ele>126.6</ele>
        <time>2012-07-21T18:49:53Z</time>
      </trkpt>
      <trkpt lat="59.6555979" lon="15.0704789">
        <ele>125.2</ele>
        <time>2012-07-21T18:49:57Z</time>
      </trkpt>
      <trkpt lat="59.6559688" lon="15.0707149">
        <ele>122.8</ele>
        <time>2012-07-21T18:50:01Z</time>
      </trkpt>
      <trkpt lat="59.6562949" lon="15.0711106">
        <ele>121.6</ele>
        <time>2012-07-21T18:50:05Z</time>
      </trkpt>
      <trkpt lat="59.656421" lon="15.0713325">
        <ele>117.2</ele>
        <time>2012-07-21T18:50:07Z</time>
      </trkpt>
      <trkpt lat="59.6565843" lon="15.0717121">
        <ele>114.2</ele>
        <time>2012-07-21T18:50:10Z</time>
      </trkpt>
      <trkpt lat="59.6568647" lon="15.0721685">
        <ele>112.8</ele>
        <time>2012-07-21T18:50:15Z</time>
      </trkpt>
      <trkpt lat="59.6569183" lon="15.0722244">
        <ele>113.2</ele>
        <time>2012-07-21T18:50:16Z</time>
      </trkpt>
      <trkpt lat="59.6570922" lon="15.0723306">
        <ele>116.2</ele>
        <time>2012-07-21T18:50:19Z</time>
      </trkpt>
      <trkpt lat="59.657258" lon="15.0723689">
        <ele>118.8</ele>
        <time>2012-07-21T18:50:22Z</time>
      </trkpt>
      <trkpt lat="59.6576404" lon="15.0723325">
        <ele>119.6</ele>
        <time>2012-07-21T18:50:29Z</time>
      </trkpt>
      <trkpt lat="59.6580228" lon="15.0722714">
        <ele>121</ele>
        <time>2012-07-21T18:50:36Z</time>
      </trkpt>
      <trkpt lat="59.6580795" lon="15.0722825">
        <ele>121.4</ele>
        <time>2012-07-21T18:50:37Z</time>
      </trkpt>
      <trkpt lat="59.6581978" lon="15.0723292">
        <ele>123</ele>
        <time>2012-07-21T18:50:39Z</time>
      </trkpt>
      <trkpt lat="59.6583863" lon="15.0726042">
        <ele>125.6</ele>
        <time>2012-07-21T18:50:43Z</time>
      </trkpt>
      <trkpt lat="59.6584448" lon="15.0728212">
        <ele>127.8</ele>
        <time>2012-07-21T18:50:45Z</time>
      </trkpt>
      <trkpt lat="59.6585477" lon="15.0732593">
        <ele>130.4</ele>
        <time>2012-07-21T18:50:49Z</time>
      </trkpt>
      <trkpt lat="59.6587037" lon="15.0738868">
        <ele>135.6</ele>
        <time>2012-07-21T18:50:55Z</time>
      </trkpt>
      <trkpt lat="59.6588591" lon="15.0745322">
        <ele>137.6</ele>
        <time>2012-07-21T18:51:01Z</time>
      </trkpt>
      <trkpt lat="59.658966" lon="15.0750677">
        <ele>138</ele>
        <time>2012-07-21T18:51:06Z</time>
      </trkpt>
      <trkpt lat="59.6589836" lon="15.0753036">
        <ele>137</ele>
        <time>2012-07-21T18:51:08Z</time>
      </trkpt>
      <trkpt lat="59.6589835" lon="15.0755323">
        <ele>137.4</ele>
        <time>2012-07-21T18:51:10Z</time>
      </trkpt>
      <trkpt lat="59.658968" lon="15.0761106">
        <ele>135.6</ele>
        <time>2012-07-21T18:51:15Z</time>
      </trkpt>
      <trkpt lat="59.6589815" lon="15.0764867">
        <ele>135.4</ele>
        <time>2012-07-21T18:51:18Z</time>
      </trkpt>
      <trkpt lat="59.6590161" lon="15.0768498">
        <ele>134.6</ele>
        <time>2012-07-21T18:51:21Z</time>
      </trkpt>
      <trkpt lat="59.6591465" lon="15.0775497">
        <ele>134</ele>
        <time>2012-07-21T18:51:27Z</time>
      </trkpt>
      <trkpt lat="59.6592797" lon="15.0782748">
        <ele>134</ele>
        <time>2012-07-21T18:51:34Z</time>
      </trkpt>
      <trkpt lat="59.6593016" lon="15.0785888">
        <ele>135.8</ele>
        <time>2012-07-21T18:51:37Z</time>
      </trkpt>
      <trkpt lat="59.6592494" lon="15.0789938">
        <ele>137.4</ele>
        <time>2012-07-21T18:51:41Z</time>
      </trkpt>
      <trkpt lat="59.6592263" lon="15.0790872">
        <ele>138.2</ele>
        <time>2012-07-21T18:51:42Z</time>
      </trkpt>
      <trkpt lat="59.6591695" lon="15.0792461">
        <ele>140.2</ele>
        <time>2012-07-21T18:51:44Z</time>
      </trkpt>
      <trkpt lat="59.6590385" lon="15.0795741">
        <ele>143.4</ele>
        <time>2012-07-21T18:51:48Z</time>
      </trkpt>
      <trkpt lat="59.6588557" lon="15.0802346">
        <ele>145.6</ele>
        <time>2012-07-21T18:51:55Z</time>
      </trkpt>
      <trkpt lat="59.6586677" lon="15.0809396">
        <ele>150.2</ele>
        <time>2012-07-21T18:52:02Z</time>
      </trkpt>
      <trkpt lat="59.6584448" lon="15.0816128">
        <ele>155.4</ele>
        <time>2012-07-21T18:52:09Z</time>
      </trkpt>
      <trkpt lat="59.6582102" lon="15.0823179">
        <ele>162</ele>
        <time>2012-07-21T18:52:16Z</time>
      </trkpt>
      <trkpt lat="59.657978" lon="15.082923">
        <ele>164.6</ele>
        <time>2012-07-21T18:52:22Z</time>
      </trkpt>
      <trkpt lat="59.6578961" lon="15.0831527">
        <ele>164.6</ele>
        <time>2012-07-21T18:52:24Z</time>
      </trkpt>
      <trkpt lat="59.6578267" lon="15.0837174">
        <ele>164.2</ele>
        <time>2012-07-21T18:52:28Z</time>
      </trkpt>
      <trkpt lat="59.6578351" lon="15.0840309">
        <ele>163.6</ele>
        <time>2012-07-21T18:52:30Z</time>
      </trkpt>
      <trkpt lat="59.6578537" lon="15.0845431">
        <ele>161.8</ele>
        <time>2012-07-21T18:52:33Z</time>
      </trkpt>
      <trkpt lat="59.657884" lon="15.0852699">
        <ele>159.8</ele>
        <time>2012-07-21T18:52:37Z</time>
      </trkpt>
      <trkpt lat="59.6579258" lon="15.0861252">
        <ele>159.2</ele>
        <time>2012-07-21T18:52:42Z</time>
      </trkpt>
      <trkpt lat="59.6579575" lon="15.086908">
        <ele>160.4</ele>
        <time>2012-07-21T18:52:47Z</time>
      </trkpt>
      <trkpt lat="59.6579171" lon="15.087669">
        <ele>162</ele>
        <time>2012-07-21T18:52:52Z</time>
      </trkpt>
      <trkpt lat="59.6578616" lon="15.0883938">
        <ele>162.8</ele>
        <time>2012-07-21T18:52:57Z</time>
      </trkpt>
      <trkpt lat="59.657816" lon="15.0891615">
        <ele>164</ele>
        <time>2012-07-21T18:53:02Z</time>
      </trkpt>
      <trkpt lat="59.6578111" lon="15.0898113">
        <ele>163.2</ele>
        <time>2012-07-21T18:53:06Z</time>
      </trkpt>
      <trkpt lat="59.6578275" lon="15.0899784">
        <ele>162.8</ele>
        <time>2012-07-21T18:53:07Z</time>
      </trkpt>
      <trkpt lat="59.6578992" lon="15.0906401">
        <ele>158</ele>
        <time>2012-07-21T18:53:11Z</time>
      </trkpt>
      <trkpt lat="59.6579249" lon="15.0908195">
        <ele>157.6</ele>
        <time>2012-07-21T18:53:12Z</time>
      </trkpt>
      <trkpt lat="59.6580589" lon="15.0915458">
        <ele>157</ele>
        <time>2012-07-21T18:53:16Z</time>
      </trkpt>
      <trkpt lat="59.658183" lon="15.0921669">
        <ele>157.4</ele>
        <time>2012-07-21T18:53:20Z</time>
      </trkpt>
      <trkpt lat="59.658339" lon="15.0927952">
        <ele>156.4</ele>
        <time>2012-07-21T18:53:23Z</time>
      </trkpt>
      <trkpt lat="59.6585951" lon="15.0935831">
        <ele>155.8</ele>
        <time>2012-07-21T18:53:27Z</time>
      </trkpt>
      <trkpt lat="59.6588375" lon="15.0942694">
        <ele>154.2</ele>
        <time>2012-07-21T18:53:31Z</time>
      </trkpt>
      <trkpt lat="59.6590792" lon="15.0949087">
        <ele>153.4</ele>
        <time>2012-07-21T18:53:35Z</time>
      </trkpt>
      <trkpt lat="59.6593281" lon="15.0954801">
        <ele>153</ele>
        <time>2012-07-21T18:53:39Z</time>
      </trkpt>
      <trkpt lat="59.659569" lon="15.0960125">
        <ele>151.8</ele>
        <time>2012-07-21T18:53:43Z</time>
      </trkpt>
      <trkpt lat="59.6598445" lon="15.0964782">
        <ele>150.2</ele>
        <time>2012-07-21T18:53:47Z</time>
      </trkpt>
      <trkpt lat="59.6601837" lon="15.0968805">
        <ele>147.4</ele>
        <time>2012-07-21T18:53:51Z</time>
      </trkpt>
      <trkpt lat="59.6605422" lon="15.0972848">
        <ele>143.8</ele>
        <time>2012-07-21T18:53:55Z</time>
      </trkpt>
      <trkpt lat="59.6608919" lon="15.0976582">
        <ele>140.6</ele>
        <time>2012-07-21T18:53:59Z</time>
      </trkpt>
      <trkpt lat="59.6612411" lon="15.0979456">
        <ele>139</ele>
        <time>2012-07-21T18:54:03Z</time>
      </trkpt>
      <trkpt lat="59.6615875" lon="15.0981306">
        <ele>137.4</ele>
        <time>2012-07-21T18:54:07Z</time>
      </trkpt>
      <trkpt lat="59.6619419" lon="15.0983144">
        <ele>136</ele>
        <time>2012-07-21T18:54:11Z</time>
      </trkpt>
      <trkpt lat="59.6622997" lon="15.0984995">
        <ele>133.4</ele>
        <time>2012-07-21T18:54:15Z</time>
      </trkpt>
      <trkpt lat="59.6626481" lon="15.0986694">
        <ele>131.4</ele>
        <time>2012-07-21T18:54:19Z</time>
      </trkpt>
      <trkpt lat="59.6628049" lon="15.0987844">
        <ele>128.8</ele>
        <time>2012-07-21T18:54:21Z</time>
      </trkpt>
      <trkpt lat="59.6629408" lon="15.0988726">
        <ele>127.2</ele>
        <time>2012-07-21T18:54:23Z</time>
      </trkpt>
      <trkpt lat="59.6629886" lon="15.0989543">
        <ele>127.8</ele>
        <time>2012-07-21T18:54:24Z</time>
      </trkpt>
      <trkpt lat="59.663095" lon="15.0991256">
        <ele>129</ele>
        <time>2012-07-21T18:54:27Z</time>
      </trkpt>
      <trkpt lat="59.6633186" lon="15.0991844">
        <ele>127</ele>
        <time>2012-07-21T18:54:31Z</time>
      </trkpt>
      <trkpt lat="59.6634673" lon="15.0991104">
        <ele>127.2</ele>
        <time>2012-07-21T18:54:33Z</time>
      </trkpt>
      <trkpt lat="59.6637116" lon="15.0989853">
        <ele>130.2</ele>
        <time>2012-07-21T18:54:36Z</time>
      </trkpt>
      <trkpt lat="59.6641222" lon="15.0988693">
        <ele>133</ele>
        <time>2012-07-21T18:54:41Z</time>
      </trkpt>
      <trkpt lat="59.6645466" lon="15.0988464">
        <ele>134.2</ele>
        <time>2012-07-21T18:54:46Z</time>
      </trkpt>
      <trkpt lat="59.6649807" lon="15.0989397">
        <ele>134.6</ele>
        <time>2012-07-21T18:54:51Z</time>
      </trkpt>
      <trkpt lat="59.6653339" lon="15.099093">
        <ele>136</ele>
        <time>2012-07-21T18:54:55Z</time>
      </trkpt>
      <trkpt lat="59.6657078" lon="15.099294">
        <ele>135.2</ele>
        <time>2012-07-21T18:54:59Z</time>
      </trkpt>
      <trkpt lat="59.666089" lon="15.0995105">
        <ele>133.8</ele>
        <time>2012-07-21T18:55:03Z</time>
      </trkpt>
      <trkpt lat="59.6664668" lon="15.099735">
        <ele>132</ele>
        <time>2012-07-21T18:55:07Z</time>
      </trkpt>
      <trkpt lat="59.6668454" lon="15.0999639">
        <ele>130</ele>
        <time>2012-07-21T18:55:11Z</time>
      </trkpt>
      <trkpt lat="59.6672075" lon="15.10017">
        <ele>128.8</ele>
        <time>2012-07-21T18:55:15Z</time>
      </trkpt>
      <trkpt lat="59.6675683" lon="15.1003451">
        <ele>127.6</ele>
        <time>2012-07-21T18:55:19Z</time>
      </trkpt>
      <trkpt lat="59.6679478" lon="15.1004598">
        <ele>126.4</ele>
        <time>2012-07-21T18:55:23Z</time>
      </trkpt>
      <trkpt lat="59.6683501" lon="15.1005181">
        <ele>124</ele>
        <time>2012-07-21T18:55:27Z</time>
      </trkpt>
      <trkpt lat="59.6687729" lon="15.1005522">
        <ele>121.2</ele>
        <time>2012-07-21T18:55:31Z</time>
      </trkpt>
      <trkpt lat="59.6691936" lon="15.1005888">
        <ele>119.2</ele>
        <time>2012-07-21T18:55:35Z</time>
      </trkpt>
      <trkpt lat="59.6696078" lon="15.1006145">
        <ele>119.2</ele>
        <time>2012-07-21T18:55:39Z</time>
      </trkpt>
      <trkpt lat="59.6700073" lon="15.1006472">
        <ele>118.4</ele>
        <time>2012-07-21T18:55:43Z</time>
      </trkpt>
      <trkpt lat="59.6704017" lon="15.1006757">
        <ele>118</ele>
        <time>2012-07-21T18:55:47Z</time>
      </trkpt>
      <trkpt lat="59.670785" lon="15.1007014">
        <ele>117.6</ele>
        <time>2012-07-21T18:55:51Z</time>
      </trkpt>
      <trkpt lat="59.6711479" lon="15.1007129">
        <ele>117.8</ele>
        <time>2012-07-21T18:55:55Z</time>
      </trkpt>
      <trkpt lat="59.6715899" lon="15.1006902">
        <ele>116.4</ele>
        <time>2012-07-21T18:56:00Z</time>
      </trkpt>
      <trkpt lat="59.6719674" lon="15.1006369">
        <ele>115.4</ele>
        <time>2012-07-21T18:56:04Z</time>
      </trkpt>
      <trkpt lat="59.6723762" lon="15.1005813">
        <ele>115</ele>
        <time>2012-07-21T18:56:08Z</time>
      </trkpt>
      <trkpt lat="59.6727857" lon="15.1005202">
        <ele>114.6</ele>
        <time>2012-07-21T18:56:12Z</time>
      </trkpt>
      <trkpt lat="59.6731732" lon="15.1004595">
        <ele>115.8</ele>
        <time>2012-07-21T18:56:16Z</time>
      </trkpt>
      <trkpt lat="59.6735541" lon="15.1003981">
        <ele>116.4</ele>
        <time>2012-07-21T18:56:20Z</time>
      </trkpt>
      <trkpt lat="59.6739366" lon="15.1003373">
        <ele>114.8</ele>
        <time>2012-07-21T18:56:24Z</time>
      </trkpt>
      <trkpt lat="59.6743078" lon="15.1002781">
        <ele>112.6</ele>
        <time>2012-07-21T18:56:28Z</time>
      </trkpt>
      <trkpt lat="59.6746854" lon="15.1002343">
        <ele>108.8</ele>
        <time>2012-07-21T18:56:32Z</time>
      </trkpt>
      <trkpt lat="59.6750905" lon="15.1001882">
        <ele>105.6</ele>
        <time>2012-07-21T18:56:36Z</time>
      </trkpt>
      <trkpt lat="59.6755144" lon="15.1001319">
        <ele>102.6</ele>
        <time>2012-07-21T18:56:40Z</time>
      </trkpt>
      <trkpt lat="59.6759498" lon="15.1000711">
        <ele>100.8</ele>
        <time>2012-07-21T18:56:44Z</time>
      </trkpt>
      <trkpt lat="59.6763814" lon="15.1000152">
        <ele>99.8</ele>
        <time>2012-07-21T18:56:48Z</time>
      </trkpt>
      <trkpt lat="59.6767967" lon="15.0999374">
        <ele>99.8</ele>
        <time>2012-07-21T18:56:52Z</time>
      </trkpt>
      <trkpt lat="59.6772037" lon="15.0998463">
        <ele>100.4</ele>
        <time>2012-07-21T18:56:56Z</time>
      </trkpt>
      <trkpt lat="59.6775868" lon="15.0997587">
        <ele>100.2</ele>
        <time>2012-07-21T18:57:00Z</time>
      </trkpt>
      <trkpt lat="59.6779776" lon="15.0996526">
        <ele>99.4</ele>
        <time>2012-07-21T18:57:04Z</time>
      </trkpt>
      <trkpt lat="59.6783717" lon="15.0995302">
        <ele>98</ele>
        <time>2012-07-21T18:57:08Z</time>
      </trkpt>
      <trkpt lat="59.6787653" lon="15.0994118">
        <ele>97.2</ele>
        <time>2012-07-21T18:57:12Z</time>
      </trkpt>
      <trkpt lat="59.6791319" lon="15.0992982">
        <ele>97.8</ele>
        <time>2012-07-21T18:57:16Z</time>
      </trkpt>
      <trkpt lat="59.6795782" lon="15.0991722">
        <ele>101</ele>
        <time>2012-07-21T18:57:21Z</time>
      </trkpt>
      <trkpt lat="59.679994" lon="15.0990435">
        <ele>103.8</ele>
        <time>2012-07-21T18:57:26Z</time>
      </trkpt>
      <trkpt lat="59.6804119" lon="15.0989238">
        <ele>106.6</ele>
        <time>2012-07-21T18:57:31Z</time>
      </trkpt>
      <trkpt lat="59.6808027" lon="15.0987946">
        <ele>108.4</ele>
        <time>2012-07-21T18:57:36Z</time>
      </trkpt>
      <trkpt lat="59.6811571" lon="15.0986807">
        <ele>109</ele>
        <time>2012-07-21T18:57:41Z</time>
      </trkpt>
      <trkpt lat="59.681503" lon="15.0985811">
        <ele>108.4</ele>
        <time>2012-07-21T18:57:46Z</time>
      </trkpt>
      <trkpt lat="59.6818481" lon="15.0984791">
        <ele>108.8</ele>
        <time>2012-07-21T18:57:51Z</time>
      </trkpt>
      <trkpt lat="59.6822391" lon="15.0983456">
        <ele>110.8</ele>
        <time>2012-07-21T18:57:57Z</time>
      </trkpt>
      <trkpt lat="59.6826142" lon="15.0982256">
        <ele>112.4</ele>
        <time>2012-07-21T18:58:03Z</time>
      </trkpt>
      <trkpt lat="59.6829947" lon="15.098112">
        <ele>114</ele>
        <time>2012-07-21T18:58:09Z</time>
      </trkpt>
      <trkpt lat="59.6833658" lon="15.0979831">
        <ele>115</ele>
        <time>2012-07-21T18:58:15Z</time>
      </trkpt>
      <trkpt lat="59.6837692" lon="15.0978542">
        <ele>116.6</ele>
        <time>2012-07-21T18:58:21Z</time>
      </trkpt>
      <trkpt lat="59.6841779" lon="15.0977268">
        <ele>119</ele>
        <time>2012-07-21T18:58:27Z</time>
      </trkpt>
      <trkpt lat="59.6845586" lon="15.0976141">
        <ele>121</ele>
        <time>2012-07-21T18:58:33Z</time>
      </trkpt>
      <trkpt lat="59.6849414" lon="15.0975127">
        <ele>122.8</ele>
        <time>2012-07-21T18:58:39Z</time>
      </trkpt>
      <trkpt lat="59.6853457" lon="15.0973871">
        <ele>124</ele>
        <time>2012-07-21T18:58:45Z</time>
      </trkpt>
      <trkpt lat="59.6857231" lon="15.0972521">
        <ele>122.6</ele>
        <time>2012-07-21T18:58:51Z</time>
      </trkpt>
      <trkpt lat="59.6861035" lon="15.0971252">
        <ele>119.2</ele>
        <time>2012-07-21T18:58:57Z</time>
      </trkpt>
      <trkpt lat="59.6864727" lon="15.097001">
        <ele>118.6</ele>
        <time>2012-07-21T18:59:03Z</time>
      </trkpt>
      <trkpt lat="59.6868876" lon="15.0968594">
        <ele>120.4</ele>
        <time>2012-07-21T18:59:10Z</time>
      </trkpt>
      <trkpt lat="59.6873043" lon="15.0967139">
        <ele>122</ele>
        <time>2012-07-21T18:59:17Z</time>
      </trkpt>
      <trkpt lat="59.6876725" lon="15.0965899">
        <ele>123.4</ele>
        <time>2012-07-21T18:59:23Z</time>
      </trkpt>
      <trkpt lat="59.6880434" lon="15.0964823">
        <ele>125</ele>
        <time>2012-07-21T18:59:29Z</time>
      </trkpt>
      <trkpt lat="59.6884581" lon="15.0963679">
        <ele>125.4</ele>
        <time>2012-07-21T18:59:36Z</time>
      </trkpt>
      <trkpt lat="59.6888687" lon="15.0962375">
        <ele>126.6</ele>
        <time>2012-07-21T18:59:42Z</time>
      </trkpt>
      <trkpt lat="59.6892826" lon="15.0961183">
        <ele>127.6</ele>
        <time>2012-07-21T18:59:48Z</time>
      </trkpt>
      <trkpt lat="59.6896555" lon="15.0959986">
        <ele>128.2</ele>
        <time>2012-07-21T18:59:53Z</time>
      </trkpt>
      <trkpt lat="59.6900506" lon="15.0959036">
        <ele>128.2</ele>
        <time>2012-07-21T18:59:58Z</time>
      </trkpt>
      <trkpt lat="59.6904838" lon="15.0958261">
        <ele>125.6</ele>
        <time>2012-07-21T19:00:03Z</time>
      </trkpt>
      <trkpt lat="59.6908582" lon="15.0957976">
        <ele>122.4</ele>
        <time>2012-07-21T19:00:07Z</time>
      </trkpt>
      <trkpt lat="59.6912477" lon="15.0958167">
        <ele>120.4</ele>
        <time>2012-07-21T19:00:11Z</time>
      </trkpt>
      <trkpt lat="59.6916387" lon="15.0958686">
        <ele>117</ele>
        <time>2012-07-21T19:00:15Z</time>
      </trkpt>
      <trkpt lat="59.6920218" lon="15.0959634">
        <ele>115</ele>
        <time>2012-07-21T19:00:19Z</time>
      </trkpt>
      <trkpt lat="59.6923964" lon="15.0960948">
        <ele>113.8</ele>
        <time>2012-07-21T19:00:23Z</time>
      </trkpt>
      <trkpt lat="59.6927744" lon="15.0962798">
        <ele>113.2</ele>
        <time>2012-07-21T19:00:27Z</time>
      </trkpt>
      <trkpt lat="59.6931684" lon="15.0965233">
        <ele>110.8</ele>
        <time>2012-07-21T19:00:31Z</time>
      </trkpt>
      <trkpt lat="59.6935844" lon="15.0968253">
        <ele>107.4</ele>
        <time>2012-07-21T19:00:35Z</time>
      </trkpt>
      <trkpt lat="59.6940228" lon="15.0971717">
        <ele>105</ele>
        <time>2012-07-21T19:00:39Z</time>
      </trkpt>
      <trkpt lat="59.6944666" lon="15.0975203">
        <ele>101.2</ele>
        <time>2012-07-21T19:00:43Z</time>
      </trkpt>
      <trkpt lat="59.6948916" lon="15.097844">
        <ele>98.6</ele>
        <time>2012-07-21T19:00:47Z</time>
      </trkpt>
      <trkpt lat="59.6952799" lon="15.0981636">
        <ele>96.6</ele>
        <time>2012-07-21T19:00:51Z</time>
      </trkpt>
      <trkpt lat="59.6956448" lon="15.0984462">
        <ele>95.4</ele>
        <time>2012-07-21T19:00:55Z</time>
      </trkpt>
      <trkpt lat="59.6960022" lon="15.0987123">
        <ele>95.2</ele>
        <time>2012-07-21T19:00:59Z</time>
      </trkpt>
      <trkpt lat="59.6963663" lon="15.098989">
        <ele>94</ele>
        <time>2012-07-21T19:01:03Z</time>
      </trkpt>
      <trkpt lat="59.696747" lon="15.0992707">
        <ele>93.2</ele>
        <time>2012-07-21T19:01:07Z</time>
      </trkpt>
      <trkpt lat="59.6971359" lon="15.0995847">
        <ele>92.2</ele>
        <time>2012-07-21T19:01:11Z</time>
      </trkpt>
      <trkpt lat="59.6975104" lon="15.099877">
        <ele>92.4</ele>
        <time>2012-07-21T19:01:15Z</time>
      </trkpt>
      <trkpt lat="59.6978919" lon="15.1001841">
        <ele>93.2</ele>
        <time>2012-07-21T19:01:20Z</time>
      </trkpt>
      <trkpt lat="59.6982726" lon="15.1004747">
        <ele>94.2</ele>
        <time>2012-07-21T19:01:26Z</time>
      </trkpt>
      <trkpt lat="59.698507" lon="15.1006814">
        <ele>95.6</ele>
        <time>2012-07-21T19:01:30Z</time>
      </trkpt>
      <trkpt lat="59.6986098" lon="15.1008586">
        <ele>96.2</ele>
        <time>2012-07-21T19:01:32Z</time>
      </trkpt>
      <trkpt lat="59.6989978" lon="15.1010972">
        <ele>97.2</ele>
        <time>2012-07-21T19:01:38Z</time>
      </trkpt>
      <trkpt lat="59.6990702" lon="15.1011239">
        <ele>97.4</ele>
        <time>2012-07-21T19:01:39Z</time>
      </trkpt>
      <trkpt lat="59.6991413" lon="15.1011606">
        <ele>97.4</ele>
        <time>2012-07-21T19:01:40Z</time>
      </trkpt>
      <trkpt lat="59.6993454" lon="15.1013185">
        <ele>97.4</ele>
        <time>2012-07-21T19:01:43Z</time>
      </trkpt>
      <trkpt lat="59.6997309" lon="15.1016232">
        <ele>97.6</ele>
        <time>2012-07-21T19:01:50Z</time>
      </trkpt>
      <trkpt lat="59.7001327" lon="15.101937">
        <ele>97.8</ele>
        <time>2012-07-21T19:01:56Z</time>
      </trkpt>
      <trkpt lat="59.7004745" lon="15.1022048">
        <ele>98.2</ele>
        <time>2012-07-21T19:02:00Z</time>
      </trkpt>
      <trkpt lat="59.7008182" lon="15.1024716">
        <ele>98</ele>
        <time>2012-07-21T19:02:05Z</time>
      </trkpt>
      <trkpt lat="59.7011697" lon="15.1027508">
        <ele>97.8</ele>
        <time>2012-07-21T19:02:10Z</time>
      </trkpt>
      <trkpt lat="59.7015314" lon="15.1030528">
        <ele>97.2</ele>
        <time>2012-07-21T19:02:15Z</time>
      </trkpt>
      <trkpt lat="59.7018918" lon="15.1033988">
        <ele>96.4</ele>
        <time>2012-07-21T19:02:20Z</time>
      </trkpt>
      <trkpt lat="59.702256" lon="15.1037857">
        <ele>96</ele>
        <time>2012-07-21T19:02:25Z</time>
      </trkpt>
      <trkpt lat="59.7026231" lon="15.1042095">
        <ele>95.2</ele>
        <time>2012-07-21T19:02:30Z</time>
      </trkpt>
      <trkpt lat="59.7029754" lon="15.1046669">
        <ele>95.4</ele>
        <time>2012-07-21T19:02:35Z</time>
      </trkpt>
      <trkpt lat="59.7033076" lon="15.1051443">
        <ele>96</ele>
        <time>2012-07-21T19:02:41Z</time>
      </trkpt>
      <trkpt lat="59.7036262" lon="15.1056289">
        <ele>96.4</ele>
        <time>2012-07-21T19:02:46Z</time>
      </trkpt>
      <trkpt lat="59.7039323" lon="15.1060997">
        <ele>97</ele>
        <time>2012-07-21T19:02:50Z</time>
      </trkpt>
      <trkpt lat="59.70423" lon="15.1065623">
        <ele>97.6</ele>
        <time>2012-07-21T19:02:56Z</time>
      </trkpt>
      <trkpt lat="59.7045357" lon="15.1070306">
        <ele>97.4</ele>
        <time>2012-07-21T19:03:01Z</time>
      </trkpt>
      <trkpt lat="59.7048503" lon="15.1075342">
        <ele>96.6</ele>
        <time>2012-07-21T19:03:06Z</time>
      </trkpt>
      <trkpt lat="59.7051751" lon="15.1080344">
        <ele>95.4</ele>
        <time>2012-07-21T19:03:11Z</time>
      </trkpt>
      <trkpt lat="59.7054859" lon="15.1085189">
        <ele>95</ele>
        <time>2012-07-21T19:03:16Z</time>
      </trkpt>
      <trkpt lat="59.7057682" lon="15.1089658">
        <ele>95</ele>
        <time>2012-07-21T19:03:21Z</time>
      </trkpt>
      <trkpt lat="59.7060672" lon="15.1094119">
        <ele>95</ele>
        <time>2012-07-21T19:03:25Z</time>
      </trkpt>
      <trkpt lat="59.7063753" lon="15.1098927">
        <ele>95.2</ele>
        <time>2012-07-21T19:03:31Z</time>
      </trkpt>
      <trkpt lat="59.7066662" lon="15.1103681">
        <ele>95</ele>
        <time>2012-07-21T19:03:36Z</time>
      </trkpt>
      <trkpt lat="59.7069506" lon="15.110823">
        <ele>95.2</ele>
        <time>2012-07-21T19:03:41Z</time>
      </trkpt>
      <trkpt lat="59.707233" lon="15.1112731">
        <ele>95.8</ele>
        <time>2012-07-21T19:03:46Z</time>
      </trkpt>
      <trkpt lat="59.7075439" lon="15.1117512">
        <ele>96.4</ele>
        <time>2012-07-21T19:03:50Z</time>
      </trkpt>
      <trkpt lat="59.7078525" lon="15.1122255">
        <ele>95.8</ele>
        <time>2012-07-21T19:03:56Z</time>
      </trkpt>
      <trkpt lat="59.708165" lon="15.1127064">
        <ele>95</ele>
        <time>2012-07-21T19:04:01Z</time>
      </trkpt>
      <trkpt lat="59.7084738" lon="15.1131954">
        <ele>93.4</ele>
        <time>2012-07-21T19:04:06Z</time>
      </trkpt>
      <trkpt lat="59.7087954" lon="15.1137149">
        <ele>92.2</ele>
        <time>2012-07-21T19:04:11Z</time>
      </trkpt>
      <trkpt lat="59.7091326" lon="15.1142466">
        <ele>91.4</ele>
        <time>2012-07-21T19:04:16Z</time>
      </trkpt>
      <trkpt lat="59.7094688" lon="15.1147745">
        <ele>90.8</ele>
        <time>2012-07-21T19:04:21Z</time>
      </trkpt>
      <trkpt lat="59.7098034" lon="15.1153184">
        <ele>90.4</ele>
        <time>2012-07-21T19:04:26Z</time>
      </trkpt>
      <trkpt lat="59.7101411" lon="15.1159102">
        <ele>89.2</ele>
        <time>2012-07-21T19:04:31Z</time>
      </trkpt>
      <trkpt lat="59.7104101" lon="15.116404">
        <ele>88.4</ele>
        <time>2012-07-21T19:04:35Z</time>
      </trkpt>
      <trkpt lat="59.7106892" lon="15.1169109">
        <ele>87</ele>
        <time>2012-07-21T19:04:39Z</time>
      </trkpt>
      <trkpt lat="59.710969" lon="15.1174478">
        <ele>85.8</ele>
        <time>2012-07-21T19:04:43Z</time>
      </trkpt>
      <trkpt lat="59.7112544" lon="15.1179897">
        <ele>84.4</ele>
        <time>2012-07-21T19:04:47Z</time>
      </trkpt>
      <trkpt lat="59.7115464" lon="15.118532">
        <ele>82.2</ele>
        <time>2012-07-21T19:04:50Z</time>
      </trkpt>
      <trkpt lat="59.7118408" lon="15.1190947">
        <ele>80.8</ele>
        <time>2012-07-21T19:04:55Z</time>
      </trkpt>
      <trkpt lat="59.7121387" lon="15.1196429">
        <ele>80</ele>
        <time>2012-07-21T19:04:59Z</time>
      </trkpt>
      <trkpt lat="59.7124254" lon="15.1201537">
        <ele>79.6</ele>
        <time>2012-07-21T19:05:03Z</time>
      </trkpt>
      <trkpt lat="59.7126836" lon="15.1206479">
        <ele>79.8</ele>
        <time>2012-07-21T19:05:07Z</time>
      </trkpt>
      <trkpt lat="59.7129872" lon="15.1212214">
        <ele>79.6</ele>
        <time>2012-07-21T19:05:12Z</time>
      </trkpt>
      <trkpt lat="59.7132912" lon="15.121788">
        <ele>79.8</ele>
        <time>2012-07-21T19:05:17Z</time>
      </trkpt>
      <trkpt lat="59.7135814" lon="15.1223337">
        <ele>80.2</ele>
        <time>2012-07-21T19:05:22Z</time>
      </trkpt>
      <trkpt lat="59.7138455" lon="15.1228482">
        <ele>80.4</ele>
        <time>2012-07-21T19:05:27Z</time>
      </trkpt>
      <trkpt lat="59.7141196" lon="15.1234791">
        <ele>80.4</ele>
        <time>2012-07-21T19:05:33Z</time>
      </trkpt>
      <trkpt lat="59.7141092" lon="15.1241875">
        <ele>79.8</ele>
        <time>2012-07-21T19:05:38Z</time>
      </trkpt>
      <trkpt lat="59.7138603" lon="15.1248475">
        <ele>78</ele>
        <time>2012-07-21T19:05:43Z</time>
      </trkpt>
      <trkpt lat="59.7137547" lon="15.1250822">
        <ele>77.6</ele>
        <time>2012-07-21T19:05:45Z</time>
      </trkpt>
      <trkpt lat="59.7136989" lon="15.1255054">
        <ele>77.4</ele>
        <time>2012-07-21T19:05:48Z</time>
      </trkpt>
      <trkpt lat="59.7137336" lon="15.1259557">
        <ele>77</ele>
        <time>2012-07-21T19:05:51Z</time>
      </trkpt>
      <trkpt lat="59.7137718" lon="15.1262491">
        <ele>77</ele>
        <time>2012-07-21T19:05:53Z</time>
      </trkpt>
      <trkpt lat="59.7137839" lon="15.1264">
        <ele>77</ele>
        <time>2012-07-21T19:05:54Z</time>
      </trkpt>
      <trkpt lat="59.7137769" lon="15.127009">
        <ele>76.6</ele>
        <time>2012-07-21T19:05:58Z</time>
      </trkpt>
      <trkpt lat="59.713677" lon="15.1277852">
        <ele>75.4</ele>
        <time>2012-07-21T19:06:03Z</time>
      </trkpt>
      <trkpt lat="59.713561" lon="15.1286254">
        <ele>74</ele>
        <time>2012-07-21T19:06:08Z</time>
      </trkpt>
      <trkpt lat="59.7134668" lon="15.1293185">
        <ele>73</ele>
        <time>2012-07-21T19:06:12Z</time>
      </trkpt>
      <trkpt lat="59.7133528" lon="15.130171">
        <ele>72.4</ele>
        <time>2012-07-21T19:06:17Z</time>
      </trkpt>
      <trkpt lat="59.7132446" lon="15.1309675">
        <ele>72</ele>
        <time>2012-07-21T19:06:22Z</time>
      </trkpt>
      <trkpt lat="59.713141" lon="15.1317411">
        <ele>72.2</ele>
        <time>2012-07-21T19:06:27Z</time>
      </trkpt>
      <trkpt lat="59.7130413" lon="15.1325095">
        <ele>73</ele>
        <time>2012-07-21T19:06:32Z</time>
      </trkpt>
      <trkpt lat="59.7129421" lon="15.1332578">
        <ele>73</ele>
        <time>2012-07-21T19:06:37Z</time>
      </trkpt>
      <trkpt lat="59.7128393" lon="15.1340198">
        <ele>73</ele>
        <time>2012-07-21T19:06:42Z</time>
      </trkpt>
      <trkpt lat="59.7127414" lon="15.1347633">
        <ele>73</ele>
        <time>2012-07-21T19:06:47Z</time>
      </trkpt>
      <trkpt lat="59.7126469" lon="15.1355125">
        <ele>72.8</ele>
        <time>2012-07-21T19:06:52Z</time>
      </trkpt>
      <trkpt lat="59.712583" lon="15.136343">
        <ele>72.6</ele>
        <time>2012-07-21T19:06:57Z</time>
      </trkpt>
      <trkpt lat="59.7125822" lon="15.1371892">
        <ele>72</ele>
        <time>2012-07-21T19:07:02Z</time>
      </trkpt>
      <trkpt lat="59.7126285" lon="15.1380439">
        <ele>72.2</ele>
        <time>2012-07-21T19:07:07Z</time>
      </trkpt>
      <trkpt lat="59.7127287" lon="15.1388209">
        <ele>72.8</ele>
        <time>2012-07-21T19:07:12Z</time>
      </trkpt>
      <trkpt lat="59.7128671" lon="15.1395141">
        <ele>74.2</ele>
        <time>2012-07-21T19:07:17Z</time>
      </trkpt>
      <trkpt lat="59.713071" lon="15.1402165">
        <ele>75.6</ele>
        <time>2012-07-21T19:07:23Z</time>
      </trkpt>
      <trkpt lat="59.7133016" lon="15.1408858">
        <ele>76</ele>
        <time>2012-07-21T19:07:29Z</time>
      </trkpt>
      <trkpt lat="59.7135374" lon="15.1415755">
        <ele>76.8</ele>
        <time>2012-07-21T19:07:35Z</time>
      </trkpt>
      <trkpt lat="59.7137589" lon="15.1422439">
        <ele>78.4</ele>
        <time>2012-07-21T19:07:41Z</time>
      </trkpt>
      <trkpt lat="59.7139627" lon="15.1429665">
        <ele>80</ele>
        <time>2012-07-21T19:07:47Z</time>
      </trkpt>
      <trkpt lat="59.7141274" lon="15.1437369">
        <ele>81.2</ele>
        <time>2012-07-21T19:07:53Z</time>
      </trkpt>
      <trkpt lat="59.7142841" lon="15.1443273">
        <ele>82.6</ele>
        <time>2012-07-21T19:07:58Z</time>
      </trkpt>
      <trkpt lat="59.7143229" lon="15.1444361">
        <ele>83.2</ele>
        <time>2012-07-21T19:07:59Z</time>
      </trkpt>
      <trkpt lat="59.7145686" lon="15.1449965">
        <ele>82.4</ele>
        <time>2012-07-21T19:08:05Z</time>
      </trkpt>
      <trkpt lat="59.7148508" lon="15.1454178">
        <ele>82.8</ele>
        <time>2012-07-21T19:08:11Z</time>
      </trkpt>
      <trkpt lat="59.7151655" lon="15.1457342">
        <ele>84.4</ele>
        <time>2012-07-21T19:08:18Z</time>
      </trkpt>
      <trkpt lat="59.7154985" lon="15.1460248">
        <ele>86.6</ele>
        <time>2012-07-21T19:08:25Z</time>
      </trkpt>
      <trkpt lat="59.7158529" lon="15.1463427">
        <ele>89</ele>
        <time>2012-07-21T19:08:33Z</time>
      </trkpt>
      <trkpt lat="59.7161753" lon="15.1466362">
        <ele>90.2</ele>
        <time>2012-07-21T19:08:41Z</time>
      </trkpt>
      <trkpt lat="59.7165048" lon="15.1469253">
        <ele>92.4</ele>
        <time>2012-07-21T19:08:49Z</time>
      </trkpt>
      <trkpt lat="59.7168348" lon="15.1472132">
        <ele>94.4</ele>
        <time>2012-07-21T19:08:57Z</time>
      </trkpt>
      <trkpt lat="59.7171947" lon="15.1475316">
        <ele>94.8</ele>
        <time>2012-07-21T19:09:05Z</time>
      </trkpt>
      <trkpt lat="59.7175238" lon="15.1478201">
        <ele>95</ele>
        <time>2012-07-21T19:09:11Z</time>
      </trkpt>
      <trkpt lat="59.717906" lon="15.1481506">
        <ele>96</ele>
        <time>2012-07-21T19:09:18Z</time>
      </trkpt>
      <trkpt lat="59.7182693" lon="15.1484609">
        <ele>97.4</ele>
        <time>2012-07-21T19:09:24Z</time>
      </trkpt>
      <trkpt lat="59.718605" lon="15.1487567">
        <ele>98.2</ele>
        <time>2012-07-21T19:09:30Z</time>
      </trkpt>
      <trkpt lat="59.7189722" lon="15.1490788">
        <ele>99.6</ele>
        <time>2012-07-21T19:09:36Z</time>
      </trkpt>
      <trkpt lat="59.7193238" lon="15.1493909">
        <ele>101.6</ele>
        <time>2012-07-21T19:09:42Z</time>
      </trkpt>
      <trkpt lat="59.7197063" lon="15.149744">
        <ele>103</ele>
        <time>2012-07-21T19:09:49Z</time>
      </trkpt>
      <trkpt lat="59.7200454" lon="15.15004">
        <ele>103.6</ele>
        <time>2012-07-21T19:09:55Z</time>
      </trkpt>
      <trkpt lat="59.7203693" lon="15.1503212">
        <ele>104</ele>
        <time>2012-07-21T19:10:01Z</time>
      </trkpt>
      <trkpt lat="59.7207452" lon="15.1505518">
        <ele>105.6</ele>
        <time>2012-07-21T19:10:07Z</time>
      </trkpt>
      <trkpt lat="59.7211255" lon="15.150731">
        <ele>106</ele>
        <time>2012-07-21T19:10:13Z</time>
      </trkpt>
      <trkpt lat="59.7215043" lon="15.1508927">
        <ele>106.8</ele>
        <time>2012-07-21T19:10:19Z</time>
      </trkpt>
      <trkpt lat="59.7218726" lon="15.1510538">
        <ele>108.2</ele>
        <time>2012-07-21T19:10:25Z</time>
      </trkpt>
      <trkpt lat="59.7222647" lon="15.1512241">
        <ele>109</ele>
        <time>2012-07-21T19:10:32Z</time>
      </trkpt>
      <trkpt lat="59.7226491" lon="15.1513969">
        <ele>110.6</ele>
        <time>2012-07-21T19:10:39Z</time>
      </trkpt>
      <trkpt lat="59.7230268" lon="15.1515591">
        <ele>111.8</ele>
        <time>2012-07-21T19:10:46Z</time>
      </trkpt>
      <trkpt lat="59.7234116" lon="15.1517305">
        <ele>112.8</ele>
        <time>2012-07-21T19:10:54Z</time>
      </trkpt>
      <trkpt lat="59.7237814" lon="15.1519048">
        <ele>113</ele>
        <time>2012-07-21T19:11:01Z</time>
      </trkpt>
      <trkpt lat="59.7239424" lon="15.1519695">
        <ele>112.2</ele>
        <time>2012-07-21T19:11:04Z</time>
      </trkpt>
      <trkpt lat="59.7241066" lon="15.1520291">
        <ele>114</ele>
        <time>2012-07-21T19:11:07Z</time>
      </trkpt>
      <trkpt lat="59.7245024" lon="15.1521912">
        <ele>118.4</ele>
        <time>2012-07-21T19:11:14Z</time>
      </trkpt>
      <trkpt lat="59.7248742" lon="15.1523503">
        <ele>121.8</ele>
        <time>2012-07-21T19:11:21Z</time>
      </trkpt>
      <trkpt lat="59.7250334" lon="15.1524213">
        <ele>122.6</ele>
        <time>2012-07-21T19:11:24Z</time>
      </trkpt>
      <trkpt lat="59.7252258" lon="15.1525151">
        <ele>124.4</ele>
        <time>2012-07-21T19:11:28Z</time>
      </trkpt>
      <trkpt lat="59.7255361" lon="15.1526165">
        <ele>128.4</ele>
        <time>2012-07-21T19:11:35Z</time>
      </trkpt>
      <trkpt lat="59.7258673" lon="15.1527808">
        <ele>125</ele>
        <time>2012-07-21T19:11:42Z</time>
      </trkpt>
      <trkpt lat="59.7259799" lon="15.1528197">
        <ele>126.2</ele>
        <time>2012-07-21T19:11:44Z</time>
      </trkpt>
      <trkpt lat="59.7262501" lon="15.1529786">
        <ele>125.8</ele>
        <time>2012-07-21T19:11:48Z</time>
      </trkpt>
      <trkpt lat="59.7264441" lon="15.1531382">
        <ele>125.8</ele>
        <time>2012-07-21T19:11:51Z</time>
      </trkpt>
      <trkpt lat="59.7266295" lon="15.1533187">
        <ele>127.2</ele>
        <time>2012-07-21T19:11:54Z</time>
      </trkpt>
      <trkpt lat="59.7269719" lon="15.1538131">
        <ele>129.6</ele>
        <time>2012-07-21T19:12:00Z</time>
      </trkpt>
      <trkpt lat="59.7271752" lon="15.1542835">
        <ele>135.2</ele>
        <time>2012-07-21T19:12:06Z</time>
      </trkpt>
      <trkpt lat="59.7272018" lon="15.1543611">
        <ele>136.4</ele>
        <time>2012-07-21T19:12:07Z</time>
      </trkpt>
      <trkpt lat="59.727427" lon="15.155023">
        <ele>141.6</ele>
        <time>2012-07-21T19:12:14Z</time>
      </trkpt>
      <trkpt lat="59.7274453" lon="15.1551046">
        <ele>142.4</ele>
        <time>2012-07-21T19:12:15Z</time>
      </trkpt>
      <trkpt lat="59.7276111" lon="15.1556627">
        <ele>146.4</ele>
        <time>2012-07-21T19:12:22Z</time>
      </trkpt>
      <trkpt lat="59.7277731" lon="15.156193">
        <ele>151.8</ele>
        <time>2012-07-21T19:12:29Z</time>
      </trkpt>
      <trkpt lat="59.7278105" lon="15.1562934">
        <ele>151.2</ele>
        <time>2012-07-21T19:12:30Z</time>
      </trkpt>
      <trkpt lat="59.7280622" lon="15.1570016">
        <ele>152.6</ele>
        <time>2012-07-21T19:12:37Z</time>
      </trkpt>
      <trkpt lat="59.7282679" lon="15.157653">
        <ele>154</ele>
        <time>2012-07-21T19:12:43Z</time>
      </trkpt>
      <trkpt lat="59.7284198" lon="15.1583331">
        <ele>150.6</ele>
        <time>2012-07-21T19:12:49Z</time>
      </trkpt>
      <trkpt lat="59.7285926" lon="15.1590564">
        <ele>143.4</ele>
        <time>2012-07-21T19:12:55Z</time>
      </trkpt>
      <trkpt lat="59.7287853" lon="15.1597511">
        <ele>140.8</ele>
        <time>2012-07-21T19:13:01Z</time>
      </trkpt>
      <trkpt lat="59.7289743" lon="15.1603986">
        <ele>139.4</ele>
        <time>2012-07-21T19:13:06Z</time>
      </trkpt>
      <trkpt lat="59.7291575" lon="15.1610218">
        <ele>138.6</ele>
        <time>2012-07-21T19:13:11Z</time>
      </trkpt>
      <trkpt lat="59.7293524" lon="15.1617169">
        <ele>137.6</ele>
        <time>2012-07-21T19:13:17Z</time>
      </trkpt>
      <trkpt lat="59.729511" lon="15.1624654">
        <ele>137.4</ele>
        <time>2012-07-21T19:13:23Z</time>
      </trkpt>
      <trkpt lat="59.7296292" lon="15.1632585">
        <ele>137.8</ele>
        <time>2012-07-21T19:13:29Z</time>
      </trkpt>
      <trkpt lat="59.729737" lon="15.1640734">
        <ele>138</ele>
        <time>2012-07-21T19:13:35Z</time>
      </trkpt>
      <trkpt lat="59.7298392" lon="15.1648623">
        <ele>138.2</ele>
        <time>2012-07-21T19:13:41Z</time>
      </trkpt>
      <trkpt lat="59.7299366" lon="15.1656621">
        <ele>139.4</ele>
        <time>2012-07-21T19:13:47Z</time>
      </trkpt>
      <trkpt lat="59.7300407" lon="15.1664251">
        <ele>140.6</ele>
        <time>2012-07-21T19:13:53Z</time>
      </trkpt>
      <trkpt lat="59.7301575" lon="15.1670339">
        <ele>142.2</ele>
        <time>2012-07-21T19:13:59Z</time>
      </trkpt>
      <trkpt lat="59.7301798" lon="15.1671269">
        <ele>142.4</ele>
        <time>2012-07-21T19:14:00Z</time>
      </trkpt>
      <trkpt lat="59.7302271" lon="15.1673083">
        <ele>143.2</ele>
        <time>2012-07-21T19:14:02Z</time>
      </trkpt>
      <trkpt lat="59.7303555" lon="15.1676657">
        <ele>144.2</ele>
        <time>2012-07-21T19:14:06Z</time>
      </trkpt>
      <trkpt lat="59.7306293" lon="15.1682206">
        <ele>144.8</ele>
        <time>2012-07-21T19:14:12Z</time>
      </trkpt>
      <trkpt lat="59.7309569" lon="15.1687565">
        <ele>146.8</ele>
        <time>2012-07-21T19:14:19Z</time>
      </trkpt>
      <trkpt lat="59.731265" lon="15.1692948">
        <ele>146.8</ele>
        <time>2012-07-21T19:14:26Z</time>
      </trkpt>
      <trkpt lat="59.7315708" lon="15.1697952">
        <ele>148</ele>
        <time>2012-07-21T19:14:33Z</time>
      </trkpt>
      <trkpt lat="59.7318604" lon="15.1703001">
        <ele>150.2</ele>
        <time>2012-07-21T19:14:40Z</time>
      </trkpt>
      <trkpt lat="59.7321577" lon="15.1708281">
        <ele>150.8</ele>
        <time>2012-07-21T19:14:48Z</time>
      </trkpt>
      <trkpt lat="59.7324446" lon="15.1712917">
        <ele>150.4</ele>
        <time>2012-07-21T19:14:55Z</time>
      </trkpt>
      <trkpt lat="59.7327315" lon="15.171787">
        <ele>152.6</ele>
        <time>2012-07-21T19:15:03Z</time>
      </trkpt>
      <trkpt lat="59.7329812" lon="15.1722595">
        <ele>157</ele>
        <time>2012-07-21T19:15:10Z</time>
      </trkpt>
      <trkpt lat="59.7331663" lon="15.1727151">
        <ele>161</ele>
        <time>2012-07-21T19:15:16Z</time>
      </trkpt>
      <trkpt lat="59.7331873" lon="15.1727951">
        <ele>162.4</ele>
        <time>2012-07-21T19:15:17Z</time>
      </trkpt>
      <trkpt lat="59.733335" lon="15.1733899">
        <ele>164.8</ele>
        <time>2012-07-21T19:15:23Z</time>
      </trkpt>
      <trkpt lat="59.7333595" lon="15.173496">
        <ele>165</ele>
        <time>2012-07-21T19:15:24Z</time>
      </trkpt>
      <trkpt lat="59.7334921" lon="15.1742008">
        <ele>167.2</ele>
        <time>2012-07-21T19:15:31Z</time>
      </trkpt>
      <trkpt lat="59.7335512" lon="15.1745637">
        <ele>167.4</ele>
        <time>2012-07-21T19:15:35Z</time>
      </trkpt>
      <trkpt lat="59.7336094" lon="15.1749144">
        <ele>166.6</ele>
        <time>2012-07-21T19:15:39Z</time>
      </trkpt>
      <trkpt lat="59.7336599" lon="15.1752067">
        <ele>165.2</ele>
        <time>2012-07-21T19:15:42Z</time>
      </trkpt>
      <trkpt lat="59.7337597" lon="15.1756307">
        <ele>167.6</ele>
        <time>2012-07-21T19:15:46Z</time>
      </trkpt>
      <trkpt lat="59.7338943" lon="15.1763392">
        <ele>170.8</ele>
        <time>2012-07-21T19:15:53Z</time>
      </trkpt>
      <trkpt lat="59.7339587" lon="15.1767341">
        <ele>171.8</ele>
        <time>2012-07-21T19:15:57Z</time>
      </trkpt>
      <trkpt lat="59.7340179" lon="15.1770266">
        <ele>172.6</ele>
        <time>2012-07-21T19:16:00Z</time>
      </trkpt>
      <trkpt lat="59.7341596" lon="15.1777004">
        <ele>173.2</ele>
        <time>2012-07-21T19:16:07Z</time>
      </trkpt>
      <trkpt lat="59.7342919" lon="15.1784125">
        <ele>174</ele>
        <time>2012-07-21T19:16:14Z</time>
      </trkpt>
      <trkpt lat="59.7344332" lon="15.1791302">
        <ele>172.6</ele>
        <time>2012-07-21T19:16:21Z</time>
      </trkpt>
      <trkpt lat="59.7345788" lon="15.1798165">
        <ele>176.6</ele>
        <time>2012-07-21T19:16:28Z</time>
      </trkpt>
      <trkpt lat="59.7346533" lon="15.1801679">
        <ele>181.2</ele>
        <time>2012-07-21T19:16:32Z</time>
      </trkpt>
      <trkpt lat="59.7346871" lon="15.180346">
        <ele>183.2</ele>
        <time>2012-07-21T19:16:34Z</time>
      </trkpt>
      <trkpt lat="59.7347265" lon="15.1805336">
        <ele>184</ele>
        <time>2012-07-21T19:16:36Z</time>
      </trkpt>
      <trkpt lat="59.7348073" lon="15.1808135">
        <ele>186</ele>
        <time>2012-07-21T19:16:39Z</time>
      </trkpt>
      <trkpt lat="59.7349124" lon="15.1812201">
        <ele>185.8</ele>
        <time>2012-07-21T19:16:43Z</time>
      </trkpt>
      <trkpt lat="59.7349938" lon="15.1818576">
        <ele>182.6</ele>
        <time>2012-07-21T19:16:51Z</time>
      </trkpt>
      <trkpt lat="59.735001" lon="15.1819312">
        <ele>181.8</ele>
        <time>2012-07-21T19:16:52Z</time>
      </trkpt>
      <trkpt lat="59.7350061" lon="15.1819984">
        <ele>180.4</ele>
        <time>2012-07-21T19:16:53Z</time>
      </trkpt>
      <trkpt lat="59.7350585" lon="15.1823021">
        <ele>183.8</ele>
        <time>2012-07-21T19:16:57Z</time>
      </trkpt>
      <trkpt lat="59.735084" lon="15.1825654">
        <ele>185.4</ele>
        <time>2012-07-21T19:17:00Z</time>
      </trkpt>
      <trkpt lat="59.7351191" lon="15.1828119">
        <ele>186.2</ele>
        <time>2012-07-21T19:17:03Z</time>
      </trkpt>
      <trkpt lat="59.735199" lon="15.1832274">
        <ele>188.6</ele>
        <time>2012-07-21T19:17:08Z</time>
      </trkpt>
      <trkpt lat="59.7353771" lon="15.1839835">
        <ele>183.6</ele>
        <time>2012-07-21T19:17:16Z</time>
      </trkpt>
      <trkpt lat="59.7355346" lon="15.1847024">
        <ele>183</ele>
        <time>2012-07-21T19:17:23Z</time>
      </trkpt>
      <trkpt lat="59.7356823" lon="15.1854506">
        <ele>184.4</ele>
        <time>2012-07-21T19:17:30Z</time>
      </trkpt>
      <trkpt lat="59.7358299" lon="15.1861068">
        <ele>187</ele>
        <time>2012-07-21T19:17:36Z</time>
      </trkpt>
      <trkpt lat="59.7359951" lon="15.1868444">
        <ele>190.4</ele>
        <time>2012-07-21T19:17:43Z</time>
      </trkpt>
      <trkpt lat="59.7361691" lon="15.187515">
        <ele>191.8</ele>
        <time>2012-07-21T19:17:49Z</time>
      </trkpt>
      <trkpt lat="59.7363686" lon="15.1881794">
        <ele>192.8</ele>
        <time>2012-07-21T19:17:55Z</time>
      </trkpt>
      <trkpt lat="59.7365789" lon="15.1887686">
        <ele>193.4</ele>
        <time>2012-07-21T19:18:01Z</time>
      </trkpt>
      <trkpt lat="59.7367815" lon="15.1893034">
        <ele>192.4</ele>
        <time>2012-07-21T19:18:07Z</time>
      </trkpt>
      <trkpt lat="59.7370814" lon="15.1898892">
        <ele>192.4</ele>
        <time>2012-07-21T19:18:14Z</time>
      </trkpt>
      <trkpt lat="59.7373046" lon="15.1902943">
        <ele>192</ele>
        <time>2012-07-21T19:18:19Z</time>
      </trkpt>
      <trkpt lat="59.7373979" lon="15.1904541">
        <ele>192.8</ele>
        <time>2012-07-21T19:18:21Z</time>
      </trkpt>
      <trkpt lat="59.7376981" lon="15.1910431">
        <ele>193.4</ele>
        <time>2012-07-21T19:18:28Z</time>
      </trkpt>
      <trkpt lat="59.7377909" lon="15.1912772">
        <ele>194.8</ele>
        <time>2012-07-21T19:18:31Z</time>
      </trkpt>
      <trkpt lat="59.7380204" lon="15.191345">
        <ele>195</ele>
        <time>2012-07-21T19:18:36Z</time>
      </trkpt>
      <trkpt lat="59.7381448" lon="15.1912724">
        <ele>195.4</ele>
        <time>2012-07-21T19:18:38Z</time>
      </trkpt>
      <trkpt lat="59.738429" lon="15.1910912">
        <ele>194.8</ele>
        <time>2012-07-21T19:18:42Z</time>
      </trkpt>
      <trkpt lat="59.7388453" lon="15.1908735">
        <ele>193.4</ele>
        <time>2012-07-21T19:18:47Z</time>
      </trkpt>
      <trkpt lat="59.7392053" lon="15.1907607">
        <ele>193.2</ele>
        <time>2012-07-21T19:18:51Z</time>
      </trkpt>
      <trkpt lat="59.7396521" lon="15.1907166">
        <ele>194.2</ele>
        <time>2012-07-21T19:18:56Z</time>
      </trkpt>
      <trkpt lat="59.7400903" lon="15.1906473">
        <ele>193</ele>
        <time>2012-07-21T19:19:01Z</time>
      </trkpt>
      <trkpt lat="59.7404442" lon="15.1905202">
        <ele>192.2</ele>
        <time>2012-07-21T19:19:05Z</time>
      </trkpt>
      <trkpt lat="59.7408046" lon="15.1903335">
        <ele>190</ele>
        <time>2012-07-21T19:19:09Z</time>
      </trkpt>
      <trkpt lat="59.7411591" lon="15.1901099">
        <ele>188.6</ele>
        <time>2012-07-21T19:19:13Z</time>
      </trkpt>
      <trkpt lat="59.741504" lon="15.1899053">
        <ele>189</ele>
        <time>2012-07-21T19:19:17Z</time>
      </trkpt>
      <trkpt lat="59.7418766" lon="15.1896874">
        <ele>188</ele>
        <time>2012-07-21T19:19:21Z</time>
      </trkpt>
      <trkpt lat="59.7422727" lon="15.1894556">
        <ele>188.4</ele>
        <time>2012-07-21T19:19:25Z</time>
      </trkpt>
      <trkpt lat="59.7426617" lon="15.1892061">
        <ele>186.8</ele>
        <time>2012-07-21T19:19:29Z</time>
      </trkpt>
      <trkpt lat="59.7430649" lon="15.1888677">
        <ele>184.6</ele>
        <time>2012-07-21T19:19:33Z</time>
      </trkpt>
      <trkpt lat="59.7431598" lon="15.1887524">
        <ele>183.8</ele>
        <time>2012-07-21T19:19:34Z</time>
      </trkpt>
      <trkpt lat="59.74344" lon="15.188438">
        <ele>182.2</ele>
        <time>2012-07-21T19:19:37Z</time>
      </trkpt>
      <trkpt lat="59.7437423" lon="15.1878582">
        <ele>180.4</ele>
        <time>2012-07-21T19:19:41Z</time>
      </trkpt>
      <trkpt lat="59.7438819" lon="15.1875549">
        <ele>178.4</ele>
        <time>2012-07-21T19:19:43Z</time>
      </trkpt>
      <trkpt lat="59.7440211" lon="15.1872491">
        <ele>177.8</ele>
        <time>2012-07-21T19:19:45Z</time>
      </trkpt>
      <trkpt lat="59.7441422" lon="15.1864581">
        <ele>175.6</ele>
        <time>2012-07-21T19:19:49Z</time>
      </trkpt>
      <trkpt lat="59.7439992" lon="15.185832">
        <ele>172.8</ele>
        <time>2012-07-21T19:19:52Z</time>
      </trkpt>
      <trkpt lat="59.7439619" lon="15.1856284">
        <ele>172.4</ele>
        <time>2012-07-21T19:19:53Z</time>
      </trkpt>
      <trkpt lat="59.7439061" lon="15.1848269">
        <ele>171.2</ele>
        <time>2012-07-21T19:19:57Z</time>
      </trkpt>
      <trkpt lat="59.7439584" lon="15.1840398">
        <ele>171.8</ele>
        <time>2012-07-21T19:20:01Z</time>
      </trkpt>
      <trkpt lat="59.7441449" lon="15.1833312">
        <ele>169.4</ele>
        <time>2012-07-21T19:20:05Z</time>
      </trkpt>
      <trkpt lat="59.744249" lon="15.1829956">
        <ele>168.6</ele>
        <time>2012-07-21T19:20:07Z</time>
      </trkpt>
      <trkpt lat="59.7443076" lon="15.1826102">
        <ele>168.4</ele>
        <time>2012-07-21T19:20:09Z</time>
      </trkpt>
      <trkpt lat="59.7443207" lon="15.1822142">
        <ele>168</ele>
        <time>2012-07-21T19:20:11Z</time>
      </trkpt>
      <trkpt lat="59.7443504" lon="15.1818011">
        <ele>167.2</ele>
        <time>2012-07-21T19:20:13Z</time>
      </trkpt>
      <trkpt lat="59.7445367" lon="15.1809743">
        <ele>163.6</ele>
        <time>2012-07-21T19:20:17Z</time>
      </trkpt>
      <trkpt lat="59.74475" lon="15.1803834">
        <ele>156.6</ele>
        <time>2012-07-21T19:20:20Z</time>
      </trkpt>
      <trkpt lat="59.7448417" lon="15.1802461">
        <ele>155.4</ele>
        <time>2012-07-21T19:20:21Z</time>
      </trkpt>
      <trkpt lat="59.7450421" lon="15.1799623">
        <ele>152.2</ele>
        <time>2012-07-21T19:20:23Z</time>
      </trkpt>
      <trkpt lat="59.7453566" lon="15.1793413">
        <ele>147</ele>
        <time>2012-07-21T19:20:27Z</time>
      </trkpt>
      <trkpt lat="59.7456087" lon="15.1786292">
        <ele>150.4</ele>
        <time>2012-07-21T19:20:31Z</time>
      </trkpt>
      <trkpt lat="59.7458258" lon="15.1782041">
        <ele>153</ele>
        <time>2012-07-21T19:20:34Z</time>
      </trkpt>
      <trkpt lat="59.7459112" lon="15.1780949">
        <ele>152.6</ele>
        <time>2012-07-21T19:20:35Z</time>
      </trkpt>
      <trkpt lat="59.7462112" lon="15.1778654">
        <ele>152.2</ele>
        <time>2012-07-21T19:20:38Z</time>
      </trkpt>
      <trkpt lat="59.7463107" lon="15.1777917">
        <ele>151.8</ele>
        <time>2012-07-21T19:20:39Z</time>
      </trkpt>
      <trkpt lat="59.7467142" lon="15.1775354">
        <ele>150</ele>
        <time>2012-07-21T19:20:43Z</time>
      </trkpt>
      <trkpt lat="59.7471427" lon="15.1773635">
        <ele>149.6</ele>
        <time>2012-07-21T19:20:47Z</time>
      </trkpt>
      <trkpt lat="59.7476191" lon="15.1772401">
        <ele>150.4</ele>
        <time>2012-07-21T19:20:51Z</time>
      </trkpt>
      <trkpt lat="59.7480968" lon="15.1772054">
        <ele>153</ele>
        <time>2012-07-21T19:20:55Z</time>
      </trkpt>
      <trkpt lat="59.7485511" lon="15.1771008">
        <ele>152.6</ele>
        <time>2012-07-21T19:20:59Z</time>
      </trkpt>
      <trkpt lat="59.7489868" lon="15.1769122">
        <ele>150.8</ele>
        <time>2012-07-21T19:21:03Z</time>
      </trkpt>
      <trkpt lat="59.7491858" lon="15.1767794">
        <ele>150</ele>
        <time>2012-07-21T19:21:05Z</time>
      </trkpt>
      <trkpt lat="59.7493649" lon="15.1765818">
        <ele>148.2</ele>
        <time>2012-07-21T19:21:07Z</time>
      </trkpt>
      <trkpt lat="59.7497359" lon="15.1761916">
        <ele>144.8</ele>
        <time>2012-07-21T19:21:11Z</time>
      </trkpt>
      <trkpt lat="59.7501195" lon="15.175928">
        <ele>142.2</ele>
        <time>2012-07-21T19:21:15Z</time>
      </trkpt>
      <trkpt lat="59.7504717" lon="15.1755275">
        <ele>139.8</ele>
        <time>2012-07-21T19:21:19Z</time>
      </trkpt>
      <trkpt lat="59.7508076" lon="15.175009">
        <ele>135.2</ele>
        <time>2012-07-21T19:21:23Z</time>
      </trkpt>
      <trkpt lat="59.7510826" lon="15.1743093">
        <ele>130.2</ele>
        <time>2012-07-21T19:21:27Z</time>
      </trkpt>
      <trkpt lat="59.7513138" lon="15.1736658">
        <ele>125.4</ele>
        <time>2012-07-21T19:21:30Z</time>
      </trkpt>
      <trkpt lat="59.7515825" lon="15.1729686">
        <ele>121.4</ele>
        <time>2012-07-21T19:21:33Z</time>
      </trkpt>
      <trkpt lat="59.7518312" lon="15.1722565">
        <ele>118.2</ele>
        <time>2012-07-21T19:21:36Z</time>
      </trkpt>
      <trkpt lat="59.7519999" lon="15.1714949">
        <ele>115.4</ele>
        <time>2012-07-21T19:21:39Z</time>
      </trkpt>
      <trkpt lat="59.7520544" lon="15.1709666">
        <ele>114</ele>
        <time>2012-07-21T19:21:41Z</time>
      </trkpt>
      <trkpt lat="59.7520663" lon="15.1707064">
        <ele>113.8</ele>
        <time>2012-07-21T19:21:42Z</time>
      </trkpt>
      <trkpt lat="59.7521331" lon="15.1699634">
        <ele>112.6</ele>
        <time>2012-07-21T19:21:45Z</time>
      </trkpt>
      <trkpt lat="59.752254" lon="15.1692269">
        <ele>112</ele>
        <time>2012-07-21T19:21:48Z</time>
      </trkpt>
      <trkpt lat="59.7523933" lon="15.1684883">
        <ele>113.2</ele>
        <time>2012-07-21T19:21:51Z</time>
      </trkpt>
      <trkpt lat="59.7525445" lon="15.1677964">
        <ele>112.2</ele>
        <time>2012-07-21T19:21:54Z</time>
      </trkpt>
      <trkpt lat="59.7527512" lon="15.1671952">
        <ele>111</ele>
        <time>2012-07-21T19:21:57Z</time>
      </trkpt>
      <trkpt lat="59.7530718" lon="15.1665755">
        <ele>107.8</ele>
        <time>2012-07-21T19:22:00Z</time>
      </trkpt>
      <trkpt lat="59.7533956" lon="15.1660599">
        <ele>104.2</ele>
        <time>2012-07-21T19:22:03Z</time>
      </trkpt>
      <trkpt lat="59.7537193" lon="15.1655168">
        <ele>102</ele>
        <time>2012-07-21T19:22:06Z</time>
      </trkpt>
      <trkpt lat="59.7540343" lon="15.1650337">
        <ele>97.2</ele>
        <time>2012-07-21T19:22:09Z</time>
      </trkpt>
      <trkpt lat="59.7541463" lon="15.1649053">
        <ele>96.6</ele>
        <time>2012-07-21T19:22:10Z</time>
      </trkpt>
      <trkpt lat="59.7543942" lon="15.1647806">
        <ele>94.6</ele>
        <time>2012-07-21T19:22:12Z</time>
      </trkpt>
      <trkpt lat="59.7547704" lon="15.1648328">
        <ele>90.6</ele>
        <time>2012-07-21T19:22:15Z</time>
      </trkpt>
      <trkpt lat="59.7552561" lon="15.1650306">
        <ele>85.2</ele>
        <time>2012-07-21T19:22:19Z</time>
      </trkpt>
      <trkpt lat="59.7555588" lon="15.1650976">
        <ele>82.2</ele>
        <time>2012-07-21T19:22:22Z</time>
      </trkpt>
      <trkpt lat="59.7556432" lon="15.1651024">
        <ele>81.8</ele>
        <time>2012-07-21T19:22:23Z</time>
      </trkpt>
      <trkpt lat="59.7559179" lon="15.1651322">
        <ele>84.2</ele>
        <time>2012-07-21T19:22:27Z</time>
      </trkpt>
      <trkpt lat="59.7559773" lon="15.165028">
        <ele>87</ele>
        <time>2012-07-21T19:22:29Z</time>
      </trkpt>
      <trkpt lat="59.7559778" lon="15.1643464">
        <ele>91.2</ele>
        <time>2012-07-21T19:22:35Z</time>
      </trkpt>
      <trkpt lat="59.7559888" lon="15.1642003">
        <ele>92</ele>
        <time>2012-07-21T19:22:36Z</time>
      </trkpt>
      <trkpt lat="59.7560533" lon="15.1633822">
        <ele>95.6</ele>
        <time>2012-07-21T19:22:41Z</time>
      </trkpt>
      <trkpt lat="59.7560976" lon="15.1625141">
        <ele>93.6</ele>
        <time>2012-07-21T19:22:46Z</time>
      </trkpt>
      <trkpt lat="59.7561591" lon="15.1616791">
        <ele>92</ele>
        <time>2012-07-21T19:22:51Z</time>
      </trkpt>
      <trkpt lat="59.7562182" lon="15.160876">
        <ele>91.8</ele>
        <time>2012-07-21T19:22:56Z</time>
      </trkpt>
      <trkpt lat="59.7562544" lon="15.1600987">
        <ele>91</ele>
        <time>2012-07-21T19:23:01Z</time>
      </trkpt>
      <trkpt lat="59.7562488" lon="15.159307">
        <ele>90.4</ele>
        <time>2012-07-21T19:23:06Z</time>
      </trkpt>
      <trkpt lat="59.75621" lon="15.1585905">
        <ele>89.4</ele>
        <time>2012-07-21T19:23:10Z</time>
      </trkpt>
      <trkpt lat="59.756173" lon="15.1578282">
        <ele>88.2</ele>
        <time>2012-07-21T19:23:14Z</time>
      </trkpt>
      <trkpt lat="59.7561525" lon="15.1570672">
        <ele>86.8</ele>
        <time>2012-07-21T19:23:18Z</time>
      </trkpt>
      <trkpt lat="59.7561825" lon="15.1563465">
        <ele>85.8</ele>
        <time>2012-07-21T19:23:22Z</time>
      </trkpt>
      <trkpt lat="59.7562462" lon="15.1556556">
        <ele>86.2</ele>
        <time>2012-07-21T19:23:26Z</time>
      </trkpt>
      <trkpt lat="59.7563342" lon="15.1549802">
        <ele>86.6</ele>
        <time>2012-07-21T19:23:30Z</time>
      </trkpt>
      <trkpt lat="59.7564602" lon="15.1541851">
        <ele>87.6</ele>
        <time>2012-07-21T19:23:35Z</time>
      </trkpt>
      <trkpt lat="59.7565718" lon="15.1534942">
        <ele>89.6</ele>
        <time>2012-07-21T19:23:40Z</time>
      </trkpt>
      <trkpt lat="59.7566901" lon="15.1527802">
        <ele>92.8</ele>
        <time>2012-07-21T19:23:46Z</time>
      </trkpt>
      <trkpt lat="59.7568125" lon="15.1520694">
        <ele>95.6</ele>
        <time>2012-07-21T19:23:52Z</time>
      </trkpt>
      <trkpt lat="59.7569287" lon="15.1513806">
        <ele>96.8</ele>
        <time>2012-07-21T19:23:58Z</time>
      </trkpt>
      <trkpt lat="59.7570378" lon="15.1508155">
        <ele>98.8</ele>
        <time>2012-07-21T19:24:03Z</time>
      </trkpt>
      <trkpt lat="59.7570748" lon="15.1507268">
        <ele>98.6</ele>
        <time>2012-07-21T19:24:04Z</time>
      </trkpt>
      <trkpt lat="59.7572727" lon="15.1507357">
        <ele>98.6</ele>
        <time>2012-07-21T19:24:08Z</time>
      </trkpt>
      <trkpt lat="59.7573237" lon="15.1507735">
        <ele>98.8</ele>
        <time>2012-07-21T19:24:09Z</time>
      </trkpt>
      <trkpt lat="59.7574267" lon="15.1508124">
        <ele>97.8</ele>
        <time>2012-07-21T19:24:11Z</time>
      </trkpt>
      <trkpt lat="59.757533" lon="15.1508149">
        <ele>96.2</ele>
        <time>2012-07-21T19:24:13Z</time>
      </trkpt>
      <trkpt lat="59.757808" lon="15.1507792">
        <ele>95.8</ele>
        <time>2012-07-21T19:24:18Z</time>
      </trkpt>
      <trkpt lat="59.7582101" lon="15.1507165">
        <ele>95.8</ele>
        <time>2012-07-21T19:24:25Z</time>
      </trkpt>
      <trkpt lat="59.7586224" lon="15.1506533">
        <ele>96.6</ele>
        <time>2012-07-21T19:24:32Z</time>
      </trkpt>
      <trkpt lat="59.7589886" lon="15.1506434">
        <ele>98.4</ele>
        <time>2012-07-21T19:24:39Z</time>
      </trkpt>
      <trkpt lat="59.7592696" lon="15.150718">
        <ele>100.2</ele>
        <time>2012-07-21T19:24:44Z</time>
      </trkpt>
      <trkpt lat="59.7593879" lon="15.150774">
        <ele>100.6</ele>
        <time>2012-07-21T19:24:46Z</time>
      </trkpt>
      <trkpt lat="59.7596244" lon="15.1509141">
        <ele>101</ele>
        <time>2012-07-21T19:24:50Z</time>
      </trkpt>
      <trkpt lat="59.7597403" lon="15.1510148">
        <ele>101.4</ele>
        <time>2012-07-21T19:24:52Z</time>
      </trkpt>
      <trkpt lat="59.760085" lon="15.1513174">
        <ele>103</ele>
        <time>2012-07-21T19:24:58Z</time>
      </trkpt>
      <trkpt lat="59.7604405" lon="15.1516337">
        <ele>102.2</ele>
        <time>2012-07-21T19:25:04Z</time>
      </trkpt>
      <trkpt lat="59.7607809" lon="15.1519493">
        <ele>103.2</ele>
        <time>2012-07-21T19:25:10Z</time>
      </trkpt>
      <trkpt lat="59.7611225" lon="15.1522839">
        <ele>105.2</ele>
        <time>2012-07-21T19:25:16Z</time>
      </trkpt>
      <trkpt lat="59.7614728" lon="15.1525619">
        <ele>107.2</ele>
        <time>2012-07-21T19:25:22Z</time>
      </trkpt>
      <trkpt lat="59.7618332" lon="15.1528625">
        <ele>105.6</ele>
        <time>2012-07-21T19:25:28Z</time>
      </trkpt>
      <trkpt lat="59.7621949" lon="15.1532985">
        <ele>105.6</ele>
        <time>2012-07-21T19:25:34Z</time>
      </trkpt>
      <trkpt lat="59.7625548" lon="15.153753">
        <ele>106</ele>
        <time>2012-07-21T19:25:40Z</time>
      </trkpt>
      <trkpt lat="59.7627995" lon="15.1540337">
        <ele>106.8</ele>
        <time>2012-07-21T19:25:44Z</time>
      </trkpt>
      <trkpt lat="59.7629274" lon="15.1541305">
        <ele>107.2</ele>
        <time>2012-07-21T19:25:46Z</time>
      </trkpt>
      <trkpt lat="59.7633303" lon="15.1542892">
        <ele>106.2</ele>
        <time>2012-07-21T19:25:52Z</time>
      </trkpt>
      <trkpt lat="59.7637262" lon="15.1542824">
        <ele>106.6</ele>
        <time>2012-07-21T19:25:58Z</time>
      </trkpt>
      <trkpt lat="59.7641234" lon="15.1542124">
        <ele>107.8</ele>
        <time>2012-07-21T19:26:04Z</time>
      </trkpt>
      <trkpt lat="59.7645176" lon="15.154096">
        <ele>109</ele>
        <time>2012-07-21T19:26:10Z</time>
      </trkpt>
      <trkpt lat="59.7648875" lon="15.1539639">
        <ele>110.2</ele>
        <time>2012-07-21T19:26:16Z</time>
      </trkpt>
      <trkpt lat="59.7652528" lon="15.1538151">
        <ele>109.4</ele>
        <time>2012-07-21T19:26:22Z</time>
      </trkpt>
      <trkpt lat="59.7656406" lon="15.153651">
        <ele>110.2</ele>
        <time>2012-07-21T19:26:28Z</time>
      </trkpt>
      <trkpt lat="59.766032" lon="15.153417">
        <ele>110.8</ele>
        <time>2012-07-21T19:26:34Z</time>
      </trkpt>
      <trkpt lat="59.766413" lon="15.1532004">
        <ele>111.6</ele>
        <time>2012-07-21T19:26:40Z</time>
      </trkpt>
      <trkpt lat="59.7665612" lon="15.1530983">
        <ele>111.8</ele>
        <time>2012-07-21T19:26:43Z</time>
      </trkpt>
      <trkpt lat="59.766667" lon="15.153058">
        <ele>112.8</ele>
        <time>2012-07-21T19:26:45Z</time>
      </trkpt>
      <trkpt lat="59.766722" lon="15.1530408">
        <ele>113.4</ele>
        <time>2012-07-21T19:26:46Z</time>
      </trkpt>
      <trkpt lat="59.767086" lon="15.1528516">
        <ele>113.6</ele>
        <time>2012-07-21T19:26:52Z</time>
      </trkpt>
      <trkpt lat="59.7672224" lon="15.1527713">
        <ele>112.6</ele>
        <time>2012-07-21T19:26:54Z</time>
      </trkpt>
      <trkpt lat="59.767479" lon="15.1526139">
        <ele>110</ele>
        <time>2012-07-21T19:26:58Z</time>
      </trkpt>
      <trkpt lat="59.7675438" lon="15.1525799">
        <ele>109.4</ele>
        <time>2012-07-21T19:26:59Z</time>
      </trkpt>
      <trkpt lat="59.7678739" lon="15.1524768">
        <ele>108.2</ele>
        <time>2012-07-21T19:27:04Z</time>
      </trkpt>
      <trkpt lat="59.7680046" lon="15.1524389">
        <ele>108.6</ele>
        <time>2012-07-21T19:27:06Z</time>
      </trkpt>
      <trkpt lat="59.7682718" lon="15.1523874">
        <ele>109.6</ele>
        <time>2012-07-21T19:27:10Z</time>
      </trkpt>
      <trkpt lat="59.7686847" lon="15.1523035">
        <ele>112</ele>
        <time>2012-07-21T19:27:16Z</time>
      </trkpt>
      <trkpt lat="59.7690814" lon="15.1522317">
        <ele>113</ele>
        <time>2012-07-21T19:27:22Z</time>
      </trkpt>
      <trkpt lat="59.7694922" lon="15.152157">
        <ele>113.4</ele>
        <time>2012-07-21T19:27:28Z</time>
      </trkpt>
      <trkpt lat="59.7698974" lon="15.1520783">
        <ele>114.8</ele>
        <time>2012-07-21T19:27:34Z</time>
      </trkpt>
      <trkpt lat="59.7702814" lon="15.1519809">
        <ele>115</ele>
        <time>2012-07-21T19:27:40Z</time>
      </trkpt>
      <trkpt lat="59.770635" lon="15.1519346">
        <ele>115.6</ele>
        <time>2012-07-21T19:27:46Z</time>
      </trkpt>
      <trkpt lat="59.7707566" lon="15.1519056">
        <ele>115.6</ele>
        <time>2012-07-21T19:27:48Z</time>
      </trkpt>
      <trkpt lat="59.7710001" lon="15.1518638">
        <ele>117.2</ele>
        <time>2012-07-21T19:27:52Z</time>
      </trkpt>
      <trkpt lat="59.7713685" lon="15.1518338">
        <ele>118.4</ele>
        <time>2012-07-21T19:27:58Z</time>
      </trkpt>
      <trkpt lat="59.7717388" lon="15.1517997">
        <ele>119.6</ele>
        <time>2012-07-21T19:28:04Z</time>
      </trkpt>
      <trkpt lat="59.7721505" lon="15.151774">
        <ele>120.2</ele>
        <time>2012-07-21T19:28:10Z</time>
      </trkpt>
      <trkpt lat="59.7725672" lon="15.1517824">
        <ele>119</ele>
        <time>2012-07-21T19:28:16Z</time>
      </trkpt>
      <trkpt lat="59.7729846" lon="15.1517892">
        <ele>118.6</ele>
        <time>2012-07-21T19:28:22Z</time>
      </trkpt>
      <trkpt lat="59.773372" lon="15.1517994">
        <ele>117.4</ele>
        <time>2012-07-21T19:28:28Z</time>
      </trkpt>
      <trkpt lat="59.7737373" lon="15.1517994">
        <ele>118.8</ele>
        <time>2012-07-21T19:28:34Z</time>
      </trkpt>
      <trkpt lat="59.7741025" lon="15.1517982">
        <ele>121.4</ele>
        <time>2012-07-21T19:28:40Z</time>
      </trkpt>
      <trkpt lat="59.7744602" lon="15.1518043">
        <ele>121.6</ele>
        <time>2012-07-21T19:28:46Z</time>
      </trkpt>
      <trkpt lat="59.7748199" lon="15.1518052">
        <ele>122.8</ele>
        <time>2012-07-21T19:28:52Z</time>
      </trkpt>
      <trkpt lat="59.7752007" lon="15.15178">
        <ele>124.4</ele>
        <time>2012-07-21T19:28:58Z</time>
      </trkpt>
      <trkpt lat="59.775641" lon="15.1517194">
        <ele>122.4</ele>
        <time>2012-07-21T19:29:04Z</time>
      </trkpt>
      <trkpt lat="59.7760241" lon="15.1515847">
        <ele>118.6</ele>
        <time>2012-07-21T19:29:09Z</time>
      </trkpt>
      <trkpt lat="59.7764356" lon="15.1514097">
        <ele>114.2</ele>
        <time>2012-07-21T19:29:14Z</time>
      </trkpt>
      <trkpt lat="59.7768656" lon="15.1512282">
        <ele>109.6</ele>
        <time>2012-07-21T19:29:19Z</time>
      </trkpt>
      <trkpt lat="59.7771225" lon="15.1510723">
        <ele>107</ele>
        <time>2012-07-21T19:29:22Z</time>
      </trkpt>
      <trkpt lat="59.7772007" lon="15.1509849">
        <ele>106.2</ele>
        <time>2012-07-21T19:29:23Z</time>
      </trkpt>
      <trkpt lat="59.7773883" lon="15.1506396">
        <ele>106.2</ele>
        <time>2012-07-21T19:29:26Z</time>
      </trkpt>
      <trkpt lat="59.7774776" lon="15.1504155">
        <ele>107</ele>
        <time>2012-07-21T19:29:28Z</time>
      </trkpt>
      <trkpt lat="59.7777912" lon="15.1503217">
        <ele>107.4</ele>
        <time>2012-07-21T19:29:33Z</time>
      </trkpt>
      <trkpt lat="59.7778726" lon="15.1503507">
        <ele>107.2</ele>
        <time>2012-07-21T19:29:34Z</time>
      </trkpt>
      <trkpt lat="59.7782337" lon="15.1504501">
        <ele>107.2</ele>
        <time>2012-07-21T19:29:38Z</time>
      </trkpt>
      <trkpt lat="59.7786085" lon="15.1505486">
        <ele>106.2</ele>
        <time>2012-07-21T19:29:42Z</time>
      </trkpt>
      <trkpt lat="59.778977" lon="15.1506258">
        <ele>105.2</ele>
        <time>2012-07-21T19:29:46Z</time>
      </trkpt>
      <trkpt lat="59.7793415" lon="15.1507041">
        <ele>104.8</ele>
        <time>2012-07-21T19:29:50Z</time>
      </trkpt>
      <trkpt lat="59.7797755" lon="15.1508002">
        <ele>104.4</ele>
        <time>2012-07-21T19:29:55Z</time>
      </trkpt>
      <trkpt lat="59.7801855" lon="15.1508874">
        <ele>104.6</ele>
        <time>2012-07-21T19:30:00Z</time>
      </trkpt>
      <trkpt lat="59.780579" lon="15.1509662">
        <ele>105</ele>
        <time>2012-07-21T19:30:05Z</time>
      </trkpt>
      <trkpt lat="59.7809397" lon="15.1510541">
        <ele>106.2</ele>
        <time>2012-07-21T19:30:10Z</time>
      </trkpt>
      <trkpt lat="59.7813095" lon="15.1511341">
        <ele>107</ele>
        <time>2012-07-21T19:30:15Z</time>
      </trkpt>
      <trkpt lat="59.7816875" lon="15.151217">
        <ele>107.6</ele>
        <time>2012-07-21T19:30:20Z</time>
      </trkpt>
      <trkpt lat="59.7820605" lon="15.151304">
        <ele>108.8</ele>
        <time>2012-07-21T19:30:25Z</time>
      </trkpt>
      <trkpt lat="59.7824801" lon="15.1513796">
        <ele>110.6</ele>
        <time>2012-07-21T19:30:31Z</time>
      </trkpt>
      <trkpt lat="59.7828713" lon="15.151482">
        <ele>112.8</ele>
        <time>2012-07-21T19:30:37Z</time>
      </trkpt>
      <trkpt lat="59.7832614" lon="15.1515427">
        <ele>113.4</ele>
        <time>2012-07-21T19:30:43Z</time>
      </trkpt>
      <trkpt lat="59.7836173" lon="15.15161">
        <ele>112.6</ele>
        <time>2012-07-21T19:30:49Z</time>
      </trkpt>
      <trkpt lat="59.7839927" lon="15.1517065">
        <ele>113.4</ele>
        <time>2012-07-21T19:30:55Z</time>
      </trkpt>
      <trkpt lat="59.7843543" lon="15.1518033">
        <ele>115.6</ele>
        <time>2012-07-21T19:31:01Z</time>
      </trkpt>
      <trkpt lat="59.7846989" lon="15.1519441">
        <ele>117.2</ele>
        <time>2012-07-21T19:31:07Z</time>
      </trkpt>
      <trkpt lat="59.7850839" lon="15.1521022">
        <ele>120.4</ele>
        <time>2012-07-21T19:31:14Z</time>
      </trkpt>
      <trkpt lat="59.7854318" lon="15.1522643">
        <ele>124.2</ele>
        <time>2012-07-21T19:31:20Z</time>
      </trkpt>
      <trkpt lat="59.7854873" lon="15.1522897">
        <ele>124.6</ele>
        <time>2012-07-21T19:31:21Z</time>
      </trkpt>
      <trkpt lat="59.7857871" lon="15.152429">
        <ele>127.2</ele>
        <time>2012-07-21T19:31:26Z</time>
      </trkpt>
      <trkpt lat="59.786146" lon="15.1525699">
        <ele>128</ele>
        <time>2012-07-21T19:31:32Z</time>
      </trkpt>
      <trkpt lat="59.7865336" lon="15.152698">
        <ele>126.8</ele>
        <time>2012-07-21T19:31:38Z</time>
      </trkpt>
      <trkpt lat="59.7869386" lon="15.1528145">
        <ele>123.6</ele>
        <time>2012-07-21T19:31:44Z</time>
      </trkpt>
      <trkpt lat="59.7873693" lon="15.1528916">
        <ele>120</ele>
        <time>2012-07-21T19:31:50Z</time>
      </trkpt>
      <trkpt lat="59.7877572" lon="15.1529166">
        <ele>118.2</ele>
        <time>2012-07-21T19:31:55Z</time>
      </trkpt>
      <trkpt lat="59.7881902" lon="15.1529284">
        <ele>116.6</ele>
        <time>2012-07-21T19:32:00Z</time>
      </trkpt>
      <trkpt lat="59.7885568" lon="15.1529356">
        <ele>115.2</ele>
        <time>2012-07-21T19:32:04Z</time>
      </trkpt>
      <trkpt lat="59.7889506" lon="15.1529407">
        <ele>113.8</ele>
        <time>2012-07-21T19:32:08Z</time>
      </trkpt>
      <trkpt lat="59.7893535" lon="15.1529501">
        <ele>111.6</ele>
        <time>2012-07-21T19:32:12Z</time>
      </trkpt>
      <trkpt lat="59.7897644" lon="15.1529668">
        <ele>109.8</ele>
        <time>2012-07-21T19:32:16Z</time>
      </trkpt>
      <trkpt lat="59.7902033" lon="15.1529755">
        <ele>107.8</ele>
        <time>2012-07-21T19:32:20Z</time>
      </trkpt>
      <trkpt lat="59.7906684" lon="15.1529832">
        <ele>107</ele>
        <time>2012-07-21T19:32:24Z</time>
      </trkpt>
      <trkpt lat="59.7911238" lon="15.1530009">
        <ele>105.4</ele>
        <time>2012-07-21T19:32:28Z</time>
      </trkpt>
      <trkpt lat="59.7915672" lon="15.1530159">
        <ele>104.8</ele>
        <time>2012-07-21T19:32:32Z</time>
      </trkpt>
      <trkpt lat="59.7919915" lon="15.1530326">
        <ele>104.6</ele>
        <time>2012-07-21T19:32:36Z</time>
      </trkpt>
      <trkpt lat="59.7923951" lon="15.1530501">
        <ele>103.8</ele>
        <time>2012-07-21T19:32:40Z</time>
      </trkpt>
      <trkpt lat="59.79277" lon="15.1530583">
        <ele>104</ele>
        <time>2012-07-21T19:32:44Z</time>
      </trkpt>
      <trkpt lat="59.793131" lon="15.1530748">
        <ele>103.6</ele>
        <time>2012-07-21T19:32:48Z</time>
      </trkpt>
      <trkpt lat="59.7935601" lon="15.1530941">
        <ele>104</ele>
        <time>2012-07-21T19:32:53Z</time>
      </trkpt>
      <trkpt lat="59.7939925" lon="15.1531071">
        <ele>104.2</ele>
        <time>2012-07-21T19:32:58Z</time>
      </trkpt>
      <trkpt lat="59.7943969" lon="15.1530991">
        <ele>104.4</ele>
        <time>2012-07-21T19:33:03Z</time>
      </trkpt>
      <trkpt lat="59.7945502" lon="15.1531211">
        <ele>104.4</ele>
        <time>2012-07-21T19:33:05Z</time>
      </trkpt>
      <trkpt lat="59.7947763" lon="15.1531251">
        <ele>104.4</ele>
        <time>2012-07-21T19:33:08Z</time>
      </trkpt>
      <trkpt lat="59.7951362" lon="15.1531402">
        <ele>104.4</ele>
        <time>2012-07-21T19:33:13Z</time>
      </trkpt>
      <trkpt lat="59.7955585" lon="15.1531465">
        <ele>104.4</ele>
        <time>2012-07-21T19:33:19Z</time>
      </trkpt>
      <trkpt lat="59.7959859" lon="15.1531593">
        <ele>104.2</ele>
        <time>2012-07-21T19:33:25Z</time>
      </trkpt>
      <trkpt lat="59.7963458" lon="15.1531668">
        <ele>104.2</ele>
        <time>2012-07-21T19:33:30Z</time>
      </trkpt>
      <trkpt lat="59.7967207" lon="15.1531849">
        <ele>104.6</ele>
        <time>2012-07-21T19:33:35Z</time>
      </trkpt>
      <trkpt lat="59.7970918" lon="15.1531872">
        <ele>104.8</ele>
        <time>2012-07-21T19:33:40Z</time>
      </trkpt>
      <trkpt lat="59.7974539" lon="15.1531993">
        <ele>104.8</ele>
        <time>2012-07-21T19:33:45Z</time>
      </trkpt>
      <trkpt lat="59.7978838" lon="15.1532117">
        <ele>104.8</ele>
        <time>2012-07-21T19:33:51Z</time>
      </trkpt>
      <trkpt lat="59.7982605" lon="15.1532069">
        <ele>105</ele>
        <time>2012-07-21T19:33:56Z</time>
      </trkpt>
      <trkpt lat="59.7986765" lon="15.1531734">
        <ele>105.2</ele>
        <time>2012-07-21T19:34:02Z</time>
      </trkpt>
      <trkpt lat="59.7987479" lon="15.1531496">
        <ele>105</ele>
        <time>2012-07-21T19:34:03Z</time>
      </trkpt>
      <trkpt lat="59.799038" lon="15.1529273">
        <ele>104.8</ele>
        <time>2012-07-21T19:34:07Z</time>
      </trkpt>
      <trkpt lat="59.7994024" lon="15.1528154">
        <ele>105</ele>
        <time>2012-07-21T19:34:12Z</time>
      </trkpt>
      <trkpt lat="59.7996718" lon="15.1526977">
        <ele>105.2</ele>
        <time>2012-07-21T19:34:16Z</time>
      </trkpt>
      <trkpt lat="59.7997554" lon="15.1525072">
        <ele>105.4</ele>
        <time>2012-07-21T19:34:18Z</time>
      </trkpt>
      <trkpt lat="59.7997653" lon="15.1519731">
        <ele>106.6</ele>
        <time>2012-07-21T19:34:22Z</time>
      </trkpt>
      <trkpt lat="59.7997434" lon="15.1516937">
        <ele>107</ele>
        <time>2012-07-21T19:34:24Z</time>
      </trkpt>
      <trkpt lat="59.7997177" lon="15.1512617">
        <ele>107.2</ele>
        <time>2012-07-21T19:34:27Z</time>
      </trkpt>
      <trkpt lat="59.7997289" lon="15.1509651">
        <ele>107.6</ele>
        <time>2012-07-21T19:34:29Z</time>
      </trkpt>
      <trkpt lat="59.7997951" lon="15.1501928">
        <ele>107.4</ele>
        <time>2012-07-21T19:34:34Z</time>
      </trkpt>
      <trkpt lat="59.7998645" lon="15.1493933">
        <ele>107.4</ele>
        <time>2012-07-21T19:34:39Z</time>
      </trkpt>
      <trkpt lat="59.7999186" lon="15.1485971">
        <ele>106.8</ele>
        <time>2012-07-21T19:34:44Z</time>
      </trkpt>
      <trkpt lat="59.7999444" lon="15.1477815">
        <ele>106.6</ele>
        <time>2012-07-21T19:34:49Z</time>
      </trkpt>
      <trkpt lat="59.7999196" lon="15.1469717">
        <ele>106</ele>
        <time>2012-07-21T19:34:54Z</time>
      </trkpt>
      <trkpt lat="59.7998781" lon="15.1461822">
        <ele>106.6</ele>
        <time>2012-07-21T19:34:59Z</time>
      </trkpt>
      <trkpt lat="59.7998332" lon="15.1453922">
        <ele>106.4</ele>
        <time>2012-07-21T19:35:04Z</time>
      </trkpt>
      <trkpt lat="59.7997946" lon="15.144607">
        <ele>106.8</ele>
        <time>2012-07-21T19:35:09Z</time>
      </trkpt>
      <trkpt lat="59.7997487" lon="15.1437699">
        <ele>107.2</ele>
        <time>2012-07-21T19:35:14Z</time>
      </trkpt>
      <trkpt lat="59.7997098" lon="15.1429153">
        <ele>106.6</ele>
        <time>2012-07-21T19:35:19Z</time>
      </trkpt>
      <trkpt lat="59.7996767" lon="15.1420876">
        <ele>106</ele>
        <time>2012-07-21T19:35:24Z</time>
      </trkpt>
      <trkpt lat="59.7996316" lon="15.1412659">
        <ele>106.6</ele>
        <time>2012-07-21T19:35:29Z</time>
      </trkpt>
      <trkpt lat="59.7995791" lon="15.1404133">
        <ele>107.8</ele>
        <time>2012-07-21T19:35:34Z</time>
      </trkpt>
      <trkpt lat="59.7995207" lon="15.1396">
        <ele>108.6</ele>
        <time>2012-07-21T19:35:39Z</time>
      </trkpt>
      <trkpt lat="59.7995321" lon="15.1387593">
        <ele>106.8</ele>
        <time>2012-07-21T19:35:44Z</time>
      </trkpt>
      <trkpt lat="59.7996052" lon="15.1378947">
        <ele>107.2</ele>
        <time>2012-07-21T19:35:49Z</time>
      </trkpt>
      <trkpt lat="59.7996829" lon="15.1370911">
        <ele>107.4</ele>
        <time>2012-07-21T19:35:54Z</time>
      </trkpt>
      <trkpt lat="59.7997529" lon="15.1363491">
        <ele>108</ele>
        <time>2012-07-21T19:35:59Z</time>
      </trkpt>
      <trkpt lat="59.7998182" lon="15.1356205">
        <ele>109.2</ele>
        <time>2012-07-21T19:36:04Z</time>
      </trkpt>
      <trkpt lat="59.7998952" lon="15.1348731">
        <ele>110.8</ele>
        <time>2012-07-21T19:36:09Z</time>
      </trkpt>
      <trkpt lat="59.7999963" lon="15.134147">
        <ele>112.2</ele>
        <time>2012-07-21T19:36:14Z</time>
      </trkpt>
      <trkpt lat="59.8001489" lon="15.1334024">
        <ele>113.2</ele>
        <time>2012-07-21T19:36:20Z</time>
      </trkpt>
      <trkpt lat="59.8001931" lon="15.1331979">
        <ele>114</ele>
        <time>2012-07-21T19:36:22Z</time>
      </trkpt>
      <trkpt lat="59.8003561" lon="15.1326847">
        <ele>114</ele>
        <time>2012-07-21T19:36:27Z</time>
      </trkpt>
      <trkpt lat="59.8006035" lon="15.1321425">
        <ele>113</ele>
        <time>2012-07-21T19:36:32Z</time>
      </trkpt>
      <trkpt lat="59.8008799" lon="15.1315553">
        <ele>107.4</ele>
        <time>2012-07-21T19:36:37Z</time>
      </trkpt>
      <trkpt lat="59.8011772" lon="15.1309747">
        <ele>104.2</ele>
        <time>2012-07-21T19:36:42Z</time>
      </trkpt>
      <trkpt lat="59.8014696" lon="15.130418">
        <ele>102.6</ele>
        <time>2012-07-21T19:36:47Z</time>
      </trkpt>
      <trkpt lat="59.8017569" lon="15.1299204">
        <ele>100.8</ele>
        <time>2012-07-21T19:36:52Z</time>
      </trkpt>
      <trkpt lat="59.8019362" lon="15.1296094">
        <ele>100</ele>
        <time>2012-07-21T19:36:55Z</time>
      </trkpt>
      <trkpt lat="59.8020501" lon="15.1293926">
        <ele>99.8</ele>
        <time>2012-07-21T19:36:57Z</time>
      </trkpt>
      <trkpt lat="59.8023035" lon="15.1288182">
        <ele>100</ele>
        <time>2012-07-21T19:37:02Z</time>
      </trkpt>
      <trkpt lat="59.802521" lon="15.1282089">
        <ele>102.4</ele>
        <time>2012-07-21T19:37:07Z</time>
      </trkpt>
      <trkpt lat="59.8027573" lon="15.1275253">
        <ele>104.2</ele>
        <time>2012-07-21T19:37:13Z</time>
      </trkpt>
      <trkpt lat="59.8029576" lon="15.1267796">
        <ele>106.6</ele>
        <time>2012-07-21T19:37:19Z</time>
      </trkpt>
      <trkpt lat="59.8031182" lon="15.1260295">
        <ele>109.4</ele>
        <time>2012-07-21T19:37:25Z</time>
      </trkpt>
      <trkpt lat="59.8032978" lon="15.1252598">
        <ele>110.2</ele>
        <time>2012-07-21T19:37:31Z</time>
      </trkpt>
      <trkpt lat="59.8035104" lon="15.1246736">
        <ele>109.8</ele>
        <time>2012-07-21T19:37:36Z</time>
      </trkpt>
      <trkpt lat="59.8037337" lon="15.1241105">
        <ele>109.8</ele>
        <time>2012-07-21T19:37:41Z</time>
      </trkpt>
      <trkpt lat="59.8039906" lon="15.1234416">
        <ele>109</ele>
        <time>2012-07-21T19:37:47Z</time>
      </trkpt>
      <trkpt lat="59.8042332" lon="15.1228321">
        <ele>110.8</ele>
        <time>2012-07-21T19:37:53Z</time>
      </trkpt>
      <trkpt lat="59.8044553" lon="15.1222404">
        <ele>113.6</ele>
        <time>2012-07-21T19:37:59Z</time>
      </trkpt>
      <trkpt lat="59.8046962" lon="15.1215726">
        <ele>116.4</ele>
        <time>2012-07-21T19:38:06Z</time>
      </trkpt>
      <trkpt lat="59.8048514" lon="15.1211249">
        <ele>118.8</ele>
        <time>2012-07-21T19:38:11Z</time>
      </trkpt>
      <trkpt lat="59.8049034" lon="15.1209473">
        <ele>119.6</ele>
        <time>2012-07-21T19:38:13Z</time>
      </trkpt>
      <trkpt lat="59.8049249" lon="15.1208547">
        <ele>119.8</ele>
        <time>2012-07-21T19:38:14Z</time>
      </trkpt>
      <trkpt lat="59.8049681" lon="15.1205542">
        <ele>121.4</ele>
        <time>2012-07-21T19:38:17Z</time>
      </trkpt>
      <trkpt lat="59.8049562" lon="15.1202483">
        <ele>123.6</ele>
        <time>2012-07-21T19:38:20Z</time>
      </trkpt>
      <trkpt lat="59.8049254" lon="15.1200379">
        <ele>124</ele>
        <time>2012-07-21T19:38:22Z</time>
      </trkpt>
      <trkpt lat="59.8048467" lon="15.1195587">
        <ele>127.8</ele>
        <time>2012-07-21T19:38:27Z</time>
      </trkpt>
      <trkpt lat="59.8047569" lon="15.1188937">
        <ele>129.6</ele>
        <time>2012-07-21T19:38:34Z</time>
      </trkpt>
      <trkpt lat="59.8046692" lon="15.1182226">
        <ele>132</ele>
        <time>2012-07-21T19:38:42Z</time>
      </trkpt>
      <trkpt lat="59.8045494" lon="15.1174652">
        <ele>134.2</ele>
        <time>2012-07-21T19:38:50Z</time>
      </trkpt>
      <trkpt lat="59.8044408" lon="15.1167609">
        <ele>134.2</ele>
        <time>2012-07-21T19:38:57Z</time>
      </trkpt>
      <trkpt lat="59.8043211" lon="15.1160306">
        <ele>133.2</ele>
        <time>2012-07-21T19:39:04Z</time>
      </trkpt>
      <trkpt lat="59.8041595" lon="15.1152074">
        <ele>130</ele>
        <time>2012-07-21T19:39:11Z</time>
      </trkpt>
      <trkpt lat="59.803984" lon="15.1144433">
        <ele>130</ele>
        <time>2012-07-21T19:39:18Z</time>
      </trkpt>
      <trkpt lat="59.8038161" lon="15.1137554">
        <ele>130.6</ele>
        <time>2012-07-21T19:39:24Z</time>
      </trkpt>
      <trkpt lat="59.8036426" lon="15.1130546">
        <ele>130.2</ele>
        <time>2012-07-21T19:39:30Z</time>
      </trkpt>
      <trkpt lat="59.8034565" lon="15.1123882">
        <ele>131.2</ele>
        <time>2012-07-21T19:39:36Z</time>
      </trkpt>
      <trkpt lat="59.8032991" lon="15.1117471">
        <ele>135</ele>
        <time>2012-07-21T19:39:42Z</time>
      </trkpt>
      <trkpt lat="59.8031447" lon="15.1110245">
        <ele>138.6</ele>
        <time>2012-07-21T19:39:48Z</time>
      </trkpt>
      <trkpt lat="59.8030386" lon="15.1102623">
        <ele>142.2</ele>
        <time>2012-07-21T19:39:54Z</time>
      </trkpt>
      <trkpt lat="59.8029696" lon="15.1094446">
        <ele>144</ele>
        <time>2012-07-21T19:40:00Z</time>
      </trkpt>
      <trkpt lat="59.802901" lon="15.1086036">
        <ele>145</ele>
        <time>2012-07-21T19:40:06Z</time>
      </trkpt>
      <trkpt lat="59.8028496" lon="15.1078769">
        <ele>146.6</ele>
        <time>2012-07-21T19:40:11Z</time>
      </trkpt>
      <trkpt lat="59.8027783" lon="15.1070763">
        <ele>146</ele>
        <time>2012-07-21T19:40:17Z</time>
      </trkpt>
      <trkpt lat="59.8027522" lon="15.106249">
        <ele>145.2</ele>
        <time>2012-07-21T19:40:23Z</time>
      </trkpt>
      <trkpt lat="59.8026894" lon="15.1054661">
        <ele>145.6</ele>
        <time>2012-07-21T19:40:28Z</time>
      </trkpt>
      <trkpt lat="59.8026229" lon="15.1045753">
        <ele>144</ele>
        <time>2012-07-21T19:40:33Z</time>
      </trkpt>
      <trkpt lat="59.8025635" lon="15.1038411">
        <ele>143</ele>
        <time>2012-07-21T19:40:37Z</time>
      </trkpt>
      <trkpt lat="59.8025128" lon="15.1030938">
        <ele>142.2</ele>
        <time>2012-07-21T19:40:41Z</time>
      </trkpt>
      <trkpt lat="59.8024652" lon="15.1023269">
        <ele>139.2</ele>
        <time>2012-07-21T19:40:45Z</time>
      </trkpt>
      <trkpt lat="59.8024044" lon="15.1017469">
        <ele>134.4</ele>
        <time>2012-07-21T19:40:48Z</time>
      </trkpt>
      <trkpt lat="59.8023677" lon="15.1015665">
        <ele>133.2</ele>
        <time>2012-07-21T19:40:49Z</time>
      </trkpt>
      <trkpt lat="59.8021894" lon="15.1008927">
        <ele>128.8</ele>
        <time>2012-07-21T19:40:53Z</time>
      </trkpt>
      <trkpt lat="59.8021469" lon="15.1007218">
        <ele>127.8</ele>
        <time>2012-07-21T19:40:54Z</time>
      </trkpt>
      <trkpt lat="59.8020927" lon="15.1001727">
        <ele>125.2</ele>
        <time>2012-07-21T19:40:57Z</time>
      </trkpt>
      <trkpt lat="59.8021059" lon="15.0998027">
        <ele>123.6</ele>
        <time>2012-07-21T19:40:59Z</time>
      </trkpt>
      <trkpt lat="59.8021375" lon="15.0994397">
        <ele>122.6</ele>
        <time>2012-07-21T19:41:01Z</time>
      </trkpt>
      <trkpt lat="59.8021889" lon="15.0990942">
        <ele>121.6</ele>
        <time>2012-07-21T19:41:03Z</time>
      </trkpt>
      <trkpt lat="59.802272" lon="15.0987682">
        <ele>121.2</ele>
        <time>2012-07-21T19:41:05Z</time>
      </trkpt>
      <trkpt lat="59.8024863" lon="15.098169">
        <ele>121.8</ele>
        <time>2012-07-21T19:41:09Z</time>
      </trkpt>
      <trkpt lat="59.8026566" lon="15.0977707">
        <ele>123</ele>
        <time>2012-07-21T19:41:12Z</time>
      </trkpt>
      <trkpt lat="59.8027816" lon="15.0975664">
        <ele>124</ele>
        <time>2012-07-21T19:41:14Z</time>
      </trkpt>
      <trkpt lat="59.8030692" lon="15.0970988">
        <ele>123.6</ele>
        <time>2012-07-21T19:41:19Z</time>
      </trkpt>
      <trkpt lat="59.8033701" lon="15.0964785">
        <ele>125.6</ele>
        <time>2012-07-21T19:41:25Z</time>
      </trkpt>
      <trkpt lat="59.8034504" lon="15.0962592">
        <ele>126.2</ele>
        <time>2012-07-21T19:41:27Z</time>
      </trkpt>
      <trkpt lat="59.8035473" lon="15.0957819">
        <ele>126.8</ele>
        <time>2012-07-21T19:41:31Z</time>
      </trkpt>
      <trkpt lat="59.8037" lon="15.0950314">
        <ele>127</ele>
        <time>2012-07-21T19:41:38Z</time>
      </trkpt>
      <trkpt lat="59.8039414" lon="15.094404">
        <ele>125.4</ele>
        <time>2012-07-21T19:41:44Z</time>
      </trkpt>
      <trkpt lat="59.8042231" lon="15.0939276">
        <ele>123.8</ele>
        <time>2012-07-21T19:41:49Z</time>
      </trkpt>
      <trkpt lat="59.8045066" lon="15.0934676">
        <ele>125</ele>
        <time>2012-07-21T19:41:54Z</time>
      </trkpt>
      <trkpt lat="59.8047868" lon="15.0929971">
        <ele>125.8</ele>
        <time>2012-07-21T19:41:59Z</time>
      </trkpt>
      <trkpt lat="59.8050743" lon="15.0924927">
        <ele>128.8</ele>
        <time>2012-07-21T19:42:04Z</time>
      </trkpt>
      <trkpt lat="59.8053053" lon="15.091941">
        <ele>131</ele>
        <time>2012-07-21T19:42:09Z</time>
      </trkpt>
      <trkpt lat="59.8055207" lon="15.0913145">
        <ele>131.4</ele>
        <time>2012-07-21T19:42:14Z</time>
      </trkpt>
      <trkpt lat="59.8057508" lon="15.090644">
        <ele>130</ele>
        <time>2012-07-21T19:42:19Z</time>
      </trkpt>
      <trkpt lat="59.8059853" lon="15.0899622">
        <ele>129.4</ele>
        <time>2012-07-21T19:42:24Z</time>
      </trkpt>
      <trkpt lat="59.8061959" lon="15.0892518">
        <ele>129.4</ele>
        <time>2012-07-21T19:42:29Z</time>
      </trkpt>
      <trkpt lat="59.8063288" lon="15.0885081">
        <ele>129.8</ele>
        <time>2012-07-21T19:42:34Z</time>
      </trkpt>
      <trkpt lat="59.8063729" lon="15.087802">
        <ele>131</ele>
        <time>2012-07-21T19:42:39Z</time>
      </trkpt>
      <trkpt lat="59.8063821" lon="15.0870857">
        <ele>130.8</ele>
        <time>2012-07-21T19:42:44Z</time>
      </trkpt>
      <trkpt lat="59.8063824" lon="15.0863656">
        <ele>131.2</ele>
        <time>2012-07-21T19:42:49Z</time>
      </trkpt>
      <trkpt lat="59.8063818" lon="15.0856395">
        <ele>131.6</ele>
        <time>2012-07-21T19:42:54Z</time>
      </trkpt>
      <trkpt lat="59.8063933" lon="15.0848648">
        <ele>131</ele>
        <time>2012-07-21T19:42:59Z</time>
      </trkpt>
      <trkpt lat="59.8064693" lon="15.0840687">
        <ele>130.4</ele>
        <time>2012-07-21T19:43:04Z</time>
      </trkpt>
      <trkpt lat="59.8066039" lon="15.0833605">
        <ele>131.4</ele>
        <time>2012-07-21T19:43:09Z</time>
      </trkpt>
      <trkpt lat="59.8067402" lon="15.0826515">
        <ele>132</ele>
        <time>2012-07-21T19:43:14Z</time>
      </trkpt>
      <trkpt lat="59.8068905" lon="15.0818924">
        <ele>132</ele>
        <time>2012-07-21T19:43:19Z</time>
      </trkpt>
      <trkpt lat="59.8070433" lon="15.0811002">
        <ele>132</ele>
        <time>2012-07-21T19:43:24Z</time>
      </trkpt>
      <trkpt lat="59.8072105" lon="15.0803427">
        <ele>131.4</ele>
        <time>2012-07-21T19:43:29Z</time>
      </trkpt>
      <trkpt lat="59.8073971" lon="15.0796481">
        <ele>127</ele>
        <time>2012-07-21T19:43:34Z</time>
      </trkpt>
      <trkpt lat="59.8075787" lon="15.0789638">
        <ele>124.2</ele>
        <time>2012-07-21T19:43:39Z</time>
      </trkpt>
      <trkpt lat="59.8077523" lon="15.0782804">
        <ele>121.6</ele>
        <time>2012-07-21T19:43:44Z</time>
      </trkpt>
      <trkpt lat="59.8079428" lon="15.0776475">
        <ele>120.6</ele>
        <time>2012-07-21T19:43:49Z</time>
      </trkpt>
      <trkpt lat="59.8081252" lon="15.0771706">
        <ele>122</ele>
        <time>2012-07-21T19:43:53Z</time>
      </trkpt>
      <trkpt lat="59.8081762" lon="15.0770644">
        <ele>122.4</ele>
        <time>2012-07-21T19:43:54Z</time>
      </trkpt>
      <trkpt lat="59.808458" lon="15.0765597">
        <ele>123.8</ele>
        <time>2012-07-21T19:43:59Z</time>
      </trkpt>
      <trkpt lat="59.8087553" lon="15.0760924">
        <ele>126</ele>
        <time>2012-07-21T19:44:04Z</time>
      </trkpt>
      <trkpt lat="59.8090479" lon="15.0756318">
        <ele>127.8</ele>
        <time>2012-07-21T19:44:09Z</time>
      </trkpt>
      <trkpt lat="59.8093427" lon="15.0751549">
        <ele>129</ele>
        <time>2012-07-21T19:44:14Z</time>
      </trkpt>
      <trkpt lat="59.8096359" lon="15.0746791">
        <ele>128.6</ele>
        <time>2012-07-21T19:44:19Z</time>
      </trkpt>
      <trkpt lat="59.8099255" lon="15.0742016">
        <ele>127</ele>
        <time>2012-07-21T19:44:24Z</time>
      </trkpt>
      <trkpt lat="59.8102454" lon="15.0736816">
        <ele>125.2</ele>
        <time>2012-07-21T19:44:30Z</time>
      </trkpt>
      <trkpt lat="59.8105386" lon="15.073128">
        <ele>124.8</ele>
        <time>2012-07-21T19:44:36Z</time>
      </trkpt>
      <trkpt lat="59.8107969" lon="15.0724689">
        <ele>124</ele>
        <time>2012-07-21T19:44:42Z</time>
      </trkpt>
      <trkpt lat="59.8110485" lon="15.0718417">
        <ele>124.4</ele>
        <time>2012-07-21T19:44:48Z</time>
      </trkpt>
      <trkpt lat="59.8112873" lon="15.0712318">
        <ele>125.4</ele>
        <time>2012-07-21T19:44:55Z</time>
      </trkpt>
      <trkpt lat="59.8115168" lon="15.070655">
        <ele>127.4</ele>
        <time>2012-07-21T19:45:02Z</time>
      </trkpt>
      <trkpt lat="59.8117347" lon="15.0700771">
        <ele>128.4</ele>
        <time>2012-07-21T19:45:09Z</time>
      </trkpt>
      <trkpt lat="59.8119733" lon="15.069433">
        <ele>129.6</ele>
        <time>2012-07-21T19:45:16Z</time>
      </trkpt>
      <trkpt lat="59.8121123" lon="15.0691035">
        <ele>129.8</ele>
        <time>2012-07-21T19:45:20Z</time>
      </trkpt>
      <trkpt lat="59.8122055" lon="15.0688494">
        <ele>130.2</ele>
        <time>2012-07-21T19:45:23Z</time>
      </trkpt>
      <trkpt lat="59.8124398" lon="15.068283">
        <ele>133.8</ele>
        <time>2012-07-21T19:45:31Z</time>
      </trkpt>
      <trkpt lat="59.8127005" lon="15.0676868">
        <ele>133.8</ele>
        <time>2012-07-21T19:45:39Z</time>
      </trkpt>
      <trkpt lat="59.8129144" lon="15.0670563">
        <ele>136.4</ele>
        <time>2012-07-21T19:45:48Z</time>
      </trkpt>
      <trkpt lat="59.8131186" lon="15.0664565">
        <ele>137</ele>
        <time>2012-07-21T19:45:56Z</time>
      </trkpt>
      <trkpt lat="59.8133121" lon="15.0658026">
        <ele>137.2</ele>
        <time>2012-07-21T19:46:04Z</time>
      </trkpt>
      <trkpt lat="59.8133362" lon="15.0657198">
        <ele>137.2</ele>
        <time>2012-07-21T19:46:05Z</time>
      </trkpt>
      <trkpt lat="59.8134842" lon="15.0651789">
        <ele>135.6</ele>
        <time>2012-07-21T19:46:11Z</time>
      </trkpt>
      <trkpt lat="59.8137209" lon="15.0645621">
        <ele>134.6</ele>
        <time>2012-07-21T19:46:17Z</time>
      </trkpt>
      <trkpt lat="59.8140403" lon="15.0640986">
        <ele>133.4</ele>
        <time>2012-07-21T19:46:23Z</time>
      </trkpt>
      <trkpt lat="59.8144415" lon="15.0637218">
        <ele>131.8</ele>
        <time>2012-07-21T19:46:29Z</time>
      </trkpt>
      <trkpt lat="59.8147936" lon="15.0632225">
        <ele>130.4</ele>
        <time>2012-07-21T19:46:34Z</time>
      </trkpt>
      <trkpt lat="59.8149953" lon="15.062645">
        <ele>132.8</ele>
        <time>2012-07-21T19:46:38Z</time>
      </trkpt>
      <trkpt lat="59.8150349" lon="15.0625038">
        <ele>134</ele>
        <time>2012-07-21T19:46:39Z</time>
      </trkpt>
      <trkpt lat="59.8150682" lon="15.0623647">
        <ele>135</ele>
        <time>2012-07-21T19:46:40Z</time>
      </trkpt>
      <trkpt lat="59.8151619" lon="15.0617877">
        <ele>138.2</ele>
        <time>2012-07-21T19:46:44Z</time>
      </trkpt>
      <trkpt lat="59.8151851" lon="15.0610039">
        <ele>140</ele>
        <time>2012-07-21T19:46:49Z</time>
      </trkpt>
      <trkpt lat="59.815114" lon="15.0602322">
        <ele>139.4</ele>
        <time>2012-07-21T19:46:54Z</time>
      </trkpt>
      <trkpt lat="59.8150258" lon="15.0594415">
        <ele>138.6</ele>
        <time>2012-07-21T19:46:59Z</time>
      </trkpt>
      <trkpt lat="59.8149237" lon="15.058646">
        <ele>137.6</ele>
        <time>2012-07-21T19:47:04Z</time>
      </trkpt>
      <trkpt lat="59.8148373" lon="15.0578459">
        <ele>137.2</ele>
        <time>2012-07-21T19:47:09Z</time>
      </trkpt>
      <trkpt lat="59.8147964" lon="15.0571069">
        <ele>137.4</ele>
        <time>2012-07-21T19:47:14Z</time>
      </trkpt>
      <trkpt lat="59.8148505" lon="15.056264">
        <ele>137</ele>
        <time>2012-07-21T19:47:20Z</time>
      </trkpt>
      <trkpt lat="59.8149236" lon="15.0555423">
        <ele>137</ele>
        <time>2012-07-21T19:47:25Z</time>
      </trkpt>
      <trkpt lat="59.8149998" lon="15.0548194">
        <ele>137.4</ele>
        <time>2012-07-21T19:47:30Z</time>
      </trkpt>
      <trkpt lat="59.8150766" lon="15.0540658">
        <ele>137.2</ele>
        <time>2012-07-21T19:47:35Z</time>
      </trkpt>
      <trkpt lat="59.81516" lon="15.0533064">
        <ele>136.2</ele>
        <time>2012-07-21T19:47:40Z</time>
      </trkpt>
      <trkpt lat="59.8152442" lon="15.0525322">
        <ele>135.8</ele>
        <time>2012-07-21T19:47:45Z</time>
      </trkpt>
      <trkpt lat="59.8153217" lon="15.0518033">
        <ele>136.2</ele>
        <time>2012-07-21T19:47:50Z</time>
      </trkpt>
      <trkpt lat="59.8154086" lon="15.0510351">
        <ele>136.4</ele>
        <time>2012-07-21T19:47:56Z</time>
      </trkpt>
      <trkpt lat="59.8155034" lon="15.050234">
        <ele>135.8</ele>
        <time>2012-07-21T19:48:02Z</time>
      </trkpt>
      <trkpt lat="59.8155973" lon="15.049452">
        <ele>136.8</ele>
        <time>2012-07-21T19:48:08Z</time>
      </trkpt>
      <trkpt lat="59.8156861" lon="15.0486859">
        <ele>138.2</ele>
        <time>2012-07-21T19:48:15Z</time>
      </trkpt>
      <trkpt lat="59.8157677" lon="15.047921">
        <ele>139.6</ele>
        <time>2012-07-21T19:48:22Z</time>
      </trkpt>
      <trkpt lat="59.8158425" lon="15.0471979">
        <ele>141</ele>
        <time>2012-07-21T19:48:29Z</time>
      </trkpt>
      <trkpt lat="59.8159217" lon="15.0464652">
        <ele>143</ele>
        <time>2012-07-21T19:48:36Z</time>
      </trkpt>
      <trkpt lat="59.8160407" lon="15.0457441">
        <ele>144.8</ele>
        <time>2012-07-21T19:48:43Z</time>
      </trkpt>
      <trkpt lat="59.816212" lon="15.0450342">
        <ele>144.8</ele>
        <time>2012-07-21T19:48:50Z</time>
      </trkpt>
      <trkpt lat="59.8163652" lon="15.0443239">
        <ele>143</ele>
        <time>2012-07-21T19:48:56Z</time>
      </trkpt>
      <trkpt lat="59.8164756" lon="15.0436138">
        <ele>142.2</ele>
        <time>2012-07-21T19:49:01Z</time>
      </trkpt>
      <trkpt lat="59.8165804" lon="15.0428975">
        <ele>142.6</ele>
        <time>2012-07-21T19:49:06Z</time>
      </trkpt>
      <trkpt lat="59.8166849" lon="15.042157">
        <ele>143.4</ele>
        <time>2012-07-21T19:49:11Z</time>
      </trkpt>
      <trkpt lat="59.816775" lon="15.0414304">
        <ele>144</ele>
        <time>2012-07-21T19:49:16Z</time>
      </trkpt>
      <trkpt lat="59.8168767" lon="15.0406607">
        <ele>145.4</ele>
        <time>2012-07-21T19:49:22Z</time>
      </trkpt>
      <trkpt lat="59.8169198" lon="15.0404177">
        <ele>145.4</ele>
        <time>2012-07-21T19:49:24Z</time>
      </trkpt>
      <trkpt lat="59.8170705" lon="15.0399742">
        <ele>145</ele>
        <time>2012-07-21T19:49:28Z</time>
      </trkpt>
      <trkpt lat="59.8172018" lon="15.039681">
        <ele>145</ele>
        <time>2012-07-21T19:49:31Z</time>
      </trkpt>
      <trkpt lat="59.8173538" lon="15.0394371">
        <ele>145.4</ele>
        <time>2012-07-21T19:49:34Z</time>
      </trkpt>
      <trkpt lat="59.8177061" lon="15.0389834">
        <ele>146.4</ele>
        <time>2012-07-21T19:49:40Z</time>
      </trkpt>
      <trkpt lat="59.8180655" lon="15.0385621">
        <ele>147</ele>
        <time>2012-07-21T19:49:46Z</time>
      </trkpt>
      <trkpt lat="59.8183978" lon="15.0382564">
        <ele>147.4</ele>
        <time>2012-07-21T19:49:51Z</time>
      </trkpt>
      <trkpt lat="59.8187672" lon="15.0380945">
        <ele>147</ele>
        <time>2012-07-21T19:49:56Z</time>
      </trkpt>
      <trkpt lat="59.8191619" lon="15.0380372">
        <ele>147.2</ele>
        <time>2012-07-21T19:50:01Z</time>
      </trkpt>
      <trkpt lat="59.8195347" lon="15.0378697">
        <ele>148</ele>
        <time>2012-07-21T19:50:06Z</time>
      </trkpt>
      <trkpt lat="59.8198719" lon="15.0375396">
        <ele>148.4</ele>
        <time>2012-07-21T19:50:11Z</time>
      </trkpt>
      <trkpt lat="59.8202322" lon="15.0371076">
        <ele>149.6</ele>
        <time>2012-07-21T19:50:17Z</time>
      </trkpt>
      <trkpt lat="59.8205833" lon="15.0366895">
        <ele>149.8</ele>
        <time>2012-07-21T19:50:23Z</time>
      </trkpt>
      <trkpt lat="59.8209083" lon="15.0362725">
        <ele>150</ele>
        <time>2012-07-21T19:50:29Z</time>
      </trkpt>
      <trkpt lat="59.8212321" lon="15.0358245">
        <ele>150</ele>
        <time>2012-07-21T19:50:35Z</time>
      </trkpt>
      <trkpt lat="59.8215548" lon="15.0353038">
        <ele>151.2</ele>
        <time>2012-07-21T19:50:41Z</time>
      </trkpt>
      <trkpt lat="59.8218698" lon="15.0347945">
        <ele>151.4</ele>
        <time>2012-07-21T19:50:47Z</time>
      </trkpt>
      <trkpt lat="59.8222065" lon="15.0343068">
        <ele>151</ele>
        <time>2012-07-21T19:50:53Z</time>
      </trkpt>
      <trkpt lat="59.822522" lon="15.0339332">
        <ele>151</ele>
        <time>2012-07-21T19:50:58Z</time>
      </trkpt>
      <trkpt lat="59.8229038" lon="15.0335172">
        <ele>151.2</ele>
        <time>2012-07-21T19:51:04Z</time>
      </trkpt>
      <trkpt lat="59.8232102" lon="15.0331601">
        <ele>152.8</ele>
        <time>2012-07-21T19:51:09Z</time>
      </trkpt>
      <trkpt lat="59.8232625" lon="15.0330759">
        <ele>153</ele>
        <time>2012-07-21T19:51:10Z</time>
      </trkpt>
      <trkpt lat="59.8234083" lon="15.0328169">
        <ele>153.4</ele>
        <time>2012-07-21T19:51:13Z</time>
      </trkpt>
      <trkpt lat="59.8235398" lon="15.0325043">
        <ele>153.2</ele>
        <time>2012-07-21T19:51:16Z</time>
      </trkpt>
      <trkpt lat="59.8237209" lon="15.0318325">
        <ele>151.8</ele>
        <time>2012-07-21T19:51:21Z</time>
      </trkpt>
      <trkpt lat="59.8239168" lon="15.0310831">
        <ele>151.4</ele>
        <time>2012-07-21T19:51:26Z</time>
      </trkpt>
      <trkpt lat="59.8241833" lon="15.0303884">
        <ele>150</ele>
        <time>2012-07-21T19:51:31Z</time>
      </trkpt>
      <trkpt lat="59.8244482" lon="15.0297301">
        <ele>150.2</ele>
        <time>2012-07-21T19:51:36Z</time>
      </trkpt>
      <trkpt lat="59.8246493" lon="15.0289982">
        <ele>150.8</ele>
        <time>2012-07-21T19:51:41Z</time>
      </trkpt>
      <trkpt lat="59.8247948" lon="15.0282149">
        <ele>151.2</ele>
        <time>2012-07-21T19:51:46Z</time>
      </trkpt>
      <trkpt lat="59.8249561" lon="15.0275092">
        <ele>151.6</ele>
        <time>2012-07-21T19:51:51Z</time>
      </trkpt>
      <trkpt lat="59.825242" lon="15.0269694">
        <ele>149.8</ele>
        <time>2012-07-21T19:51:56Z</time>
      </trkpt>
      <trkpt lat="59.8255291" lon="15.0264262">
        <ele>150.6</ele>
        <time>2012-07-21T19:52:01Z</time>
      </trkpt>
      <trkpt lat="59.8255771" lon="15.0263079">
        <ele>151.2</ele>
        <time>2012-07-21T19:52:02Z</time>
      </trkpt>
      <trkpt lat="59.8257342" lon="15.0258356">
        <ele>154</ele>
        <time>2012-07-21T19:52:06Z</time>
      </trkpt>
      <trkpt lat="59.8259035" lon="15.0251045">
        <ele>155.2</ele>
        <time>2012-07-21T19:52:12Z</time>
      </trkpt>
      <trkpt lat="59.8259735" lon="15.0248616">
        <ele>155.4</ele>
        <time>2012-07-21T19:52:14Z</time>
      </trkpt>
      <trkpt lat="59.826203" lon="15.0245743">
        <ele>153.8</ele>
        <time>2012-07-21T19:52:18Z</time>
      </trkpt>
      <trkpt lat="59.8265757" lon="15.0243235">
        <ele>151.6</ele>
        <time>2012-07-21T19:52:23Z</time>
      </trkpt>
      <trkpt lat="59.8267233" lon="15.0241916">
        <ele>151</ele>
        <time>2012-07-21T19:52:25Z</time>
      </trkpt>
      <trkpt lat="59.8269089" lon="15.0239147">
        <ele>151.2</ele>
        <time>2012-07-21T19:52:28Z</time>
      </trkpt>
      <trkpt lat="59.8271185" lon="15.0232653">
        <ele>151.2</ele>
        <time>2012-07-21T19:52:33Z</time>
      </trkpt>
      <trkpt lat="59.8272905" lon="15.0224891">
        <ele>151.2</ele>
        <time>2012-07-21T19:52:38Z</time>
      </trkpt>
      <trkpt lat="59.82746" lon="15.0216817">
        <ele>152</ele>
        <time>2012-07-21T19:52:43Z</time>
      </trkpt>
      <trkpt lat="59.8276233" lon="15.0209072">
        <ele>153.2</ele>
        <time>2012-07-21T19:52:48Z</time>
      </trkpt>
      <trkpt lat="59.827814" lon="15.0202319">
        <ele>152.8</ele>
        <time>2012-07-21T19:52:53Z</time>
      </trkpt>
      <trkpt lat="59.8278635" lon="15.0201128">
        <ele>152.8</ele>
        <time>2012-07-21T19:52:54Z</time>
      </trkpt>
      <trkpt lat="59.8280831" lon="15.0196663">
        <ele>152.4</ele>
        <time>2012-07-21T19:52:58Z</time>
      </trkpt>
      <trkpt lat="59.828395" lon="15.0191296">
        <ele>151.4</ele>
        <time>2012-07-21T19:53:03Z</time>
      </trkpt>
      <trkpt lat="59.828727" lon="15.0185545">
        <ele>150.4</ele>
        <time>2012-07-21T19:53:08Z</time>
      </trkpt>
      <trkpt lat="59.8289984" lon="15.0180736">
        <ele>150.2</ele>
        <time>2012-07-21T19:53:12Z</time>
      </trkpt>
      <trkpt lat="59.8293274" lon="15.0174755">
        <ele>151</ele>
        <time>2012-07-21T19:53:17Z</time>
      </trkpt>
      <trkpt lat="59.8296421" lon="15.0169213">
        <ele>151.8</ele>
        <time>2012-07-21T19:53:22Z</time>
      </trkpt>
      <trkpt lat="59.8299596" lon="15.0163685">
        <ele>151.8</ele>
        <time>2012-07-21T19:53:27Z</time>
      </trkpt>
      <trkpt lat="59.8302936" lon="15.0157907">
        <ele>150.4</ele>
        <time>2012-07-21T19:53:32Z</time>
      </trkpt>
      <trkpt lat="59.8305807" lon="15.0153429">
        <ele>150.8</ele>
        <time>2012-07-21T19:53:36Z</time>
      </trkpt>
      <trkpt lat="59.8308966" lon="15.0148997">
        <ele>152.4</ele>
        <time>2012-07-21T19:53:41Z</time>
      </trkpt>
      <trkpt lat="59.8312487" lon="15.0144734">
        <ele>153.2</ele>
        <time>2012-07-21T19:53:47Z</time>
      </trkpt>
      <trkpt lat="59.8315839" lon="15.0140969">
        <ele>154</ele>
        <time>2012-07-21T19:53:53Z</time>
      </trkpt>
      <trkpt lat="59.8319021" lon="15.0137184">
        <ele>154.4</ele>
        <time>2012-07-21T19:53:59Z</time>
      </trkpt>
      <trkpt lat="59.8322248" lon="15.0132589">
        <ele>155.8</ele>
        <time>2012-07-21T19:54:06Z</time>
      </trkpt>
      <trkpt lat="59.8324957" lon="15.0127493">
        <ele>156.6</ele>
        <time>2012-07-21T19:54:13Z</time>
      </trkpt>
      <trkpt lat="59.8327657" lon="15.0121745">
        <ele>157.6</ele>
        <time>2012-07-21T19:54:20Z</time>
      </trkpt>
      <trkpt lat="59.8330325" lon="15.011609">
        <ele>158</ele>
        <time>2012-07-21T19:54:28Z</time>
      </trkpt>
      <trkpt lat="59.8333056" lon="15.0110589">
        <ele>157.4</ele>
        <time>2012-07-21T19:54:36Z</time>
      </trkpt>
      <trkpt lat="59.8335676" lon="15.0105124">
        <ele>159.4</ele>
        <time>2012-07-21T19:54:43Z</time>
      </trkpt>
      <trkpt lat="59.8338435" lon="15.0099797">
        <ele>159.8</ele>
        <time>2012-07-21T19:54:49Z</time>
      </trkpt>
      <trkpt lat="59.8341295" lon="15.009413">
        <ele>159.4</ele>
        <time>2012-07-21T19:54:55Z</time>
      </trkpt>
      <trkpt lat="59.8343891" lon="15.0088901">
        <ele>158.4</ele>
        <time>2012-07-21T19:55:00Z</time>
      </trkpt>
      <trkpt lat="59.8346777" lon="15.0083036">
        <ele>160.8</ele>
        <time>2012-07-21T19:55:06Z</time>
      </trkpt>
      <trkpt lat="59.8349169" lon="15.0076738">
        <ele>162.6</ele>
        <time>2012-07-21T19:55:12Z</time>
      </trkpt>
      <trkpt lat="59.8350178" lon="15.0073045">
        <ele>164.8</ele>
        <time>2012-07-21T19:55:15Z</time>
      </trkpt>
      <trkpt lat="59.8350605" lon="15.0069262">
        <ele>167.4</ele>
        <time>2012-07-21T19:55:18Z</time>
      </trkpt>
      <trkpt lat="59.8350029" lon="15.0064341">
        <ele>170.6</ele>
        <time>2012-07-21T19:55:22Z</time>
      </trkpt>
      <trkpt lat="59.8349737" lon="15.0063212">
        <ele>171</ele>
        <time>2012-07-21T19:55:23Z</time>
      </trkpt>
      <trkpt lat="59.8349374" lon="15.0062091">
        <ele>171.4</ele>
        <time>2012-07-21T19:55:24Z</time>
      </trkpt>
      <trkpt lat="59.8346844" lon="15.0055733">
        <ele>170.8</ele>
        <time>2012-07-21T19:55:30Z</time>
      </trkpt>
      <trkpt lat="59.8345738" lon="15.0052525">
        <ele>173</ele>
        <time>2012-07-21T19:55:33Z</time>
      </trkpt>
      <trkpt lat="59.8345039" lon="15.0049044">
        <ele>175.6</ele>
        <time>2012-07-21T19:55:36Z</time>
      </trkpt>
      <trkpt lat="59.8344791" lon="15.0046758">
        <ele>176.2</ele>
        <time>2012-07-21T19:55:38Z</time>
      </trkpt>
      <trkpt lat="59.8344785" lon="15.0042812">
        <ele>175.6</ele>
        <time>2012-07-21T19:55:42Z</time>
      </trkpt>
      <trkpt lat="59.8344864" lon="15.0041803">
        <ele>175.4</ele>
        <time>2012-07-21T19:55:43Z</time>
      </trkpt>
      <trkpt lat="59.8345984" lon="15.0034892">
        <ele>174.4</ele>
        <time>2012-07-21T19:55:50Z</time>
      </trkpt>
      <trkpt lat="59.8347578" lon="15.0027775">
        <ele>172.4</ele>
        <time>2012-07-21T19:55:57Z</time>
      </trkpt>
      <trkpt lat="59.834918" lon="15.0020284">
        <ele>169.6</ele>
        <time>2012-07-21T19:56:04Z</time>
      </trkpt>
      <trkpt lat="59.8349915" lon="15.0016871">
        <ele>170</ele>
        <time>2012-07-21T19:56:08Z</time>
      </trkpt>
      <trkpt lat="59.8349257" lon="15.0013769">
        <ele>169.6</ele>
        <time>2012-07-21T19:56:12Z</time>
      </trkpt>
      <trkpt lat="59.834703" lon="15.0013046">
        <ele>169.6</ele>
        <time>2012-07-21T19:56:16Z</time>
      </trkpt>
      <trkpt lat="59.8345817" lon="15.0012504">
        <ele>170</ele>
        <time>2012-07-21T19:56:18Z</time>
      </trkpt>
      <trkpt lat="59.8345201" lon="15.0012122">
        <ele>169.6</ele>
        <time>2012-07-21T19:56:19Z</time>
      </trkpt>
      <trkpt lat="59.8342185" lon="15.000862">
        <ele>169.2</ele>
        <time>2012-07-21T19:56:24Z</time>
      </trkpt>
      <trkpt lat="59.8339262" lon="15.0003782">
        <ele>167.6</ele>
        <time>2012-07-21T19:56:29Z</time>
      </trkpt>
      <trkpt lat="59.8336047" lon="14.9998477">
        <ele>166.4</ele>
        <time>2012-07-21T19:56:35Z</time>
      </trkpt>
      <trkpt lat="59.8332901" lon="14.999341">
        <ele>166.2</ele>
        <time>2012-07-21T19:56:41Z</time>
      </trkpt>
      <trkpt lat="59.8329391" lon="14.9989564">
        <ele>165</ele>
        <time>2012-07-21T19:56:47Z</time>
      </trkpt>
      <trkpt lat="59.8325388" lon="14.9986736">
        <ele>165</ele>
        <time>2012-07-21T19:56:53Z</time>
      </trkpt>
      <trkpt lat="59.8321568" lon="14.9982801">
        <ele>164.6</ele>
        <time>2012-07-21T19:56:59Z</time>
      </trkpt>
      <trkpt lat="59.8318243" lon="14.9978987">
        <ele>164.8</ele>
        <time>2012-07-21T19:57:05Z</time>
      </trkpt>
      <trkpt lat="59.8315067" lon="14.99755">
        <ele>166.2</ele>
        <time>2012-07-21T19:57:11Z</time>
      </trkpt>
      <trkpt lat="59.8311691" lon="14.9971705">
        <ele>167.8</ele>
        <time>2012-07-21T19:57:18Z</time>
      </trkpt>
      <trkpt lat="59.8309081" lon="14.9967752">
        <ele>170.6</ele>
        <time>2012-07-21T19:57:24Z</time>
      </trkpt>
      <trkpt lat="59.8308692" lon="14.9966934">
        <ele>170.6</ele>
        <time>2012-07-21T19:57:25Z</time>
      </trkpt>
      <trkpt lat="59.8306213" lon="14.9961049">
        <ele>174</ele>
        <time>2012-07-21T19:57:32Z</time>
      </trkpt>
      <trkpt lat="59.830402" lon="14.9954571">
        <ele>177.4</ele>
        <time>2012-07-21T19:57:39Z</time>
      </trkpt>
      <trkpt lat="59.8303516" lon="14.995255">
        <ele>177.6</ele>
        <time>2012-07-21T19:57:41Z</time>
      </trkpt>
      <trkpt lat="59.8303053" lon="14.9950348">
        <ele>177</ele>
        <time>2012-07-21T19:57:43Z</time>
      </trkpt>
      <trkpt lat="59.8302662" lon="14.9947002">
        <ele>176.6</ele>
        <time>2012-07-21T19:57:46Z</time>
      </trkpt>
      <trkpt lat="59.8302371" lon="14.9938544">
        <ele>177</ele>
        <time>2012-07-21T19:57:53Z</time>
      </trkpt>
      <trkpt lat="59.8302219" lon="14.9931092">
        <ele>177.6</ele>
        <time>2012-07-21T19:57:59Z</time>
      </trkpt>
      <trkpt lat="59.8302127" lon="14.992348">
        <ele>180.4</ele>
        <time>2012-07-21T19:58:06Z</time>
      </trkpt>
      <trkpt lat="59.8301627" lon="14.9915874">
        <ele>182.6</ele>
        <time>2012-07-21T19:58:13Z</time>
      </trkpt>
      <trkpt lat="59.8300699" lon="14.9908346">
        <ele>184</ele>
        <time>2012-07-21T19:58:20Z</time>
      </trkpt>
      <trkpt lat="59.8298935" lon="14.9901093">
        <ele>187.4</ele>
        <time>2012-07-21T19:58:27Z</time>
      </trkpt>
      <trkpt lat="59.8297238" lon="14.9894387">
        <ele>195.4</ele>
        <time>2012-07-21T19:58:34Z</time>
      </trkpt>
      <trkpt lat="59.8295587" lon="14.9887299">
        <ele>200.6</ele>
        <time>2012-07-21T19:58:41Z</time>
      </trkpt>
      <trkpt lat="59.8294218" lon="14.9880024">
        <ele>200.6</ele>
        <time>2012-07-21T19:58:49Z</time>
      </trkpt>
      <trkpt lat="59.8293519" lon="14.9874833">
        <ele>202.6</ele>
        <time>2012-07-21T19:58:55Z</time>
      </trkpt>
      <trkpt lat="59.8293285" lon="14.9873029">
        <ele>202.8</ele>
        <time>2012-07-21T19:58:57Z</time>
      </trkpt>
      <trkpt lat="59.8292596" lon="14.9865612">
        <ele>203.6</ele>
        <time>2012-07-21T19:59:05Z</time>
      </trkpt>
      <trkpt lat="59.8291866" lon="14.9858699">
        <ele>206.6</ele>
        <time>2012-07-21T19:59:12Z</time>
      </trkpt>
      <trkpt lat="59.8290691" lon="14.9851377">
        <ele>212</ele>
        <time>2012-07-21T19:59:20Z</time>
      </trkpt>
      <trkpt lat="59.8288806" lon="14.9844271">
        <ele>212.2</ele>
        <time>2012-07-21T19:59:28Z</time>
      </trkpt>
      <trkpt lat="59.8287769" lon="14.9840572">
        <ele>212.4</ele>
        <time>2012-07-21T19:59:32Z</time>
      </trkpt>
      <trkpt lat="59.8286909" lon="14.983784">
        <ele>213.6</ele>
        <time>2012-07-21T19:59:35Z</time>
      </trkpt>
      <trkpt lat="59.8285661" lon="14.9834377">
        <ele>216.6</ele>
        <time>2012-07-21T19:59:39Z</time>
      </trkpt>
      <trkpt lat="59.8284758" lon="14.9831667">
        <ele>215.4</ele>
        <time>2012-07-21T19:59:42Z</time>
      </trkpt>
      <trkpt lat="59.8282458" lon="14.9824934">
        <ele>216.8</ele>
        <time>2012-07-21T19:59:49Z</time>
      </trkpt>
      <trkpt lat="59.8280196" lon="14.9818183">
        <ele>219.2</ele>
        <time>2012-07-21T19:59:56Z</time>
      </trkpt>
      <trkpt lat="59.8278134" lon="14.9812032">
        <ele>222.6</ele>
        <time>2012-07-21T20:00:03Z</time>
      </trkpt>
      <trkpt lat="59.827598" lon="14.9805153">
        <ele>218</ele>
        <time>2012-07-21T20:00:11Z</time>
      </trkpt>
      <trkpt lat="59.8273807" lon="14.9798232">
        <ele>216.2</ele>
        <time>2012-07-21T20:00:18Z</time>
      </trkpt>
      <trkpt lat="59.8271851" lon="14.9791821">
        <ele>216.2</ele>
        <time>2012-07-21T20:00:24Z</time>
      </trkpt>
      <trkpt lat="59.8269902" lon="14.9785698">
        <ele>219.2</ele>
        <time>2012-07-21T20:00:31Z</time>
      </trkpt>
      <trkpt lat="59.8267948" lon="14.9779183">
        <ele>221</ele>
        <time>2012-07-21T20:00:39Z</time>
      </trkpt>
      <trkpt lat="59.8265831" lon="14.9772689">
        <ele>223.8</ele>
        <time>2012-07-21T20:00:49Z</time>
      </trkpt>
      <trkpt lat="59.8264021" lon="14.9767096">
        <ele>226.4</ele>
        <time>2012-07-21T20:00:57Z</time>
      </trkpt>
      <trkpt lat="59.8261414" lon="14.9761177">
        <ele>226.6</ele>
        <time>2012-07-21T20:01:05Z</time>
      </trkpt>
      <trkpt lat="59.8258332" lon="14.9755478">
        <ele>224.6</ele>
        <time>2012-07-21T20:01:12Z</time>
      </trkpt>
      <trkpt lat="59.8255089" lon="14.9749852">
        <ele>222.4</ele>
        <time>2012-07-21T20:01:19Z</time>
      </trkpt>
      <trkpt lat="59.8252415" lon="14.9745277">
        <ele>222.8</ele>
        <time>2012-07-21T20:01:25Z</time>
      </trkpt>
      <trkpt lat="59.8249344" lon="14.9739961">
        <ele>222.6</ele>
        <time>2012-07-21T20:01:31Z</time>
      </trkpt>
      <trkpt lat="59.8246461" lon="14.9734684">
        <ele>224.2</ele>
        <time>2012-07-21T20:01:37Z</time>
      </trkpt>
      <trkpt lat="59.8243587" lon="14.9729608">
        <ele>224.4</ele>
        <time>2012-07-21T20:01:43Z</time>
      </trkpt>
      <trkpt lat="59.8240553" lon="14.9724932">
        <ele>226</ele>
        <time>2012-07-21T20:01:49Z</time>
      </trkpt>
      <trkpt lat="59.8237266" lon="14.9720543">
        <ele>227.6</ele>
        <time>2012-07-21T20:01:55Z</time>
      </trkpt>
      <trkpt lat="59.8233843" lon="14.9715962">
        <ele>227</ele>
        <time>2012-07-21T20:02:01Z</time>
      </trkpt>
      <trkpt lat="59.8230534" lon="14.9711678">
        <ele>226.4</ele>
        <time>2012-07-21T20:02:07Z</time>
      </trkpt>
      <trkpt lat="59.822718" lon="14.9707019">
        <ele>227.6</ele>
        <time>2012-07-21T20:02:14Z</time>
      </trkpt>
      <trkpt lat="59.8223897" lon="14.9702649">
        <ele>229.6</ele>
        <time>2012-07-21T20:02:21Z</time>
      </trkpt>
      <trkpt lat="59.8222211" lon="14.9699413">
        <ele>230.4</ele>
        <time>2012-07-21T20:02:25Z</time>
      </trkpt>
      <trkpt lat="59.8221467" lon="14.9697539">
        <ele>230.8</ele>
        <time>2012-07-21T20:02:27Z</time>
      </trkpt>
      <trkpt lat="59.8221138" lon="14.9696455">
        <ele>230.6</ele>
        <time>2012-07-21T20:02:28Z</time>
      </trkpt>
      <trkpt lat="59.8219788" lon="14.9691248">
        <ele>230.4</ele>
        <time>2012-07-21T20:02:32Z</time>
      </trkpt>
      <trkpt lat="59.8217838" lon="14.9683842">
        <ele>229</ele>
        <time>2012-07-21T20:02:37Z</time>
      </trkpt>
      <trkpt lat="59.8215736" lon="14.9677181">
        <ele>230.4</ele>
        <time>2012-07-21T20:02:42Z</time>
      </trkpt>
      <trkpt lat="59.8213616" lon="14.9671599">
        <ele>233</ele>
        <time>2012-07-21T20:02:47Z</time>
      </trkpt>
      <trkpt lat="59.8211367" lon="14.9666334">
        <ele>235.8</ele>
        <time>2012-07-21T20:02:52Z</time>
      </trkpt>
      <trkpt lat="59.8208918" lon="14.9660814">
        <ele>237.8</ele>
        <time>2012-07-21T20:02:57Z</time>
      </trkpt>
      <trkpt lat="59.8206487" lon="14.9655041">
        <ele>240.4</ele>
        <time>2012-07-21T20:03:02Z</time>
      </trkpt>
      <trkpt lat="59.8203999" lon="14.9649374">
        <ele>242.8</ele>
        <time>2012-07-21T20:03:07Z</time>
      </trkpt>
      <trkpt lat="59.8201316" lon="14.9644297">
        <ele>245.2</ele>
        <time>2012-07-21T20:03:12Z</time>
      </trkpt>
      <trkpt lat="59.8198028" lon="14.9639589">
        <ele>246.4</ele>
        <time>2012-07-21T20:03:18Z</time>
      </trkpt>
      <trkpt lat="59.8194562" lon="14.9635491">
        <ele>247.2</ele>
        <time>2012-07-21T20:03:24Z</time>
      </trkpt>
      <trkpt lat="59.8190967" lon="14.9631241">
        <ele>246</ele>
        <time>2012-07-21T20:03:30Z</time>
      </trkpt>
      <trkpt lat="59.8187777" lon="14.9627634">
        <ele>246.2</ele>
        <time>2012-07-21T20:03:35Z</time>
      </trkpt>
      <trkpt lat="59.8184386" lon="14.9623855">
        <ele>246.4</ele>
        <time>2012-07-21T20:03:41Z</time>
      </trkpt>
      <trkpt lat="59.8180875" lon="14.9619584">
        <ele>246.6</ele>
        <time>2012-07-21T20:03:47Z</time>
      </trkpt>
      <trkpt lat="59.8177506" lon="14.9615237">
        <ele>246.6</ele>
        <time>2012-07-21T20:03:53Z</time>
      </trkpt>
      <trkpt lat="59.8174153" lon="14.9610766">
        <ele>246.2</ele>
        <time>2012-07-21T20:03:59Z</time>
      </trkpt>
      <trkpt lat="59.817122" lon="14.960495">
        <ele>246.6</ele>
        <time>2012-07-21T20:04:05Z</time>
      </trkpt>
      <trkpt lat="59.8170465" lon="14.9602735">
        <ele>246.4</ele>
        <time>2012-07-21T20:04:07Z</time>
      </trkpt>
      <trkpt lat="59.8169827" lon="14.9600229">
        <ele>244.2</ele>
        <time>2012-07-21T20:04:09Z</time>
      </trkpt>
      <trkpt lat="59.8169322" lon="14.9597556">
        <ele>244.2</ele>
        <time>2012-07-21T20:04:11Z</time>
      </trkpt>
      <trkpt lat="59.8168041" lon="14.9589615">
        <ele>246.4</ele>
        <time>2012-07-21T20:04:17Z</time>
      </trkpt>
      <trkpt lat="59.8166823" lon="14.9581824">
        <ele>248.4</ele>
        <time>2012-07-21T20:04:23Z</time>
      </trkpt>
      <trkpt lat="59.8166232" lon="14.957376">
        <ele>252.4</ele>
        <time>2012-07-21T20:04:29Z</time>
      </trkpt>
      <trkpt lat="59.8166124" lon="14.9565549">
        <ele>255.4</ele>
        <time>2012-07-21T20:04:35Z</time>
      </trkpt>
      <trkpt lat="59.8165929" lon="14.9558264">
        <ele>255.2</ele>
        <time>2012-07-21T20:04:40Z</time>
      </trkpt>
      <trkpt lat="59.8165846" lon="14.9550378">
        <ele>253.2</ele>
        <time>2012-07-21T20:04:45Z</time>
      </trkpt>
      <trkpt lat="59.8165928" lon="14.9541753">
        <ele>249.8</ele>
        <time>2012-07-21T20:04:50Z</time>
      </trkpt>
      <trkpt lat="59.8165949" lon="14.9534557">
        <ele>246.8</ele>
        <time>2012-07-21T20:04:54Z</time>
      </trkpt>
      <trkpt lat="59.8165917" lon="14.952688">
        <ele>244</ele>
        <time>2012-07-21T20:04:58Z</time>
      </trkpt>
      <trkpt lat="59.8165501" lon="14.9518671">
        <ele>241</ele>
        <time>2012-07-21T20:05:02Z</time>
      </trkpt>
      <trkpt lat="59.8164089" lon="14.9510092">
        <ele>237.8</ele>
        <time>2012-07-21T20:05:06Z</time>
      </trkpt>
      <trkpt lat="59.8162022" lon="14.9501798">
        <ele>235.2</ele>
        <time>2012-07-21T20:05:10Z</time>
      </trkpt>
      <trkpt lat="59.8160571" lon="14.9492941">
        <ele>231.4</ele>
        <time>2012-07-21T20:05:14Z</time>
      </trkpt>
      <trkpt lat="59.8159679" lon="14.9483931">
        <ele>229.2</ele>
        <time>2012-07-21T20:05:18Z</time>
      </trkpt>
      <trkpt lat="59.8159017" lon="14.9474992">
        <ele>227.6</ele>
        <time>2012-07-21T20:05:22Z</time>
      </trkpt>
      <trkpt lat="59.8158169" lon="14.9465792">
        <ele>225.8</ele>
        <time>2012-07-21T20:05:26Z</time>
      </trkpt>
      <trkpt lat="59.8157136" lon="14.9458756">
        <ele>223.4</ele>
        <time>2012-07-21T20:05:29Z</time>
      </trkpt>
      <trkpt lat="59.8156179" lon="14.9451515">
        <ele>222</ele>
        <time>2012-07-21T20:05:32Z</time>
      </trkpt>
      <trkpt lat="59.8155374" lon="14.944418">
        <ele>219.6</ele>
        <time>2012-07-21T20:05:35Z</time>
      </trkpt>
      <trkpt lat="59.815464" lon="14.9436824">
        <ele>218.2</ele>
        <time>2012-07-21T20:05:38Z</time>
      </trkpt>
      <trkpt lat="59.8153841" lon="14.9429292">
        <ele>216</ele>
        <time>2012-07-21T20:05:41Z</time>
      </trkpt>
      <trkpt lat="59.8153133" lon="14.9422122">
        <ele>215.4</ele>
        <time>2012-07-21T20:05:44Z</time>
      </trkpt>
      <trkpt lat="59.8152354" lon="14.9413713">
        <ele>214.2</ele>
        <time>2012-07-21T20:05:48Z</time>
      </trkpt>
      <trkpt lat="59.8151537" lon="14.9405931">
        <ele>214</ele>
        <time>2012-07-21T20:05:52Z</time>
      </trkpt>
      <trkpt lat="59.8150709" lon="14.939857">
        <ele>214.6</ele>
        <time>2012-07-21T20:05:56Z</time>
      </trkpt>
      <trkpt lat="59.8149941" lon="14.9391209">
        <ele>215.2</ele>
        <time>2012-07-21T20:06:00Z</time>
      </trkpt>
      <trkpt lat="59.8149165" lon="14.9384065">
        <ele>216.4</ele>
        <time>2012-07-21T20:06:04Z</time>
      </trkpt>
      <trkpt lat="59.814823" lon="14.9375886">
        <ele>218</ele>
        <time>2012-07-21T20:06:09Z</time>
      </trkpt>
      <trkpt lat="59.8147426" lon="14.9367576">
        <ele>216.2</ele>
        <time>2012-07-21T20:06:14Z</time>
      </trkpt>
      <trkpt lat="59.8146977" lon="14.9359158">
        <ele>215.2</ele>
        <time>2012-07-21T20:06:19Z</time>
      </trkpt>
      <trkpt lat="59.8146913" lon="14.9351948">
        <ele>213.8</ele>
        <time>2012-07-21T20:06:23Z</time>
      </trkpt>
      <trkpt lat="59.8147145" lon="14.9344782">
        <ele>211</ele>
        <time>2012-07-21T20:06:27Z</time>
      </trkpt>
      <trkpt lat="59.8147196" lon="14.9341102">
        <ele>209.6</ele>
        <time>2012-07-21T20:06:29Z</time>
      </trkpt>
      <trkpt lat="59.8147384" lon="14.9337029">
        <ele>208.8</ele>
        <time>2012-07-21T20:06:31Z</time>
      </trkpt>
      <trkpt lat="59.814748" lon="14.9329114">
        <ele>206.6</ele>
        <time>2012-07-21T20:06:35Z</time>
      </trkpt>
      <trkpt lat="59.8147155" lon="14.9320765">
        <ele>203.6</ele>
        <time>2012-07-21T20:06:39Z</time>
      </trkpt>
      <trkpt lat="59.8145846" lon="14.9312314">
        <ele>200.6</ele>
        <time>2012-07-21T20:06:43Z</time>
      </trkpt>
      <trkpt lat="59.8143766" lon="14.930441">
        <ele>196.8</ele>
        <time>2012-07-21T20:06:47Z</time>
      </trkpt>
      <trkpt lat="59.8141577" lon="14.9296641">
        <ele>193.4</ele>
        <time>2012-07-21T20:06:51Z</time>
      </trkpt>
      <trkpt lat="59.8139352" lon="14.9289512">
        <ele>191.6</ele>
        <time>2012-07-21T20:06:55Z</time>
      </trkpt>
      <trkpt lat="59.8136478" lon="14.9283633">
        <ele>190.2</ele>
        <time>2012-07-21T20:06:59Z</time>
      </trkpt>
      <trkpt lat="59.8132739" lon="14.927937">
        <ele>186.6</ele>
        <time>2012-07-21T20:07:03Z</time>
      </trkpt>
      <trkpt lat="59.8128584" lon="14.9276644">
        <ele>183</ele>
        <time>2012-07-21T20:07:07Z</time>
      </trkpt>
      <trkpt lat="59.8124136" lon="14.9274759">
        <ele>180.6</ele>
        <time>2012-07-21T20:07:11Z</time>
      </trkpt>
      <trkpt lat="59.8119628" lon="14.9272027">
        <ele>178.6</ele>
        <time>2012-07-21T20:07:15Z</time>
      </trkpt>
      <trkpt lat="59.8115625" lon="14.9267158">
        <ele>175.6</ele>
        <time>2012-07-21T20:07:19Z</time>
      </trkpt>
      <trkpt lat="59.8112464" lon="14.9260417">
        <ele>173</ele>
        <time>2012-07-21T20:07:23Z</time>
      </trkpt>
      <trkpt lat="59.810958" lon="14.9253115">
        <ele>170.8</ele>
        <time>2012-07-21T20:07:27Z</time>
      </trkpt>
      <trkpt lat="59.8106652" lon="14.9245642">
        <ele>168.6</ele>
        <time>2012-07-21T20:07:31Z</time>
      </trkpt>
      <trkpt lat="59.8103731" lon="14.9238461">
        <ele>166.2</ele>
        <time>2012-07-21T20:07:35Z</time>
      </trkpt>
      <trkpt lat="59.8101107" lon="14.9231903">
        <ele>164.4</ele>
        <time>2012-07-21T20:07:39Z</time>
      </trkpt>
      <trkpt lat="59.8098514" lon="14.9225481">
        <ele>162</ele>
        <time>2012-07-21T20:07:43Z</time>
      </trkpt>
      <trkpt lat="59.8095784" lon="14.9218699">
        <ele>159.2</ele>
        <time>2012-07-21T20:07:47Z</time>
      </trkpt>
      <trkpt lat="59.8093022" lon="14.9211891">
        <ele>158</ele>
        <time>2012-07-21T20:07:51Z</time>
      </trkpt>
      <trkpt lat="59.8090569" lon="14.9205822">
        <ele>158.4</ele>
        <time>2012-07-21T20:07:55Z</time>
      </trkpt>
      <trkpt lat="59.8088132" lon="14.9199233">
        <ele>160.2</ele>
        <time>2012-07-21T20:08:00Z</time>
      </trkpt>
      <trkpt lat="59.8086717" lon="14.9192696">
        <ele>163.4</ele>
        <time>2012-07-21T20:08:05Z</time>
      </trkpt>
      <trkpt lat="59.8086506" lon="14.9190042">
        <ele>165.4</ele>
        <time>2012-07-21T20:08:07Z</time>
      </trkpt>
      <trkpt lat="59.8086386" lon="14.9184655">
        <ele>167.8</ele>
        <time>2012-07-21T20:08:11Z</time>
      </trkpt>
      <trkpt lat="59.8086341" lon="14.9176488">
        <ele>170.8</ele>
        <time>2012-07-21T20:08:17Z</time>
      </trkpt>
      <trkpt lat="59.8086283" lon="14.9169339">
        <ele>172.2</ele>
        <time>2012-07-21T20:08:22Z</time>
      </trkpt>
      <trkpt lat="59.8086147" lon="14.9161445">
        <ele>171.8</ele>
        <time>2012-07-21T20:08:27Z</time>
      </trkpt>
      <trkpt lat="59.8086041" lon="14.9152556">
        <ele>170.2</ele>
        <time>2012-07-21T20:08:32Z</time>
      </trkpt>
      <trkpt lat="59.8085921" lon="14.9144987">
        <ele>168.6</ele>
        <time>2012-07-21T20:08:36Z</time>
      </trkpt>
      <trkpt lat="59.8085827" lon="14.9137578">
        <ele>169.2</ele>
        <time>2012-07-21T20:08:40Z</time>
      </trkpt>
      <trkpt lat="59.8085823" lon="14.9128827">
        <ele>170</ele>
        <time>2012-07-21T20:08:45Z</time>
      </trkpt>
      <trkpt lat="59.8085859" lon="14.9121065">
        <ele>171.2</ele>
        <time>2012-07-21T20:08:50Z</time>
      </trkpt>
      <trkpt lat="59.8085921" lon="14.9113677">
        <ele>172</ele>
        <time>2012-07-21T20:08:55Z</time>
      </trkpt>
      <trkpt lat="59.8085878" lon="14.9106432">
        <ele>172.6</ele>
        <time>2012-07-21T20:09:00Z</time>
      </trkpt>
      <trkpt lat="59.8085867" lon="14.9099198">
        <ele>172.8</ele>
        <time>2012-07-21T20:09:05Z</time>
      </trkpt>
      <trkpt lat="59.8085881" lon="14.9092047">
        <ele>174.6</ele>
        <time>2012-07-21T20:09:10Z</time>
      </trkpt>
      <trkpt lat="59.8085832" lon="14.9084924">
        <ele>175.8</ele>
        <time>2012-07-21T20:09:15Z</time>
      </trkpt>
      <trkpt lat="59.8085859" lon="14.9077801">
        <ele>177.8</ele>
        <time>2012-07-21T20:09:20Z</time>
      </trkpt>
      <trkpt lat="59.8085833" lon="14.9069963">
        <ele>180.2</ele>
        <time>2012-07-21T20:09:26Z</time>
      </trkpt>
      <trkpt lat="59.8085957" lon="14.9062787">
        <ele>183.6</ele>
        <time>2012-07-21T20:09:32Z</time>
      </trkpt>
      <trkpt lat="59.8086119" lon="14.9055735">
        <ele>186.4</ele>
        <time>2012-07-21T20:09:38Z</time>
      </trkpt>
      <trkpt lat="59.8086081" lon="14.9047332">
        <ele>189.2</ele>
        <time>2012-07-21T20:09:44Z</time>
      </trkpt>
      <trkpt lat="59.8086196" lon="14.9039209">
        <ele>191.6</ele>
        <time>2012-07-21T20:09:50Z</time>
      </trkpt>
      <trkpt lat="59.8087154" lon="14.9031896">
        <ele>194.6</ele>
        <time>2012-07-21T20:09:56Z</time>
      </trkpt>
      <trkpt lat="59.8088818" lon="14.902496">
        <ele>196.4</ele>
        <time>2012-07-21T20:10:03Z</time>
      </trkpt>
      <trkpt lat="59.8089779" lon="14.9021229">
        <ele>197</ele>
        <time>2012-07-21T20:10:07Z</time>
      </trkpt>
      <trkpt lat="59.8090703" lon="14.9017837">
        <ele>196.6</ele>
        <time>2012-07-21T20:10:11Z</time>
      </trkpt>
      <trkpt lat="59.8091878" lon="14.9013588">
        <ele>196</ele>
        <time>2012-07-21T20:10:16Z</time>
      </trkpt>
      <trkpt lat="59.8092613" lon="14.9010793">
        <ele>195.8</ele>
        <time>2012-07-21T20:10:19Z</time>
      </trkpt>
      <trkpt lat="59.8094515" lon="14.9003207">
        <ele>195.4</ele>
        <time>2012-07-21T20:10:26Z</time>
      </trkpt>
      <trkpt lat="59.8096318" lon="14.8996463">
        <ele>195.4</ele>
        <time>2012-07-21T20:10:32Z</time>
      </trkpt>
      <trkpt lat="59.8098399" lon="14.8988966">
        <ele>193.8</ele>
        <time>2012-07-21T20:10:38Z</time>
      </trkpt>
      <trkpt lat="59.8100224" lon="14.8982273">
        <ele>192.4</ele>
        <time>2012-07-21T20:10:43Z</time>
      </trkpt>
      <trkpt lat="59.8102167" lon="14.8975325">
        <ele>192</ele>
        <time>2012-07-21T20:10:48Z</time>
      </trkpt>
      <trkpt lat="59.8104355" lon="14.896792">
        <ele>191</ele>
        <time>2012-07-21T20:10:53Z</time>
      </trkpt>
      <trkpt lat="59.8106484" lon="14.8960667">
        <ele>190</ele>
        <time>2012-07-21T20:10:58Z</time>
      </trkpt>
      <trkpt lat="59.810861" lon="14.8953838">
        <ele>188.2</ele>
        <time>2012-07-21T20:11:03Z</time>
      </trkpt>
      <trkpt lat="59.8110659" lon="14.8946458">
        <ele>188</ele>
        <time>2012-07-21T20:11:08Z</time>
      </trkpt>
      <trkpt lat="59.8112683" lon="14.8939145">
        <ele>187.8</ele>
        <time>2012-07-21T20:11:13Z</time>
      </trkpt>
      <trkpt lat="59.8114632" lon="14.8931423">
        <ele>187.2</ele>
        <time>2012-07-21T20:11:18Z</time>
      </trkpt>
      <trkpt lat="59.8116156" lon="14.8923596">
        <ele>187.6</ele>
        <time>2012-07-21T20:11:23Z</time>
      </trkpt>
      <trkpt lat="59.8117177" lon="14.8916217">
        <ele>189.2</ele>
        <time>2012-07-21T20:11:28Z</time>
      </trkpt>
      <trkpt lat="59.8117801" lon="14.8908962">
        <ele>191.2</ele>
        <time>2012-07-21T20:11:33Z</time>
      </trkpt>
      <trkpt lat="59.8118193" lon="14.8901285">
        <ele>193.8</ele>
        <time>2012-07-21T20:11:38Z</time>
      </trkpt>
      <trkpt lat="59.8118462" lon="14.8893715">
        <ele>195.2</ele>
        <time>2012-07-21T20:11:43Z</time>
      </trkpt>
      <trkpt lat="59.8118728" lon="14.8886029">
        <ele>195.8</ele>
        <time>2012-07-21T20:11:48Z</time>
      </trkpt>
      <trkpt lat="59.8118856" lon="14.8878415">
        <ele>197.2</ele>
        <time>2012-07-21T20:11:53Z</time>
      </trkpt>
      <trkpt lat="59.8119035" lon="14.8871038">
        <ele>198.4</ele>
        <time>2012-07-21T20:11:58Z</time>
      </trkpt>
      <trkpt lat="59.8119232" lon="14.886337">
        <ele>198.4</ele>
        <time>2012-07-21T20:12:03Z</time>
      </trkpt>
      <trkpt lat="59.8119353" lon="14.8854869">
        <ele>196.6</ele>
        <time>2012-07-21T20:12:08Z</time>
      </trkpt>
      <trkpt lat="59.811951" lon="14.8846132">
        <ele>195.4</ele>
        <time>2012-07-21T20:12:13Z</time>
      </trkpt>
      <trkpt lat="59.8119347" lon="14.8837642">
        <ele>197</ele>
        <time>2012-07-21T20:12:18Z</time>
      </trkpt>
      <trkpt lat="59.8118954" lon="14.8830348">
        <ele>198.6</ele>
        <time>2012-07-21T20:12:23Z</time>
      </trkpt>
      <trkpt lat="59.8118342" lon="14.8823237">
        <ele>200.8</ele>
        <time>2012-07-21T20:12:28Z</time>
      </trkpt>
      <trkpt lat="59.8117633" lon="14.8815269">
        <ele>201.6</ele>
        <time>2012-07-21T20:12:33Z</time>
      </trkpt>
      <trkpt lat="59.8117386" lon="14.8807404">
        <ele>202.6</ele>
        <time>2012-07-21T20:12:38Z</time>
      </trkpt>
      <trkpt lat="59.8117775" lon="14.8799315">
        <ele>201.2</ele>
        <time>2012-07-21T20:12:43Z</time>
      </trkpt>
      <trkpt lat="59.8118057" lon="14.8791383">
        <ele>200.6</ele>
        <time>2012-07-21T20:12:48Z</time>
      </trkpt>
      <trkpt lat="59.8117982" lon="14.8783326">
        <ele>200</ele>
        <time>2012-07-21T20:12:53Z</time>
      </trkpt>
      <trkpt lat="59.8117665" lon="14.8775577">
        <ele>196.6</ele>
        <time>2012-07-21T20:12:58Z</time>
      </trkpt>
      <trkpt lat="59.8116743" lon="14.8768009">
        <ele>196</ele>
        <time>2012-07-21T20:13:03Z</time>
      </trkpt>
      <trkpt lat="59.8115462" lon="14.8760215">
        <ele>195.6</ele>
        <time>2012-07-21T20:13:08Z</time>
      </trkpt>
      <trkpt lat="59.8114101" lon="14.8751984">
        <ele>194.2</ele>
        <time>2012-07-21T20:13:13Z</time>
      </trkpt>
      <trkpt lat="59.8112858" lon="14.8744887">
        <ele>193.4</ele>
        <time>2012-07-21T20:13:17Z</time>
      </trkpt>
      <trkpt lat="59.811131" lon="14.8738066">
        <ele>193</ele>
        <time>2012-07-21T20:13:21Z</time>
      </trkpt>
      <trkpt lat="59.8109485" lon="14.8731676">
        <ele>191.2</ele>
        <time>2012-07-21T20:13:25Z</time>
      </trkpt>
      <trkpt lat="59.8106673" lon="14.8724867">
        <ele>191.2</ele>
        <time>2012-07-21T20:13:30Z</time>
      </trkpt>
      <trkpt lat="59.8103285" lon="14.8719146">
        <ele>190</ele>
        <time>2012-07-21T20:13:35Z</time>
      </trkpt>
      <trkpt lat="59.8099765" lon="14.8714582">
        <ele>187.4</ele>
        <time>2012-07-21T20:13:40Z</time>
      </trkpt>
      <trkpt lat="59.8096306" lon="14.871132">
        <ele>187.2</ele>
        <time>2012-07-21T20:13:45Z</time>
      </trkpt>
      <trkpt lat="59.8092655" lon="14.8708485">
        <ele>187.8</ele>
        <time>2012-07-21T20:13:51Z</time>
      </trkpt>
      <trkpt lat="59.8089032" lon="14.8705443">
        <ele>189.4</ele>
        <time>2012-07-21T20:13:58Z</time>
      </trkpt>
      <trkpt lat="59.8087672" lon="14.8704449">
        <ele>190.4</ele>
        <time>2012-07-21T20:14:01Z</time>
      </trkpt>
      <trkpt lat="59.8085394" lon="14.8702771">
        <ele>192.4</ele>
        <time>2012-07-21T20:14:06Z</time>
      </trkpt>
      <trkpt lat="59.8082015" lon="14.870024">
        <ele>195.4</ele>
        <time>2012-07-21T20:14:13Z</time>
      </trkpt>
      <trkpt lat="59.807859" lon="14.8697554">
        <ele>196.6</ele>
        <time>2012-07-21T20:14:21Z</time>
      </trkpt>
      <trkpt lat="59.807515" lon="14.869492">
        <ele>196</ele>
        <time>2012-07-21T20:14:29Z</time>
      </trkpt>
      <trkpt lat="59.8071822" lon="14.8692392">
        <ele>195.4</ele>
        <time>2012-07-21T20:14:36Z</time>
      </trkpt>
      <trkpt lat="59.8068184" lon="14.8689295">
        <ele>198</ele>
        <time>2012-07-21T20:14:43Z</time>
      </trkpt>
      <trkpt lat="59.8064836" lon="14.8685451">
        <ele>196.8</ele>
        <time>2012-07-21T20:14:49Z</time>
      </trkpt>
      <trkpt lat="59.8061863" lon="14.8680835">
        <ele>196.4</ele>
        <time>2012-07-21T20:14:54Z</time>
      </trkpt>
      <trkpt lat="59.8058648" lon="14.8675147">
        <ele>197.6</ele>
        <time>2012-07-21T20:15:00Z</time>
      </trkpt>
      <trkpt lat="59.8055784" lon="14.8669925">
        <ele>197</ele>
        <time>2012-07-21T20:15:05Z</time>
      </trkpt>
      <trkpt lat="59.8052793" lon="14.866441">
        <ele>195</ele>
        <time>2012-07-21T20:15:10Z</time>
      </trkpt>
      <trkpt lat="59.805005" lon="14.8658867">
        <ele>196.2</ele>
        <time>2012-07-21T20:15:15Z</time>
      </trkpt>
      <trkpt lat="59.804739" lon="14.8652205">
        <ele>197.8</ele>
        <time>2012-07-21T20:15:21Z</time>
      </trkpt>
      <trkpt lat="59.8045615" lon="14.8645651">
        <ele>199</ele>
        <time>2012-07-21T20:15:26Z</time>
      </trkpt>
      <trkpt lat="59.8044434" lon="14.8638814">
        <ele>199</ele>
        <time>2012-07-21T20:15:31Z</time>
      </trkpt>
      <trkpt lat="59.8043459" lon="14.8630697">
        <ele>200.8</ele>
        <time>2012-07-21T20:15:37Z</time>
      </trkpt>
      <trkpt lat="59.804263" lon="14.862271">
        <ele>201.2</ele>
        <time>2012-07-21T20:15:43Z</time>
      </trkpt>
      <trkpt lat="59.8041715" lon="14.8614799">
        <ele>201</ele>
        <time>2012-07-21T20:15:48Z</time>
      </trkpt>
      <trkpt lat="59.8040734" lon="14.8606293">
        <ele>201.2</ele>
        <time>2012-07-21T20:15:53Z</time>
      </trkpt>
      <trkpt lat="59.8039777" lon="14.8597692">
        <ele>202</ele>
        <time>2012-07-21T20:15:58Z</time>
      </trkpt>
      <trkpt lat="59.8038804" lon="14.8589059">
        <ele>202</ele>
        <time>2012-07-21T20:16:03Z</time>
      </trkpt>
      <trkpt lat="59.803785" lon="14.8580615">
        <ele>202.6</ele>
        <time>2012-07-21T20:16:08Z</time>
      </trkpt>
      <trkpt lat="59.8036972" lon="14.8572768">
        <ele>203</ele>
        <time>2012-07-21T20:16:13Z</time>
      </trkpt>
      <trkpt lat="59.8036113" lon="14.8564635">
        <ele>203.4</ele>
        <time>2012-07-21T20:16:18Z</time>
      </trkpt>
      <trkpt lat="59.8035912" lon="14.8555746">
        <ele>203.8</ele>
        <time>2012-07-21T20:16:23Z</time>
      </trkpt>
      <trkpt lat="59.8036379" lon="14.854802">
        <ele>202.8</ele>
        <time>2012-07-21T20:16:27Z</time>
      </trkpt>
      <trkpt lat="59.8037378" lon="14.8540521">
        <ele>201.8</ele>
        <time>2012-07-21T20:16:31Z</time>
      </trkpt>
      <trkpt lat="59.8038772" lon="14.8533725">
        <ele>199.8</ele>
        <time>2012-07-21T20:16:35Z</time>
      </trkpt>
      <trkpt lat="59.8040839" lon="14.8525725">
        <ele>197.4</ele>
        <time>2012-07-21T20:16:40Z</time>
      </trkpt>
      <trkpt lat="59.8042557" lon="14.8518893">
        <ele>195</ele>
        <time>2012-07-21T20:16:44Z</time>
      </trkpt>
      <trkpt lat="59.8044061" lon="14.8511524">
        <ele>192</ele>
        <time>2012-07-21T20:16:48Z</time>
      </trkpt>
      <trkpt lat="59.8045371" lon="14.8503722">
        <ele>189.2</ele>
        <time>2012-07-21T20:16:52Z</time>
      </trkpt>
      <trkpt lat="59.80464" lon="14.8496227">
        <ele>188.2</ele>
        <time>2012-07-21T20:16:56Z</time>
      </trkpt>
      <trkpt lat="59.8047323" lon="14.8490796">
        <ele>186.6</ele>
        <time>2012-07-21T20:16:59Z</time>
      </trkpt>
      <trkpt lat="59.8047806" lon="14.8489042">
        <ele>186</ele>
        <time>2012-07-21T20:17:00Z</time>
      </trkpt>
      <trkpt lat="59.8050655" lon="14.8483189">
        <ele>183.4</ele>
        <time>2012-07-21T20:17:04Z</time>
      </trkpt>
      <trkpt lat="59.8051497" lon="14.8481981">
        <ele>183</ele>
        <time>2012-07-21T20:17:05Z</time>
      </trkpt>
      <trkpt lat="59.8054049" lon="14.8478429">
        <ele>181.6</ele>
        <time>2012-07-21T20:17:08Z</time>
      </trkpt>
      <trkpt lat="59.8057239" lon="14.8473409">
        <ele>179.6</ele>
        <time>2012-07-21T20:17:12Z</time>
      </trkpt>
      <trkpt lat="59.8060369" lon="14.846819">
        <ele>177.8</ele>
        <time>2012-07-21T20:17:16Z</time>
      </trkpt>
      <trkpt lat="59.8063357" lon="14.8462407">
        <ele>175.8</ele>
        <time>2012-07-21T20:17:20Z</time>
      </trkpt>
      <trkpt lat="59.8064775" lon="14.8459366">
        <ele>175</ele>
        <time>2012-07-21T20:17:22Z</time>
      </trkpt>
      <trkpt lat="59.8065921" lon="14.8455898">
        <ele>174</ele>
        <time>2012-07-21T20:17:24Z</time>
      </trkpt>
      <trkpt lat="59.8066823" lon="14.8451957">
        <ele>173.2</ele>
        <time>2012-07-21T20:17:26Z</time>
      </trkpt>
      <trkpt lat="59.8067623" lon="14.844792">
        <ele>172.4</ele>
        <time>2012-07-21T20:17:28Z</time>
      </trkpt>
      <trkpt lat="59.8068992" lon="14.8439997">
        <ele>171</ele>
        <time>2012-07-21T20:17:32Z</time>
      </trkpt>
      <trkpt lat="59.8070329" lon="14.843247">
        <ele>169.8</ele>
        <time>2012-07-21T20:17:36Z</time>
      </trkpt>
      <trkpt lat="59.8071602" lon="14.8425553">
        <ele>171.6</ele>
        <time>2012-07-21T20:17:40Z</time>
      </trkpt>
      <trkpt lat="59.8072922" lon="14.841782">
        <ele>173.6</ele>
        <time>2012-07-21T20:17:45Z</time>
      </trkpt>
      <trkpt lat="59.8073537" lon="14.8409683">
        <ele>174.6</ele>
        <time>2012-07-21T20:17:50Z</time>
      </trkpt>
      <trkpt lat="59.8073539" lon="14.8406317">
        <ele>174</ele>
        <time>2012-07-21T20:17:52Z</time>
      </trkpt>
      <trkpt lat="59.8073343" lon="14.8402753">
        <ele>173.4</ele>
        <time>2012-07-21T20:17:54Z</time>
      </trkpt>
      <trkpt lat="59.807292" lon="14.839521">
        <ele>173</ele>
        <time>2012-07-21T20:17:58Z</time>
      </trkpt>
      <trkpt lat="59.807251" lon="14.8386336">
        <ele>172</ele>
        <time>2012-07-21T20:18:03Z</time>
      </trkpt>
      <trkpt lat="59.8071931" lon="14.837827">
        <ele>172.2</ele>
        <time>2012-07-21T20:18:08Z</time>
      </trkpt>
      <trkpt lat="59.807169" lon="14.8376799">
        <ele>172.2</ele>
        <time>2012-07-21T20:18:09Z</time>
      </trkpt>
      <trkpt lat="59.8070095" lon="14.8371817">
        <ele>172.8</ele>
        <time>2012-07-21T20:18:13Z</time>
      </trkpt>
      <trkpt lat="59.8069594" lon="14.83708">
        <ele>172.8</ele>
        <time>2012-07-21T20:18:14Z</time>
      </trkpt>
      <trkpt lat="59.8067003" lon="14.8366663">
        <ele>173.2</ele>
        <time>2012-07-21T20:18:19Z</time>
      </trkpt>
      <trkpt lat="59.8063832" lon="14.8362433">
        <ele>174.2</ele>
        <time>2012-07-21T20:18:25Z</time>
      </trkpt>
      <trkpt lat="59.8062843" lon="14.8361135">
        <ele>175.2</ele>
        <time>2012-07-21T20:18:27Z</time>
      </trkpt>
      <trkpt lat="59.8060772" lon="14.8358691">
        <ele>176.2</ele>
        <time>2012-07-21T20:18:31Z</time>
      </trkpt>
      <trkpt lat="59.8057938" lon="14.8354386">
        <ele>176.6</ele>
        <time>2012-07-21T20:18:37Z</time>
      </trkpt>
      <trkpt lat="59.8057462" lon="14.8353681">
        <ele>176.6</ele>
        <time>2012-07-21T20:18:38Z</time>
      </trkpt>
      <trkpt lat="59.8054696" lon="14.8349985">
        <ele>176.8</ele>
        <time>2012-07-21T20:18:43Z</time>
      </trkpt>
      <trkpt lat="59.8051447" lon="14.8344595">
        <ele>176.4</ele>
        <time>2012-07-21T20:18:49Z</time>
      </trkpt>
      <trkpt lat="59.8048723" lon="14.8338441">
        <ele>175.2</ele>
        <time>2012-07-21T20:18:54Z</time>
      </trkpt>
      <trkpt lat="59.8045946" lon="14.8331489">
        <ele>173.6</ele>
        <time>2012-07-21T20:18:59Z</time>
      </trkpt>
      <trkpt lat="59.8043703" lon="14.8325739">
        <ele>171.8</ele>
        <time>2012-07-21T20:19:03Z</time>
      </trkpt>
      <trkpt lat="59.8040479" lon="14.8319574">
        <ele>169.8</ele>
        <time>2012-07-21T20:19:08Z</time>
      </trkpt>
      <trkpt lat="59.8036886" lon="14.8314922">
        <ele>167.6</ele>
        <time>2012-07-21T20:19:13Z</time>
      </trkpt>
      <trkpt lat="59.8033318" lon="14.831054">
        <ele>166.8</ele>
        <time>2012-07-21T20:19:18Z</time>
      </trkpt>
      <trkpt lat="59.8029835" lon="14.8306219">
        <ele>167</ele>
        <time>2012-07-21T20:19:23Z</time>
      </trkpt>
      <trkpt lat="59.8026431" lon="14.8301896">
        <ele>167.8</ele>
        <time>2012-07-21T20:19:28Z</time>
      </trkpt>
      <trkpt lat="59.802316" lon="14.8297668">
        <ele>168.8</ele>
        <time>2012-07-21T20:19:33Z</time>
      </trkpt>
      <trkpt lat="59.802015" lon="14.8292519">
        <ele>169.4</ele>
        <time>2012-07-21T20:19:38Z</time>
      </trkpt>
      <trkpt lat="59.8017305" lon="14.8286711">
        <ele>170</ele>
        <time>2012-07-21T20:19:43Z</time>
      </trkpt>
      <trkpt lat="59.8014607" lon="14.8280579">
        <ele>169.8</ele>
        <time>2012-07-21T20:19:48Z</time>
      </trkpt>
      <trkpt lat="59.8011973" lon="14.8274899">
        <ele>171.4</ele>
        <time>2012-07-21T20:19:53Z</time>
      </trkpt>
      <trkpt lat="59.8009283" lon="14.8269995">
        <ele>173.6</ele>
        <time>2012-07-21T20:19:58Z</time>
      </trkpt>
      <trkpt lat="59.8007442" lon="14.8267271">
        <ele>174.2</ele>
        <time>2012-07-21T20:20:01Z</time>
      </trkpt>
      <trkpt lat="59.8006166" lon="14.8265615">
        <ele>173.8</ele>
        <time>2012-07-21T20:20:03Z</time>
      </trkpt>
      <trkpt lat="59.8002598" lon="14.8261246">
        <ele>173.4</ele>
        <time>2012-07-21T20:20:09Z</time>
      </trkpt>
      <trkpt lat="59.8002012" lon="14.8260454">
        <ele>173.6</ele>
        <time>2012-07-21T20:20:10Z</time>
      </trkpt>
      <trkpt lat="59.7999744" lon="14.8256707">
        <ele>172.6</ele>
        <time>2012-07-21T20:20:14Z</time>
      </trkpt>
      <trkpt lat="59.7997103" lon="14.8251595">
        <ele>173.8</ele>
        <time>2012-07-21T20:20:19Z</time>
      </trkpt>
      <trkpt lat="59.7994509" lon="14.8246288">
        <ele>173.8</ele>
        <time>2012-07-21T20:20:24Z</time>
      </trkpt>
      <trkpt lat="59.7992005" lon="14.8241099">
        <ele>174.2</ele>
        <time>2012-07-21T20:20:29Z</time>
      </trkpt>
      <trkpt lat="59.7989117" lon="14.8234953">
        <ele>174.8</ele>
        <time>2012-07-21T20:20:35Z</time>
      </trkpt>
      <trkpt lat="59.7988629" lon="14.8234206">
        <ele>174.4</ele>
        <time>2012-07-21T20:20:36Z</time>
      </trkpt>
      <trkpt lat="59.7986602" lon="14.8229643">
        <ele>176</ele>
        <time>2012-07-21T20:20:41Z</time>
      </trkpt>
      <trkpt lat="59.79844" lon="14.822326">
        <ele>176.6</ele>
        <time>2012-07-21T20:20:47Z</time>
      </trkpt>
      <trkpt lat="59.7982029" lon="14.8217065">
        <ele>179.6</ele>
        <time>2012-07-21T20:20:53Z</time>
      </trkpt>
      <trkpt lat="59.7979133" lon="14.8211353">
        <ele>181.4</ele>
        <time>2012-07-21T20:20:59Z</time>
      </trkpt>
      <trkpt lat="59.7976028" lon="14.820618">
        <ele>182.2</ele>
        <time>2012-07-21T20:21:05Z</time>
      </trkpt>
      <trkpt lat="59.7973047" lon="14.8200829">
        <ele>184.2</ele>
        <time>2012-07-21T20:21:11Z</time>
      </trkpt>
      <trkpt lat="59.7969908" lon="14.8194874">
        <ele>181</ele>
        <time>2012-07-21T20:21:17Z</time>
      </trkpt>
      <trkpt lat="59.7967053" lon="14.8190092">
        <ele>179.8</ele>
        <time>2012-07-21T20:21:22Z</time>
      </trkpt>
      <trkpt lat="59.7963957" lon="14.8185996">
        <ele>178.2</ele>
        <time>2012-07-21T20:21:27Z</time>
      </trkpt>
      <trkpt lat="59.796041" lon="14.8182401">
        <ele>174.8</ele>
        <time>2012-07-21T20:21:32Z</time>
      </trkpt>
      <trkpt lat="59.7956355" lon="14.8178876">
        <ele>172.8</ele>
        <time>2012-07-21T20:21:37Z</time>
      </trkpt>
      <trkpt lat="59.7952611" lon="14.8175401">
        <ele>171.6</ele>
        <time>2012-07-21T20:21:42Z</time>
      </trkpt>
      <trkpt lat="59.7949121" lon="14.8172221">
        <ele>171.6</ele>
        <time>2012-07-21T20:21:47Z</time>
      </trkpt>
      <trkpt lat="59.7945297" lon="14.8168861">
        <ele>171</ele>
        <time>2012-07-21T20:21:53Z</time>
      </trkpt>
      <trkpt lat="59.7941552" lon="14.8165395">
        <ele>170.8</ele>
        <time>2012-07-21T20:21:59Z</time>
      </trkpt>
      <trkpt lat="59.7937848" lon="14.8161861">
        <ele>170.4</ele>
        <time>2012-07-21T20:22:05Z</time>
      </trkpt>
      <trkpt lat="59.793461" lon="14.8158665">
        <ele>169.8</ele>
        <time>2012-07-21T20:22:10Z</time>
      </trkpt>
      <trkpt lat="59.7931333" lon="14.8155521">
        <ele>170.4</ele>
        <time>2012-07-21T20:22:15Z</time>
      </trkpt>
      <trkpt lat="59.7927669" lon="14.8151412">
        <ele>170</ele>
        <time>2012-07-21T20:22:21Z</time>
      </trkpt>
      <trkpt lat="59.7927079" lon="14.8150531">
        <ele>169.6</ele>
        <time>2012-07-21T20:22:22Z</time>
      </trkpt>
      <trkpt lat="59.7924747" lon="14.8146113">
        <ele>168.4</ele>
        <time>2012-07-21T20:22:26Z</time>
      </trkpt>
      <trkpt lat="59.7921734" lon="14.8139913">
        <ele>167</ele>
        <time>2012-07-21T20:22:31Z</time>
      </trkpt>
      <trkpt lat="59.7918837" lon="14.8133835">
        <ele>167.4</ele>
        <time>2012-07-21T20:22:36Z</time>
      </trkpt>
      <trkpt lat="59.7916238" lon="14.8128516">
        <ele>167.6</ele>
        <time>2012-07-21T20:22:40Z</time>
      </trkpt>
      <trkpt lat="59.7913503" lon="14.8123071">
        <ele>167.2</ele>
        <time>2012-07-21T20:22:44Z</time>
      </trkpt>
      <trkpt lat="59.7910879" lon="14.8118056">
        <ele>167.4</ele>
        <time>2012-07-21T20:22:48Z</time>
      </trkpt>
      <trkpt lat="59.7907568" lon="14.8112892">
        <ele>168.8</ele>
        <time>2012-07-21T20:22:53Z</time>
      </trkpt>
      <trkpt lat="59.7904526" lon="14.8108702">
        <ele>169.4</ele>
        <time>2012-07-21T20:22:58Z</time>
      </trkpt>
      <trkpt lat="59.7901158" lon="14.8103879">
        <ele>170.2</ele>
        <time>2012-07-21T20:23:04Z</time>
      </trkpt>
      <trkpt lat="59.7897966" lon="14.8099534">
        <ele>169.6</ele>
        <time>2012-07-21T20:23:10Z</time>
      </trkpt>
      <trkpt lat="59.7894613" lon="14.8095085">
        <ele>168</ele>
        <time>2012-07-21T20:23:16Z</time>
      </trkpt>
      <trkpt lat="59.7891144" lon="14.8091551">
        <ele>166.6</ele>
        <time>2012-07-21T20:23:22Z</time>
      </trkpt>
      <trkpt lat="59.7887661" lon="14.8089038">
        <ele>165.2</ele>
        <time>2012-07-21T20:23:27Z</time>
      </trkpt>
      <trkpt lat="59.7883836" lon="14.8086371">
        <ele>164</ele>
        <time>2012-07-21T20:23:32Z</time>
      </trkpt>
      <trkpt lat="59.7879868" lon="14.8083709">
        <ele>162.4</ele>
        <time>2012-07-21T20:23:37Z</time>
      </trkpt>
      <trkpt lat="59.7876262" lon="14.8081887">
        <ele>160.8</ele>
        <time>2012-07-21T20:23:41Z</time>
      </trkpt>
      <trkpt lat="59.7872097" lon="14.8082191">
        <ele>158</ele>
        <time>2012-07-21T20:23:45Z</time>
      </trkpt>
      <trkpt lat="59.7867886" lon="14.8084238">
        <ele>156.4</ele>
        <time>2012-07-21T20:23:49Z</time>
      </trkpt>
      <trkpt lat="59.7863829" lon="14.8086391">
        <ele>155.2</ele>
        <time>2012-07-21T20:23:53Z</time>
      </trkpt>
      <trkpt lat="59.7859856" lon="14.8088341">
        <ele>155.2</ele>
        <time>2012-07-21T20:23:57Z</time>
      </trkpt>
      <trkpt lat="59.7855811" lon="14.8090417">
        <ele>155.8</ele>
        <time>2012-07-21T20:24:01Z</time>
      </trkpt>
      <trkpt lat="59.7851667" lon="14.8092324">
        <ele>155.4</ele>
        <time>2012-07-21T20:24:05Z</time>
      </trkpt>
      <trkpt lat="59.784745" lon="14.8094269">
        <ele>156.6</ele>
        <time>2012-07-21T20:24:09Z</time>
      </trkpt>
      <trkpt lat="59.7843467" lon="14.8096064">
        <ele>158.2</ele>
        <time>2012-07-21T20:24:13Z</time>
      </trkpt>
      <trkpt lat="59.7839761" lon="14.809773">
        <ele>159.4</ele>
        <time>2012-07-21T20:24:17Z</time>
      </trkpt>
      <trkpt lat="59.7836129" lon="14.8099177">
        <ele>160.8</ele>
        <time>2012-07-21T20:24:21Z</time>
      </trkpt>
      <trkpt lat="59.7832372" lon="14.8100145">
        <ele>161</ele>
        <time>2012-07-21T20:24:25Z</time>
      </trkpt>
      <trkpt lat="59.782861" lon="14.8099964">
        <ele>160</ele>
        <time>2012-07-21T20:24:29Z</time>
      </trkpt>
      <trkpt lat="59.7824279" lon="14.8097096">
        <ele>158</ele>
        <time>2012-07-21T20:24:34Z</time>
      </trkpt>
      <trkpt lat="59.7820828" lon="14.8093743">
        <ele>157.2</ele>
        <time>2012-07-21T20:24:38Z</time>
      </trkpt>
      <trkpt lat="59.781738" lon="14.8090396">
        <ele>156.4</ele>
        <time>2012-07-21T20:24:42Z</time>
      </trkpt>
      <trkpt lat="59.7814111" lon="14.8087254">
        <ele>155.8</ele>
        <time>2012-07-21T20:24:46Z</time>
      </trkpt>
      <trkpt lat="59.781026" lon="14.8083418">
        <ele>155.2</ele>
        <time>2012-07-21T20:24:51Z</time>
      </trkpt>
      <trkpt lat="59.7806656" lon="14.8079411">
        <ele>155.4</ele>
        <time>2012-07-21T20:24:56Z</time>
      </trkpt>
      <trkpt lat="59.7803309" lon="14.8074771">
        <ele>155.6</ele>
        <time>2012-07-21T20:25:01Z</time>
      </trkpt>
      <trkpt lat="59.780006" lon="14.806984">
        <ele>155.4</ele>
        <time>2012-07-21T20:25:06Z</time>
      </trkpt>
      <trkpt lat="59.7796923" lon="14.8065233">
        <ele>155</ele>
        <time>2012-07-21T20:25:11Z</time>
      </trkpt>
      <trkpt lat="59.7793877" lon="14.8060652">
        <ele>154.8</ele>
        <time>2012-07-21T20:25:16Z</time>
      </trkpt>
      <trkpt lat="59.7790827" lon="14.8056128">
        <ele>154.2</ele>
        <time>2012-07-21T20:25:21Z</time>
      </trkpt>
      <trkpt lat="59.7787754" lon="14.8051406">
        <ele>153.2</ele>
        <time>2012-07-21T20:25:26Z</time>
      </trkpt>
      <trkpt lat="59.7784406" lon="14.8046578">
        <ele>153.6</ele>
        <time>2012-07-21T20:25:31Z</time>
      </trkpt>
      <trkpt lat="59.778104" lon="14.8041601">
        <ele>153.6</ele>
        <time>2012-07-21T20:25:36Z</time>
      </trkpt>
      <trkpt lat="59.7777657" lon="14.8036716">
        <ele>154.4</ele>
        <time>2012-07-21T20:25:41Z</time>
      </trkpt>
      <trkpt lat="59.7774429" lon="14.8031842">
        <ele>155.4</ele>
        <time>2012-07-21T20:25:46Z</time>
      </trkpt>
      <trkpt lat="59.7771065" lon="14.8026904">
        <ele>157.6</ele>
        <time>2012-07-21T20:25:51Z</time>
      </trkpt>
      <trkpt lat="59.776781" lon="14.8021538">
        <ele>159.4</ele>
        <time>2012-07-21T20:25:56Z</time>
      </trkpt>
      <trkpt lat="59.7764537" lon="14.8015714">
        <ele>160.8</ele>
        <time>2012-07-21T20:26:01Z</time>
      </trkpt>
      <trkpt lat="59.7761322" lon="14.8010228">
        <ele>161.8</ele>
        <time>2012-07-21T20:26:06Z</time>
      </trkpt>
      <trkpt lat="59.7758625" lon="14.8003739">
        <ele>163.2</ele>
        <time>2012-07-21T20:26:11Z</time>
      </trkpt>
      <trkpt lat="59.7756651" lon="14.799606">
        <ele>161.8</ele>
        <time>2012-07-21T20:26:16Z</time>
      </trkpt>
      <trkpt lat="59.7755663" lon="14.7989234">
        <ele>162</ele>
        <time>2012-07-21T20:26:20Z</time>
      </trkpt>
      <trkpt lat="59.7755504" lon="14.7987463">
        <ele>162.2</ele>
        <time>2012-07-21T20:26:21Z</time>
      </trkpt>
      <trkpt lat="59.7755377" lon="14.7980256">
        <ele>160.8</ele>
        <time>2012-07-21T20:26:25Z</time>
      </trkpt>
      <trkpt lat="59.7756123" lon="14.7971678">
        <ele>159</ele>
        <time>2012-07-21T20:26:30Z</time>
      </trkpt>
      <trkpt lat="59.7757662" lon="14.7963856">
        <ele>158.4</ele>
        <time>2012-07-21T20:26:35Z</time>
      </trkpt>
      <trkpt lat="59.7760129" lon="14.7956921">
        <ele>157</ele>
        <time>2012-07-21T20:26:40Z</time>
      </trkpt>
      <trkpt lat="59.7760735" lon="14.7955662">
        <ele>156.8</ele>
        <time>2012-07-21T20:26:41Z</time>
      </trkpt>
      <trkpt lat="59.7763354" lon="14.7951205">
        <ele>157.2</ele>
        <time>2012-07-21T20:26:45Z</time>
      </trkpt>
      <trkpt lat="59.776677" lon="14.7946194">
        <ele>157.8</ele>
        <time>2012-07-21T20:26:50Z</time>
      </trkpt>
      <trkpt lat="59.7769804" lon="14.794178">
        <ele>158.6</ele>
        <time>2012-07-21T20:26:55Z</time>
      </trkpt>
      <trkpt lat="59.7772919" lon="14.7936833">
        <ele>159.2</ele>
        <time>2012-07-21T20:27:00Z</time>
      </trkpt>
      <trkpt lat="59.7776162" lon="14.7931626">
        <ele>159</ele>
        <time>2012-07-21T20:27:05Z</time>
      </trkpt>
      <trkpt lat="59.7779363" lon="14.7926413">
        <ele>159.2</ele>
        <time>2012-07-21T20:27:10Z</time>
      </trkpt>
      <trkpt lat="59.7782153" lon="14.792072">
        <ele>158.4</ele>
        <time>2012-07-21T20:27:15Z</time>
      </trkpt>
      <trkpt lat="59.7783437" lon="14.791653">
        <ele>157.4</ele>
        <time>2012-07-21T20:27:18Z</time>
      </trkpt>
      <trkpt lat="59.778407" lon="14.7913264">
        <ele>156.2</ele>
        <time>2012-07-21T20:27:20Z</time>
      </trkpt>
      <trkpt lat="59.7785376" lon="14.7906538">
        <ele>154.4</ele>
        <time>2012-07-21T20:27:24Z</time>
      </trkpt>
      <trkpt lat="59.7786926" lon="14.7900028">
        <ele>153.6</ele>
        <time>2012-07-21T20:27:28Z</time>
      </trkpt>
      <trkpt lat="59.7789142" lon="14.7892359">
        <ele>152.8</ele>
        <time>2012-07-21T20:27:33Z</time>
      </trkpt>
      <trkpt lat="59.7791353" lon="14.7885084">
        <ele>153.2</ele>
        <time>2012-07-21T20:27:38Z</time>
      </trkpt>
      <trkpt lat="59.7793378" lon="14.7878504">
        <ele>154</ele>
        <time>2012-07-21T20:27:43Z</time>
      </trkpt>
      <trkpt lat="59.7795207" lon="14.7872433">
        <ele>155.2</ele>
        <time>2012-07-21T20:27:48Z</time>
      </trkpt>
      <trkpt lat="59.7797079" lon="14.7865047">
        <ele>156.2</ele>
        <time>2012-07-21T20:27:54Z</time>
      </trkpt>
      <trkpt lat="59.7798198" lon="14.7858234">
        <ele>156.4</ele>
        <time>2012-07-21T20:27:59Z</time>
      </trkpt>
      <trkpt lat="59.7799115" lon="14.7851232">
        <ele>156.2</ele>
        <time>2012-07-21T20:28:04Z</time>
      </trkpt>
      <trkpt lat="59.7800444" lon="14.7844275">
        <ele>155.4</ele>
        <time>2012-07-21T20:28:09Z</time>
      </trkpt>
      <trkpt lat="59.7802647" lon="14.7837644">
        <ele>154.2</ele>
        <time>2012-07-21T20:28:14Z</time>
      </trkpt>
      <trkpt lat="59.7805218" lon="14.7830901">
        <ele>153.4</ele>
        <time>2012-07-21T20:28:19Z</time>
      </trkpt>
      <trkpt lat="59.7807427" lon="14.7825019">
        <ele>154.8</ele>
        <time>2012-07-21T20:28:24Z</time>
      </trkpt>
      <trkpt lat="59.7809692" lon="14.781873">
        <ele>156</ele>
        <time>2012-07-21T20:28:30Z</time>
      </trkpt>
      <trkpt lat="59.781203" lon="14.7812086">
        <ele>156</ele>
        <time>2012-07-21T20:28:36Z</time>
      </trkpt>
      <trkpt lat="59.7813042" lon="14.7809123">
        <ele>156</ele>
        <time>2012-07-21T20:28:39Z</time>
      </trkpt>
      <trkpt lat="59.7813075" lon="14.7804854">
        <ele>155.2</ele>
        <time>2012-07-21T20:28:43Z</time>
      </trkpt>
      <trkpt lat="59.7812582" lon="14.7802741">
        <ele>154.4</ele>
        <time>2012-07-21T20:28:45Z</time>
      </trkpt>
      <trkpt lat="59.7810972" lon="14.7797799">
        <ele>152.4</ele>
        <time>2012-07-21T20:28:49Z</time>
      </trkpt>
      <trkpt lat="59.7808345" lon="14.7791007">
        <ele>150</ele>
        <time>2012-07-21T20:28:54Z</time>
      </trkpt>
      <trkpt lat="59.7807722" lon="14.7789738">
        <ele>149.8</ele>
        <time>2012-07-21T20:28:55Z</time>
      </trkpt>
      <trkpt lat="59.7804971" lon="14.7785604">
        <ele>149.8</ele>
        <time>2012-07-21T20:28:59Z</time>
      </trkpt>
      <trkpt lat="59.7801241" lon="14.7782595">
        <ele>149</ele>
        <time>2012-07-21T20:29:04Z</time>
      </trkpt>
      <trkpt lat="59.7797531" lon="14.7780172">
        <ele>148.8</ele>
        <time>2012-07-21T20:29:09Z</time>
      </trkpt>
      <trkpt lat="59.779393" lon="14.7777721">
        <ele>148.8</ele>
        <time>2012-07-21T20:29:14Z</time>
      </trkpt>
      <trkpt lat="59.7790261" lon="14.7775363">
        <ele>148.8</ele>
        <time>2012-07-21T20:29:19Z</time>
      </trkpt>
      <trkpt lat="59.7786859" lon="14.7772255">
        <ele>148.4</ele>
        <time>2012-07-21T20:29:24Z</time>
      </trkpt>
      <trkpt lat="59.7783604" lon="14.7769125">
        <ele>148.2</ele>
        <time>2012-07-21T20:29:29Z</time>
      </trkpt>
      <trkpt lat="59.7780337" lon="14.7765659">
        <ele>147.4</ele>
        <time>2012-07-21T20:29:34Z</time>
      </trkpt>
      <trkpt lat="59.7777166" lon="14.7760377">
        <ele>145.6</ele>
        <time>2012-07-21T20:29:39Z</time>
      </trkpt>
      <trkpt lat="59.777436" lon="14.7753538">
        <ele>144.2</ele>
        <time>2012-07-21T20:29:44Z</time>
      </trkpt>
      <trkpt lat="59.7771715" lon="14.7746705">
        <ele>145</ele>
        <time>2012-07-21T20:29:49Z</time>
      </trkpt>
      <trkpt lat="59.776913" lon="14.7740485">
        <ele>145.8</ele>
        <time>2012-07-21T20:29:54Z</time>
      </trkpt>
      <trkpt lat="59.7766345" lon="14.7735366">
        <ele>147.2</ele>
        <time>2012-07-21T20:29:59Z</time>
      </trkpt>
      <trkpt lat="59.7763356" lon="14.7731239">
        <ele>149.2</ele>
        <time>2012-07-21T20:30:04Z</time>
      </trkpt>
      <trkpt lat="59.7759839" lon="14.7727749">
        <ele>151.6</ele>
        <time>2012-07-21T20:30:10Z</time>
      </trkpt>
      <trkpt lat="59.7756068" lon="14.7725286">
        <ele>154.2</ele>
        <time>2012-07-21T20:30:17Z</time>
      </trkpt>
      <trkpt lat="59.7752248" lon="14.7723642">
        <ele>155.8</ele>
        <time>2012-07-21T20:30:25Z</time>
      </trkpt>
      <trkpt lat="59.7748339" lon="14.7722729">
        <ele>156</ele>
        <time>2012-07-21T20:30:33Z</time>
      </trkpt>
      <trkpt lat="59.7745185" lon="14.7722501">
        <ele>159</ele>
        <time>2012-07-21T20:30:39Z</time>
      </trkpt>
      <trkpt lat="59.7744675" lon="14.7722548">
        <ele>159.8</ele>
        <time>2012-07-21T20:30:40Z</time>
      </trkpt>
      <trkpt lat="59.7741135" lon="14.7722387">
        <ele>163.8</ele>
        <time>2012-07-21T20:30:47Z</time>
      </trkpt>
      <trkpt lat="59.7737588" lon="14.7721491">
        <ele>164</ele>
        <time>2012-07-21T20:30:54Z</time>
      </trkpt>
      <trkpt lat="59.7733673" lon="14.7720435">
        <ele>167.8</ele>
        <time>2012-07-21T20:31:02Z</time>
      </trkpt>
      <trkpt lat="59.772994" lon="14.7719406">
        <ele>172</ele>
        <time>2012-07-21T20:31:10Z</time>
      </trkpt>
      <trkpt lat="59.7726381" lon="14.7718614">
        <ele>174</ele>
        <time>2012-07-21T20:31:18Z</time>
      </trkpt>
      <trkpt lat="59.7722832" lon="14.7718285">
        <ele>171.8</ele>
        <time>2012-07-21T20:31:26Z</time>
      </trkpt>
      <trkpt lat="59.7719316" lon="14.7718237">
        <ele>171</ele>
        <time>2012-07-21T20:31:33Z</time>
      </trkpt>
      <trkpt lat="59.7715252" lon="14.7719068">
        <ele>176.8</ele>
        <time>2012-07-21T20:31:40Z</time>
      </trkpt>
      <trkpt lat="59.7711436" lon="14.771995">
        <ele>178.8</ele>
        <time>2012-07-21T20:31:46Z</time>
      </trkpt>
      <trkpt lat="59.7707677" lon="14.7721175">
        <ele>179.4</ele>
        <time>2012-07-21T20:31:52Z</time>
      </trkpt>
      <trkpt lat="59.7703707" lon="14.7722906">
        <ele>181.8</ele>
        <time>2012-07-21T20:31:58Z</time>
      </trkpt>
      <trkpt lat="59.770006" lon="14.7724557">
        <ele>184</ele>
        <time>2012-07-21T20:32:03Z</time>
      </trkpt>
      <trkpt lat="59.7695886" lon="14.7726387">
        <ele>186.2</ele>
        <time>2012-07-21T20:32:09Z</time>
      </trkpt>
      <trkpt lat="59.7691891" lon="14.7728297">
        <ele>187.4</ele>
        <time>2012-07-21T20:32:15Z</time>
      </trkpt>
      <trkpt lat="59.7688072" lon="14.7730069">
        <ele>188</ele>
        <time>2012-07-21T20:32:20Z</time>
      </trkpt>
      <trkpt lat="59.7684273" lon="14.7731814">
        <ele>189.2</ele>
        <time>2012-07-21T20:32:25Z</time>
      </trkpt>
      <trkpt lat="59.768052" lon="14.7733359">
        <ele>191.2</ele>
        <time>2012-07-21T20:32:30Z</time>
      </trkpt>
      <trkpt lat="59.7676827" lon="14.7734995">
        <ele>192.6</ele>
        <time>2012-07-21T20:32:35Z</time>
      </trkpt>
      <trkpt lat="59.767317" lon="14.7736066">
        <ele>191.2</ele>
        <time>2012-07-21T20:32:40Z</time>
      </trkpt>
      <trkpt lat="59.7669305" lon="14.7737196">
        <ele>190.4</ele>
        <time>2012-07-21T20:32:45Z</time>
      </trkpt>
      <trkpt lat="59.76654" lon="14.7738254">
        <ele>190</ele>
        <time>2012-07-21T20:32:50Z</time>
      </trkpt>
      <trkpt lat="59.7661703" lon="14.7739305">
        <ele>190.6</ele>
        <time>2012-07-21T20:32:55Z</time>
      </trkpt>
      <trkpt lat="59.7657803" lon="14.7740182">
        <ele>191</ele>
        <time>2012-07-21T20:33:00Z</time>
      </trkpt>
      <trkpt lat="59.7653987" lon="14.7741092">
        <ele>191.6</ele>
        <time>2012-07-21T20:33:05Z</time>
      </trkpt>
      <trkpt lat="59.7650415" lon="14.7742465">
        <ele>190.6</ele>
        <time>2012-07-21T20:33:10Z</time>
      </trkpt>
      <trkpt lat="59.7646234" lon="14.7743927">
        <ele>188.2</ele>
        <time>2012-07-21T20:33:15Z</time>
      </trkpt>
      <trkpt lat="59.7642593" lon="14.7745129">
        <ele>187</ele>
        <time>2012-07-21T20:33:19Z</time>
      </trkpt>
      <trkpt lat="59.7638739" lon="14.7746323">
        <ele>186</ele>
        <time>2012-07-21T20:33:23Z</time>
      </trkpt>
      <trkpt lat="59.7634706" lon="14.7747484">
        <ele>183.2</ele>
        <time>2012-07-21T20:33:27Z</time>
      </trkpt>
      <trkpt lat="59.7630346" lon="14.7748504">
        <ele>180.8</ele>
        <time>2012-07-21T20:33:31Z</time>
      </trkpt>
      <trkpt lat="59.7625522" lon="14.7749884">
        <ele>178.4</ele>
        <time>2012-07-21T20:33:35Z</time>
      </trkpt>
      <trkpt lat="59.7621886" lon="14.7750399">
        <ele>176.4</ele>
        <time>2012-07-21T20:33:38Z</time>
      </trkpt>
      <trkpt lat="59.7617194" lon="14.7750556">
        <ele>174.6</ele>
        <time>2012-07-21T20:33:42Z</time>
      </trkpt>
      <trkpt lat="59.7613518" lon="14.7751122">
        <ele>171.8</ele>
        <time>2012-07-21T20:33:45Z</time>
      </trkpt>
      <trkpt lat="59.7609529" lon="14.775241">
        <ele>169.4</ele>
        <time>2012-07-21T20:33:48Z</time>
      </trkpt>
      <trkpt lat="59.7605611" lon="14.7754491">
        <ele>167.2</ele>
        <time>2012-07-21T20:33:51Z</time>
      </trkpt>
      <trkpt lat="59.7601626" lon="14.7757038">
        <ele>164.8</ele>
        <time>2012-07-21T20:33:54Z</time>
      </trkpt>
      <trkpt lat="59.7597521" lon="14.7759159">
        <ele>162.2</ele>
        <time>2012-07-21T20:33:57Z</time>
      </trkpt>
      <trkpt lat="59.759337" lon="14.7760383">
        <ele>159.2</ele>
        <time>2012-07-21T20:34:00Z</time>
      </trkpt>
      <trkpt lat="59.7589287" lon="14.7760743">
        <ele>156.8</ele>
        <time>2012-07-21T20:34:03Z</time>
      </trkpt>
      <trkpt lat="59.7584998" lon="14.7760575">
        <ele>154.2</ele>
        <time>2012-07-21T20:34:06Z</time>
      </trkpt>
      <trkpt lat="59.7580859" lon="14.7759668">
        <ele>151</ele>
        <time>2012-07-21T20:34:09Z</time>
      </trkpt>
      <trkpt lat="59.7576843" lon="14.775671">
        <ele>148.4</ele>
        <time>2012-07-21T20:34:12Z</time>
      </trkpt>
      <trkpt lat="59.7573538" lon="14.7752008">
        <ele>147.2</ele>
        <time>2012-07-21T20:34:15Z</time>
      </trkpt>
      <trkpt lat="59.757061" lon="14.7747561">
        <ele>147</ele>
        <time>2012-07-21T20:34:18Z</time>
      </trkpt>
      <trkpt lat="59.7567216" lon="14.7745329">
        <ele>148</ele>
        <time>2012-07-21T20:34:21Z</time>
      </trkpt>
      <trkpt lat="59.7564853" lon="14.7744649">
        <ele>148</ele>
        <time>2012-07-21T20:34:23Z</time>
      </trkpt>
      <trkpt lat="59.7562591" lon="14.7744143">
        <ele>148.6</ele>
        <time>2012-07-21T20:34:25Z</time>
      </trkpt>
      <trkpt lat="59.7560483" lon="14.7743118">
        <ele>149</ele>
        <time>2012-07-21T20:34:27Z</time>
      </trkpt>
      <trkpt lat="59.7558551" lon="14.7741444">
        <ele>149.2</ele>
        <time>2012-07-21T20:34:29Z</time>
      </trkpt>
      <trkpt lat="59.7556707" lon="14.773921">
        <ele>149.6</ele>
        <time>2012-07-21T20:34:31Z</time>
      </trkpt>
      <trkpt lat="59.7554863" lon="14.7736845">
        <ele>150</ele>
        <time>2012-07-21T20:34:33Z</time>
      </trkpt>
      <trkpt lat="59.755119" lon="14.7732671">
        <ele>150.8</ele>
        <time>2012-07-21T20:34:37Z</time>
      </trkpt>
      <trkpt lat="59.7547196" lon="14.7729775">
        <ele>149.6</ele>
        <time>2012-07-21T20:34:41Z</time>
      </trkpt>
      <trkpt lat="59.7543226" lon="14.7728717">
        <ele>148.4</ele>
        <time>2012-07-21T20:34:45Z</time>
      </trkpt>
      <trkpt lat="59.7539403" lon="14.7728238">
        <ele>148.2</ele>
        <time>2012-07-21T20:34:49Z</time>
      </trkpt>
      <trkpt lat="59.7535749" lon="14.7727499">
        <ele>148</ele>
        <time>2012-07-21T20:34:53Z</time>
      </trkpt>
      <trkpt lat="59.753397" lon="14.7727546">
        <ele>148.2</ele>
        <time>2012-07-21T20:34:55Z</time>
      </trkpt>
      <trkpt lat="59.7531531" lon="14.7729505">
        <ele>148.2</ele>
        <time>2012-07-21T20:34:58Z</time>
      </trkpt>
      <trkpt lat="59.7529574" lon="14.7733085">
        <ele>149</ele>
        <time>2012-07-21T20:35:01Z</time>
      </trkpt>
      <trkpt lat="59.7528475" lon="14.7735715">
        <ele>149.4</ele>
        <time>2012-07-21T20:35:03Z</time>
      </trkpt>
      <trkpt lat="59.7525683" lon="14.7741837">
        <ele>151</ele>
        <time>2012-07-21T20:35:08Z</time>
      </trkpt>
      <trkpt lat="59.7522958" lon="14.7748054">
        <ele>154</ele>
        <time>2012-07-21T20:35:14Z</time>
      </trkpt>
      <trkpt lat="59.7520047" lon="14.7754336">
        <ele>157</ele>
        <time>2012-07-21T20:35:20Z</time>
      </trkpt>
      <trkpt lat="59.7517522" lon="14.7759616">
        <ele>158.2</ele>
        <time>2012-07-21T20:35:25Z</time>
      </trkpt>
      <trkpt lat="59.751494" lon="14.776606">
        <ele>159.6</ele>
        <time>2012-07-21T20:35:31Z</time>
      </trkpt>
      <trkpt lat="59.7512628" lon="14.7772681">
        <ele>158.6</ele>
        <time>2012-07-21T20:35:37Z</time>
      </trkpt>
      <trkpt lat="59.7510783" lon="14.7779367">
        <ele>158.6</ele>
        <time>2012-07-21T20:35:42Z</time>
      </trkpt>
      <trkpt lat="59.7509613" lon="14.7786536">
        <ele>157.2</ele>
        <time>2012-07-21T20:35:47Z</time>
      </trkpt>
      <trkpt lat="59.7508768" lon="14.7793958">
        <ele>155.8</ele>
        <time>2012-07-21T20:35:52Z</time>
      </trkpt>
      <trkpt lat="59.7508234" lon="14.7801834">
        <ele>155</ele>
        <time>2012-07-21T20:35:57Z</time>
      </trkpt>
      <trkpt lat="59.7507838" lon="14.780502">
        <ele>154.4</ele>
        <time>2012-07-21T20:35:59Z</time>
      </trkpt>
      <trkpt lat="59.750646" lon="14.780973">
        <ele>152.4</ele>
        <time>2012-07-21T20:36:02Z</time>
      </trkpt>
      <trkpt lat="59.7505087" lon="14.7812479">
        <ele>150.6</ele>
        <time>2012-07-21T20:36:04Z</time>
      </trkpt>
      <trkpt lat="59.7503598" lon="14.7815234">
        <ele>149.2</ele>
        <time>2012-07-21T20:36:06Z</time>
      </trkpt>
      <trkpt lat="59.7501975" lon="14.7817715">
        <ele>148.4</ele>
        <time>2012-07-21T20:36:08Z</time>
      </trkpt>
      <trkpt lat="59.7500077" lon="14.7819273">
        <ele>148</ele>
        <time>2012-07-21T20:36:10Z</time>
      </trkpt>
      <trkpt lat="59.7496101" lon="14.7819957">
        <ele>148</ele>
        <time>2012-07-21T20:36:14Z</time>
      </trkpt>
      <trkpt lat="59.7492365" lon="14.7819664">
        <ele>148.6</ele>
        <time>2012-07-21T20:36:18Z</time>
      </trkpt>
      <trkpt lat="59.7491462" lon="14.7819876">
        <ele>149</ele>
        <time>2012-07-21T20:36:19Z</time>
      </trkpt>
      <trkpt lat="59.7488247" lon="14.7822563">
        <ele>149.4</ele>
        <time>2012-07-21T20:36:23Z</time>
      </trkpt>
      <trkpt lat="59.748624" lon="14.7825896">
        <ele>150.2</ele>
        <time>2012-07-21T20:36:26Z</time>
      </trkpt>
      <trkpt lat="59.7485039" lon="14.7828249">
        <ele>151</ele>
        <time>2012-07-21T20:36:28Z</time>
      </trkpt>
      <trkpt lat="59.7483122" lon="14.7831178">
        <ele>151.4</ele>
        <time>2012-07-21T20:36:31Z</time>
      </trkpt>
      <trkpt lat="59.7481761" lon="14.7832771">
        <ele>152</ele>
        <time>2012-07-21T20:36:33Z</time>
      </trkpt>
      <trkpt lat="59.7478226" lon="14.7836209">
        <ele>150.6</ele>
        <time>2012-07-21T20:36:38Z</time>
      </trkpt>
      <trkpt lat="59.7474828" lon="14.7839981">
        <ele>150.2</ele>
        <time>2012-07-21T20:36:43Z</time>
      </trkpt>
      <trkpt lat="59.747188" lon="14.7842765">
        <ele>149.6</ele>
        <time>2012-07-21T20:36:47Z</time>
      </trkpt>
      <trkpt lat="59.7471079" lon="14.7843237">
        <ele>149.8</ele>
        <time>2012-07-21T20:36:48Z</time>
      </trkpt>
      <trkpt lat="59.7469535" lon="14.7843858">
        <ele>150.2</ele>
        <time>2012-07-21T20:36:50Z</time>
      </trkpt>
      <trkpt lat="59.7467474" lon="14.7843822">
        <ele>151.6</ele>
        <time>2012-07-21T20:36:53Z</time>
      </trkpt>
      <trkpt lat="59.7466902" lon="14.7843606">
        <ele>151.8</ele>
        <time>2012-07-21T20:36:54Z</time>
      </trkpt>
      <trkpt lat="59.7463905" lon="14.784238">
        <ele>154.6</ele>
        <time>2012-07-21T20:37:00Z</time>
      </trkpt>
      <trkpt lat="59.746031" lon="14.7841136">
        <ele>156.6</ele>
        <time>2012-07-21T20:37:07Z</time>
      </trkpt>
      <trkpt lat="59.7456444" lon="14.7839965">
        <ele>157.2</ele>
        <time>2012-07-21T20:37:15Z</time>
      </trkpt>
      <trkpt lat="59.7452766" lon="14.7838617">
        <ele>158.4</ele>
        <time>2012-07-21T20:37:23Z</time>
      </trkpt>
      <trkpt lat="59.7449132" lon="14.7837794">
        <ele>160</ele>
        <time>2012-07-21T20:37:32Z</time>
      </trkpt>
      <trkpt lat="59.7444941" lon="14.7838343">
        <ele>157.4</ele>
        <time>2012-07-21T20:37:39Z</time>
      </trkpt>
      <trkpt lat="59.7441311" lon="14.7839167">
        <ele>155</ele>
        <time>2012-07-21T20:37:44Z</time>
      </trkpt>
      <trkpt lat="59.7437547" lon="14.7841487">
        <ele>154.2</ele>
        <time>2012-07-21T20:37:49Z</time>
      </trkpt>
      <trkpt lat="59.7433603" lon="14.784444">
        <ele>156.4</ele>
        <time>2012-07-21T20:37:54Z</time>
      </trkpt>
      <trkpt lat="59.7429753" lon="14.7847858">
        <ele>155.8</ele>
        <time>2012-07-21T20:37:59Z</time>
      </trkpt>
      <trkpt lat="59.7426177" lon="14.7852314">
        <ele>156.2</ele>
        <time>2012-07-21T20:38:04Z</time>
      </trkpt>
      <trkpt lat="59.7422417" lon="14.7856547">
        <ele>156.2</ele>
        <time>2012-07-21T20:38:09Z</time>
      </trkpt>
      <trkpt lat="59.7420663" lon="14.7857706">
        <ele>156.2</ele>
        <time>2012-07-21T20:38:11Z</time>
      </trkpt>
      <trkpt lat="59.7418052" lon="14.7858585">
        <ele>156</ele>
        <time>2012-07-21T20:38:14Z</time>
      </trkpt>
      <trkpt lat="59.7413521" lon="14.7858929">
        <ele>154.4</ele>
        <time>2012-07-21T20:38:19Z</time>
      </trkpt>
      <trkpt lat="59.7409805" lon="14.785852">
        <ele>153.8</ele>
        <time>2012-07-21T20:38:23Z</time>
      </trkpt>
      <trkpt lat="59.7405585" lon="14.785895">
        <ele>153.6</ele>
        <time>2012-07-21T20:38:28Z</time>
      </trkpt>
      <trkpt lat="59.7401868" lon="14.7859614">
        <ele>152.2</ele>
        <time>2012-07-21T20:38:33Z</time>
      </trkpt>
      <trkpt lat="59.7397776" lon="14.7859442">
        <ele>149.4</ele>
        <time>2012-07-21T20:38:39Z</time>
      </trkpt>
      <trkpt lat="59.7394124" lon="14.7858919">
        <ele>146.8</ele>
        <time>2012-07-21T20:38:45Z</time>
      </trkpt>
      <trkpt lat="59.7391783" lon="14.7858704">
        <ele>147.8</ele>
        <time>2012-07-21T20:38:49Z</time>
      </trkpt>
      <trkpt lat="59.7390001" lon="14.785916">
        <ele>148.2</ele>
        <time>2012-07-21T20:38:52Z</time>
      </trkpt>
      <trkpt lat="59.738644" lon="14.7860668">
        <ele>150.2</ele>
        <time>2012-07-21T20:38:58Z</time>
      </trkpt>
      <trkpt lat="59.7382847" lon="14.7862193">
        <ele>151</ele>
        <time>2012-07-21T20:39:04Z</time>
      </trkpt>
      <trkpt lat="59.7379167" lon="14.7864211">
        <ele>152</ele>
        <time>2012-07-21T20:39:10Z</time>
      </trkpt>
      <trkpt lat="59.7375559" lon="14.7866129">
        <ele>152.8</ele>
        <time>2012-07-21T20:39:16Z</time>
      </trkpt>
      <trkpt lat="59.7371627" lon="14.7868296">
        <ele>153.4</ele>
        <time>2012-07-21T20:39:22Z</time>
      </trkpt>
      <trkpt lat="59.736774" lon="14.7871104">
        <ele>154</ele>
        <time>2012-07-21T20:39:28Z</time>
      </trkpt>
      <trkpt lat="59.7364199" lon="14.7873086">
        <ele>154.6</ele>
        <time>2012-07-21T20:39:34Z</time>
      </trkpt>
      <trkpt lat="59.7359707" lon="14.7874502">
        <ele>154.8</ele>
        <time>2012-07-21T20:39:40Z</time>
      </trkpt>
      <trkpt lat="59.7356294" lon="14.7875804">
        <ele>157.2</ele>
        <time>2012-07-21T20:39:46Z</time>
      </trkpt>
      <trkpt lat="59.7352422" lon="14.7877682">
        <ele>159.4</ele>
        <time>2012-07-21T20:39:52Z</time>
      </trkpt>
      <trkpt lat="59.7348597" lon="14.7879748">
        <ele>161</ele>
        <time>2012-07-21T20:39:58Z</time>
      </trkpt>
      <trkpt lat="59.7344856" lon="14.7881714">
        <ele>161.8</ele>
        <time>2012-07-21T20:40:04Z</time>
      </trkpt>
      <trkpt lat="59.7341214" lon="14.7883689">
        <ele>162</ele>
        <time>2012-07-21T20:40:10Z</time>
      </trkpt>
      <trkpt lat="59.7339281" lon="14.7884736">
        <ele>162.4</ele>
        <time>2012-07-21T20:40:13Z</time>
      </trkpt>
      <trkpt lat="59.733731" lon="14.7885902">
        <ele>162.6</ele>
        <time>2012-07-21T20:40:16Z</time>
      </trkpt>
      <trkpt lat="59.733347" lon="14.7888047">
        <ele>164</ele>
        <time>2012-07-21T20:40:22Z</time>
      </trkpt>
      <trkpt lat="59.7329685" lon="14.7890124">
        <ele>166</ele>
        <time>2012-07-21T20:40:28Z</time>
      </trkpt>
      <trkpt lat="59.7325688" lon="14.7892362">
        <ele>165.4</ele>
        <time>2012-07-21T20:40:35Z</time>
      </trkpt>
      <trkpt lat="59.7322117" lon="14.7894781">
        <ele>164.2</ele>
        <time>2012-07-21T20:40:41Z</time>
      </trkpt>
      <trkpt lat="59.7318329" lon="14.7897336">
        <ele>163.8</ele>
        <time>2012-07-21T20:40:47Z</time>
      </trkpt>
      <trkpt lat="59.7314768" lon="14.7899734">
        <ele>163.4</ele>
        <time>2012-07-21T20:40:52Z</time>
      </trkpt>
      <trkpt lat="59.7311145" lon="14.7902799">
        <ele>162.8</ele>
        <time>2012-07-21T20:40:57Z</time>
      </trkpt>
      <trkpt lat="59.7307667" lon="14.7905931">
        <ele>162.4</ele>
        <time>2012-07-21T20:41:02Z</time>
      </trkpt>
      <trkpt lat="59.7304297" lon="14.7909721">
        <ele>161.6</ele>
        <time>2012-07-21T20:41:07Z</time>
      </trkpt>
      <trkpt lat="59.7300865" lon="14.7913735">
        <ele>160</ele>
        <time>2012-07-21T20:41:12Z</time>
      </trkpt>
      <trkpt lat="59.7297519" lon="14.7914852">
        <ele>157.8</ele>
        <time>2012-07-21T20:41:16Z</time>
      </trkpt>
      <trkpt lat="59.7296636" lon="14.791474">
        <ele>157.4</ele>
        <time>2012-07-21T20:41:17Z</time>
      </trkpt>
      <trkpt lat="59.7293051" lon="14.7913753">
        <ele>155.8</ele>
        <time>2012-07-21T20:41:21Z</time>
      </trkpt>
      <trkpt lat="59.7289446" lon="14.791245">
        <ele>155.2</ele>
        <time>2012-07-21T20:41:25Z</time>
      </trkpt>
      <trkpt lat="59.7285853" lon="14.7911122">
        <ele>153.8</ele>
        <time>2012-07-21T20:41:29Z</time>
      </trkpt>
      <trkpt lat="59.7282146" lon="14.7909272">
        <ele>152.4</ele>
        <time>2012-07-21T20:41:33Z</time>
      </trkpt>
      <trkpt lat="59.727823" lon="14.7906969">
        <ele>150.8</ele>
        <time>2012-07-21T20:41:37Z</time>
      </trkpt>
      <trkpt lat="59.7274281" lon="14.79046">
        <ele>148.4</ele>
        <time>2012-07-21T20:41:41Z</time>
      </trkpt>
      <trkpt lat="59.7270542" lon="14.7902261">
        <ele>146.8</ele>
        <time>2012-07-21T20:41:45Z</time>
      </trkpt>
      <trkpt lat="59.7266985" lon="14.7900127">
        <ele>145.6</ele>
        <time>2012-07-21T20:41:49Z</time>
      </trkpt>
      <trkpt lat="59.7263352" lon="14.7898035">
        <ele>144.6</ele>
        <time>2012-07-21T20:41:53Z</time>
      </trkpt>
      <trkpt lat="59.7259815" lon="14.7895656">
        <ele>144.4</ele>
        <time>2012-07-21T20:41:57Z</time>
      </trkpt>
      <trkpt lat="59.7255691" lon="14.7892983">
        <ele>144</ele>
        <time>2012-07-21T20:42:02Z</time>
      </trkpt>
      <trkpt lat="59.7251712" lon="14.7890498">
        <ele>143.8</ele>
        <time>2012-07-21T20:42:07Z</time>
      </trkpt>
      <trkpt lat="59.724696" lon="14.7887652">
        <ele>143.8</ele>
        <time>2012-07-21T20:42:12Z</time>
      </trkpt>
      <trkpt lat="59.7243785" lon="14.7885706">
        <ele>144.6</ele>
        <time>2012-07-21T20:42:17Z</time>
      </trkpt>
      <trkpt lat="59.7239804" lon="14.788312">
        <ele>144.6</ele>
        <time>2012-07-21T20:42:22Z</time>
      </trkpt>
      <trkpt lat="59.7235933" lon="14.7880701">
        <ele>144.8</ele>
        <time>2012-07-21T20:42:27Z</time>
      </trkpt>
      <trkpt lat="59.7232105" lon="14.7879303">
        <ele>145</ele>
        <time>2012-07-21T20:42:32Z</time>
      </trkpt>
      <trkpt lat="59.7228107" lon="14.7878866">
        <ele>144.2</ele>
        <time>2012-07-21T20:42:37Z</time>
      </trkpt>
      <trkpt lat="59.7223875" lon="14.7878806">
        <ele>143.2</ele>
        <time>2012-07-21T20:42:42Z</time>
      </trkpt>
      <trkpt lat="59.7219684" lon="14.7878592">
        <ele>143.2</ele>
        <time>2012-07-21T20:42:47Z</time>
      </trkpt>
      <trkpt lat="59.7215676" lon="14.7878033">
        <ele>143.4</ele>
        <time>2012-07-21T20:42:52Z</time>
      </trkpt>
      <trkpt lat="59.7210954" lon="14.7876434">
        <ele>143</ele>
        <time>2012-07-21T20:42:57Z</time>
      </trkpt>
      <trkpt lat="59.7207649" lon="14.7875401">
        <ele>142.6</ele>
        <time>2012-07-21T20:43:02Z</time>
      </trkpt>
      <trkpt lat="59.720337" lon="14.7874558">
        <ele>142.2</ele>
        <time>2012-07-21T20:43:07Z</time>
      </trkpt>
      <trkpt lat="59.7198974" lon="14.7873668">
        <ele>141.8</ele>
        <time>2012-07-21T20:43:12Z</time>
      </trkpt>
      <trkpt lat="59.7194587" lon="14.787282">
        <ele>141.4</ele>
        <time>2012-07-21T20:43:17Z</time>
      </trkpt>
      <trkpt lat="59.7190094" lon="14.7872018">
        <ele>140.2</ele>
        <time>2012-07-21T20:43:21Z</time>
      </trkpt>
      <trkpt lat="59.7187319" lon="14.7871666">
        <ele>139.8</ele>
        <time>2012-07-21T20:43:25Z</time>
      </trkpt>
      <trkpt lat="59.7182886" lon="14.7871423">
        <ele>139.4</ele>
        <time>2012-07-21T20:43:29Z</time>
      </trkpt>
      <trkpt lat="59.7179512" lon="14.7871641">
        <ele>138.6</ele>
        <time>2012-07-21T20:43:34Z</time>
      </trkpt>
      <trkpt lat="59.7175289" lon="14.787181">
        <ele>137.6</ele>
        <time>2012-07-21T20:43:39Z</time>
      </trkpt>
      <trkpt lat="59.7171113" lon="14.787195">
        <ele>137.6</ele>
        <time>2012-07-21T20:43:44Z</time>
      </trkpt>
      <trkpt lat="59.71667" lon="14.7871921">
        <ele>138.8</ele>
        <time>2012-07-21T20:43:49Z</time>
      </trkpt>
      <trkpt lat="59.7162342" lon="14.7871977">
        <ele>138.8</ele>
        <time>2012-07-21T20:43:54Z</time>
      </trkpt>
      <trkpt lat="59.7157107" lon="14.7872338">
        <ele>138.2</ele>
        <time>2012-07-21T20:43:59Z</time>
      </trkpt>
      <trkpt lat="59.7153632" lon="14.7872916">
        <ele>137.8</ele>
        <time>2012-07-21T20:44:04Z</time>
      </trkpt>
      <trkpt lat="59.714925" lon="14.787418">
        <ele>136</ele>
        <time>2012-07-21T20:44:09Z</time>
      </trkpt>
      <trkpt lat="59.7145659" lon="14.7875283">
        <ele>135.4</ele>
        <time>2012-07-21T20:44:13Z</time>
      </trkpt>
      <trkpt lat="59.7141993" lon="14.7876599">
        <ele>134.4</ele>
        <time>2012-07-21T20:44:17Z</time>
      </trkpt>
      <trkpt lat="59.7137591" lon="14.7879148">
        <ele>132.2</ele>
        <time>2012-07-21T20:44:21Z</time>
      </trkpt>
      <trkpt lat="59.7134985" lon="14.7880809">
        <ele>131.4</ele>
        <time>2012-07-21T20:44:25Z</time>
      </trkpt>
      <trkpt lat="59.7131396" lon="14.788323">
        <ele>131.8</ele>
        <time>2012-07-21T20:44:29Z</time>
      </trkpt>
      <trkpt lat="59.7126899" lon="14.7886074">
        <ele>130.8</ele>
        <time>2012-07-21T20:44:33Z</time>
      </trkpt>
      <trkpt lat="59.7124142" lon="14.7887564">
        <ele>131.2</ele>
        <time>2012-07-21T20:44:37Z</time>
      </trkpt>
      <trkpt lat="59.7120607" lon="14.7889622">
        <ele>131.8</ele>
        <time>2012-07-21T20:44:41Z</time>
      </trkpt>
      <trkpt lat="59.7116439" lon="14.7892192">
        <ele>133</ele>
        <time>2012-07-21T20:44:46Z</time>
      </trkpt>
      <trkpt lat="59.7111467" lon="14.7895402">
        <ele>132.2</ele>
        <time>2012-07-21T20:44:51Z</time>
      </trkpt>
      <trkpt lat="59.7108047" lon="14.7897392">
        <ele>131.8</ele>
        <time>2012-07-21T20:44:56Z</time>
      </trkpt>
      <trkpt lat="59.7103878" lon="14.7900002">
        <ele>132</ele>
        <time>2012-07-21T20:45:01Z</time>
      </trkpt>
      <trkpt lat="59.7099805" lon="14.790252">
        <ele>131.4</ele>
        <time>2012-07-21T20:45:06Z</time>
      </trkpt>
      <trkpt lat="59.709589" lon="14.7904898">
        <ele>131.6</ele>
        <time>2012-07-21T20:45:11Z</time>
      </trkpt>
      <trkpt lat="59.7092081" lon="14.7907206">
        <ele>131.2</ele>
        <time>2012-07-21T20:45:16Z</time>
      </trkpt>
      <trkpt lat="59.7088462" lon="14.7909521">
        <ele>131.4</ele>
        <time>2012-07-21T20:45:21Z</time>
      </trkpt>
      <trkpt lat="59.7085039" lon="14.7911721">
        <ele>132.2</ele>
        <time>2012-07-21T20:45:26Z</time>
      </trkpt>
      <trkpt lat="59.7081224" lon="14.7914175">
        <ele>133.4</ele>
        <time>2012-07-21T20:45:32Z</time>
      </trkpt>
      <trkpt lat="59.7077448" lon="14.7916563">
        <ele>133.8</ele>
        <time>2012-07-21T20:45:38Z</time>
      </trkpt>
      <trkpt lat="59.7073807" lon="14.7918934">
        <ele>134.6</ele>
        <time>2012-07-21T20:45:44Z</time>
      </trkpt>
      <trkpt lat="59.7069296" lon="14.7921664">
        <ele>134.2</ele>
        <time>2012-07-21T20:45:51Z</time>
      </trkpt>
      <trkpt lat="59.7065706" lon="14.7924104">
        <ele>134.8</ele>
        <time>2012-07-21T20:45:58Z</time>
      </trkpt>
      <trkpt lat="59.7062037" lon="14.7926513">
        <ele>135.8</ele>
        <time>2012-07-21T20:46:05Z</time>
      </trkpt>
      <trkpt lat="59.7058252" lon="14.7929051">
        <ele>137.4</ele>
        <time>2012-07-21T20:46:12Z</time>
      </trkpt>
      <trkpt lat="59.7054807" lon="14.7931825">
        <ele>138.8</ele>
        <time>2012-07-21T20:46:18Z</time>
      </trkpt>
      <trkpt lat="59.7051258" lon="14.7933906">
        <ele>139.4</ele>
        <time>2012-07-21T20:46:24Z</time>
      </trkpt>
      <trkpt lat="59.7047195" lon="14.7935969">
        <ele>139</ele>
        <time>2012-07-21T20:46:30Z</time>
      </trkpt>
      <trkpt lat="59.7043544" lon="14.7937145">
        <ele>139</ele>
        <time>2012-07-21T20:46:35Z</time>
      </trkpt>
      <trkpt lat="59.7039561" lon="14.7938268">
        <ele>138.2</ele>
        <time>2012-07-21T20:46:40Z</time>
      </trkpt>
      <trkpt lat="59.7035526" lon="14.7939551">
        <ele>138</ele>
        <time>2012-07-21T20:46:45Z</time>
      </trkpt>
      <trkpt lat="59.7032341" lon="14.7940465">
        <ele>137.6</ele>
        <time>2012-07-21T20:46:50Z</time>
      </trkpt>
      <trkpt lat="59.7027461" lon="14.7941723">
        <ele>137.6</ele>
        <time>2012-07-21T20:46:55Z</time>
      </trkpt>
      <trkpt lat="59.7023094" lon="14.7942751">
        <ele>137</ele>
        <time>2012-07-21T20:47:00Z</time>
      </trkpt>
      <trkpt lat="59.7018878" lon="14.794436">
        <ele>135.8</ele>
        <time>2012-07-21T20:47:05Z</time>
      </trkpt>
      <trkpt lat="59.7014692" lon="14.7946534">
        <ele>134</ele>
        <time>2012-07-21T20:47:10Z</time>
      </trkpt>
      <trkpt lat="59.7010479" lon="14.7949294">
        <ele>132.8</ele>
        <time>2012-07-21T20:47:15Z</time>
      </trkpt>
      <trkpt lat="59.7007021" lon="14.795163">
        <ele>133.4</ele>
        <time>2012-07-21T20:47:19Z</time>
      </trkpt>
      <trkpt lat="59.7002803" lon="14.7954273">
        <ele>133.4</ele>
        <time>2012-07-21T20:47:24Z</time>
      </trkpt>
      <trkpt lat="59.6998474" lon="14.7956373">
        <ele>133.2</ele>
        <time>2012-07-21T20:47:29Z</time>
      </trkpt>
      <trkpt lat="59.6994039" lon="14.7957848">
        <ele>132.2</ele>
        <time>2012-07-21T20:47:34Z</time>
      </trkpt>
      <trkpt lat="59.6989673" lon="14.79594">
        <ele>130.4</ele>
        <time>2012-07-21T20:47:39Z</time>
      </trkpt>
      <trkpt lat="59.698606" lon="14.7960695">
        <ele>128.8</ele>
        <time>2012-07-21T20:47:43Z</time>
      </trkpt>
      <trkpt lat="59.6982441" lon="14.7961869">
        <ele>128.6</ele>
        <time>2012-07-21T20:47:47Z</time>
      </trkpt>
      <trkpt lat="59.6978054" lon="14.7964043">
        <ele>128.6</ele>
        <time>2012-07-21T20:47:52Z</time>
      </trkpt>
      <trkpt lat="59.6974604" lon="14.7966245">
        <ele>127.4</ele>
        <time>2012-07-21T20:47:56Z</time>
      </trkpt>
      <trkpt lat="59.697119" lon="14.796842">
        <ele>126.6</ele>
        <time>2012-07-21T20:48:00Z</time>
      </trkpt>
      <trkpt lat="59.6967102" lon="14.7970934">
        <ele>126</ele>
        <time>2012-07-21T20:48:05Z</time>
      </trkpt>
      <trkpt lat="59.6962886" lon="14.7973466">
        <ele>124.6</ele>
        <time>2012-07-21T20:48:10Z</time>
      </trkpt>
      <trkpt lat="59.6958582" lon="14.7976087">
        <ele>122.8</ele>
        <time>2012-07-21T20:48:15Z</time>
      </trkpt>
      <trkpt lat="59.6954343" lon="14.7978729">
        <ele>120.8</ele>
        <time>2012-07-21T20:48:20Z</time>
      </trkpt>
      <trkpt lat="59.6950361" lon="14.7981003">
        <ele>121.2</ele>
        <time>2012-07-21T20:48:25Z</time>
      </trkpt>
      <trkpt lat="59.6946844" lon="14.7983037">
        <ele>122.2</ele>
        <time>2012-07-21T20:48:30Z</time>
      </trkpt>
      <trkpt lat="59.6942782" lon="14.7985428">
        <ele>122.8</ele>
        <time>2012-07-21T20:48:36Z</time>
      </trkpt>
      <trkpt lat="59.6938703" lon="14.7988266">
        <ele>122.4</ele>
        <time>2012-07-21T20:48:42Z</time>
      </trkpt>
      <trkpt lat="59.6935198" lon="14.7990514">
        <ele>122.4</ele>
        <time>2012-07-21T20:48:47Z</time>
      </trkpt>
      <trkpt lat="59.6931666" lon="14.799316">
        <ele>122.2</ele>
        <time>2012-07-21T20:48:52Z</time>
      </trkpt>
      <trkpt lat="59.6928111" lon="14.7996264">
        <ele>122.2</ele>
        <time>2012-07-21T20:48:57Z</time>
      </trkpt>
      <trkpt lat="59.6924662" lon="14.8000033">
        <ele>122</ele>
        <time>2012-07-21T20:49:02Z</time>
      </trkpt>
      <trkpt lat="59.6921226" lon="14.8004312">
        <ele>122</ele>
        <time>2012-07-21T20:49:07Z</time>
      </trkpt>
      <trkpt lat="59.6918098" lon="14.8008909">
        <ele>121.8</ele>
        <time>2012-07-21T20:49:12Z</time>
      </trkpt>
      <trkpt lat="59.6915198" lon="14.8013483">
        <ele>122.6</ele>
        <time>2012-07-21T20:49:17Z</time>
      </trkpt>
      <trkpt lat="59.6911959" lon="14.8018948">
        <ele>123.8</ele>
        <time>2012-07-21T20:49:23Z</time>
      </trkpt>
      <trkpt lat="59.6909096" lon="14.8023903">
        <ele>124</ele>
        <time>2012-07-21T20:49:28Z</time>
      </trkpt>
      <trkpt lat="59.6906049" lon="14.8028698">
        <ele>124</ele>
        <time>2012-07-21T20:49:33Z</time>
      </trkpt>
      <trkpt lat="59.6902719" lon="14.8033222">
        <ele>124.2</ele>
        <time>2012-07-21T20:49:38Z</time>
      </trkpt>
      <trkpt lat="59.6899526" lon="14.8037097">
        <ele>124.4</ele>
        <time>2012-07-21T20:49:43Z</time>
      </trkpt>
      <trkpt lat="59.6896406" lon="14.8040703">
        <ele>125.6</ele>
        <time>2012-07-21T20:49:48Z</time>
      </trkpt>
      <trkpt lat="59.6892944" lon="14.8044929">
        <ele>126</ele>
        <time>2012-07-21T20:49:54Z</time>
      </trkpt>
      <trkpt lat="59.6891639" lon="14.8046283">
        <ele>126.2</ele>
        <time>2012-07-21T20:49:56Z</time>
      </trkpt>
      <trkpt lat="59.6889409" lon="14.8048807">
        <ele>125.8</ele>
        <time>2012-07-21T20:50:00Z</time>
      </trkpt>
      <trkpt lat="59.6886692" lon="14.8052556">
        <ele>127.8</ele>
        <time>2012-07-21T20:50:06Z</time>
      </trkpt>
      <trkpt lat="59.6885708" lon="14.8053942">
        <ele>130</ele>
        <time>2012-07-21T20:50:08Z</time>
      </trkpt>
      <trkpt lat="59.6883677" lon="14.8056864">
        <ele>131.4</ele>
        <time>2012-07-21T20:50:12Z</time>
      </trkpt>
      <trkpt lat="59.6880077" lon="14.8061309">
        <ele>124.6</ele>
        <time>2012-07-21T20:50:18Z</time>
      </trkpt>
      <trkpt lat="59.6876633" lon="14.8066029">
        <ele>123.8</ele>
        <time>2012-07-21T20:50:23Z</time>
      </trkpt>
      <trkpt lat="59.6875895" lon="14.8067009">
        <ele>124</ele>
        <time>2012-07-21T20:50:24Z</time>
      </trkpt>
      <trkpt lat="59.6872856" lon="14.8071096">
        <ele>126.6</ele>
        <time>2012-07-21T20:50:28Z</time>
      </trkpt>
      <trkpt lat="59.686925" lon="14.8076189">
        <ele>125.6</ele>
        <time>2012-07-21T20:50:33Z</time>
      </trkpt>
      <trkpt lat="59.6866121" lon="14.8080571">
        <ele>124.6</ele>
        <time>2012-07-21T20:50:37Z</time>
      </trkpt>
      <trkpt lat="59.6862932" lon="14.8085061">
        <ele>123.4</ele>
        <time>2012-07-21T20:50:41Z</time>
      </trkpt>
      <trkpt lat="59.6859849" lon="14.8089537">
        <ele>122</ele>
        <time>2012-07-21T20:50:45Z</time>
      </trkpt>
      <trkpt lat="59.685686" lon="14.8093655">
        <ele>121.2</ele>
        <time>2012-07-21T20:50:49Z</time>
      </trkpt>
      <trkpt lat="59.6853761" lon="14.8097742">
        <ele>120.6</ele>
        <time>2012-07-21T20:50:53Z</time>
      </trkpt>
      <trkpt lat="59.6850693" lon="14.8101689">
        <ele>119.6</ele>
        <time>2012-07-21T20:50:57Z</time>
      </trkpt>
      <trkpt lat="59.6847469" lon="14.810555">
        <ele>118.4</ele>
        <time>2012-07-21T20:51:01Z</time>
      </trkpt>
      <trkpt lat="59.6844862" lon="14.8108033">
        <ele>117.4</ele>
        <time>2012-07-21T20:51:04Z</time>
      </trkpt>
      <trkpt lat="59.684395" lon="14.810858">
        <ele>117</ele>
        <time>2012-07-21T20:51:05Z</time>
      </trkpt>
      <trkpt lat="59.6843022" lon="14.8108953">
        <ele>116.6</ele>
        <time>2012-07-21T20:51:06Z</time>
      </trkpt>
      <trkpt lat="59.684025" lon="14.8109286">
        <ele>116.8</ele>
        <time>2012-07-21T20:51:09Z</time>
      </trkpt>
      <trkpt lat="59.6836361" lon="14.8108621">
        <ele>118.6</ele>
        <time>2012-07-21T20:51:14Z</time>
      </trkpt>
      <trkpt lat="59.6834228" lon="14.8108817">
        <ele>119.6</ele>
        <time>2012-07-21T20:51:17Z</time>
      </trkpt>
      <trkpt lat="59.6832825" lon="14.8109479">
        <ele>119.4</ele>
        <time>2012-07-21T20:51:19Z</time>
      </trkpt>
      <trkpt lat="59.6829285" lon="14.8111947">
        <ele>119.2</ele>
        <time>2012-07-21T20:51:24Z</time>
      </trkpt>
      <trkpt lat="59.6825133" lon="14.8114988">
        <ele>118.2</ele>
        <time>2012-07-21T20:51:29Z</time>
      </trkpt>
      <trkpt lat="59.6821234" lon="14.811795">
        <ele>117.8</ele>
        <time>2012-07-21T20:51:34Z</time>
      </trkpt>
      <trkpt lat="59.6817258" lon="14.8120591">
        <ele>118.2</ele>
        <time>2012-07-21T20:51:39Z</time>
      </trkpt>
      <trkpt lat="59.6813242" lon="14.8122841">
        <ele>119.2</ele>
        <time>2012-07-21T20:51:44Z</time>
      </trkpt>
      <trkpt lat="59.680955" lon="14.8124574">
        <ele>120.4</ele>
        <time>2012-07-21T20:51:49Z</time>
      </trkpt>
      <trkpt lat="59.6806774" lon="14.8125811">
        <ele>120.6</ele>
        <time>2012-07-21T20:51:53Z</time>
      </trkpt>
      <trkpt lat="59.6806074" lon="14.8126246">
        <ele>120.8</ele>
        <time>2012-07-21T20:51:54Z</time>
      </trkpt>
      <trkpt lat="59.6801967" lon="14.812866">
        <ele>121.4</ele>
        <time>2012-07-21T20:52:00Z</time>
      </trkpt>
      <trkpt lat="59.6798444" lon="14.8130858">
        <ele>121.8</ele>
        <time>2012-07-21T20:52:05Z</time>
      </trkpt>
      <trkpt lat="59.6794942" lon="14.8132944">
        <ele>123</ele>
        <time>2012-07-21T20:52:10Z</time>
      </trkpt>
      <trkpt lat="59.6791086" lon="14.8135462">
        <ele>123</ele>
        <time>2012-07-21T20:52:16Z</time>
      </trkpt>
      <trkpt lat="59.6787237" lon="14.8138557">
        <ele>122.6</ele>
        <time>2012-07-21T20:52:22Z</time>
      </trkpt>
      <trkpt lat="59.6783457" lon="14.814158">
        <ele>122</ele>
        <time>2012-07-21T20:52:28Z</time>
      </trkpt>
      <trkpt lat="59.6779628" lon="14.8144659">
        <ele>121</ele>
        <time>2012-07-21T20:52:34Z</time>
      </trkpt>
      <trkpt lat="59.6776361" lon="14.8147832">
        <ele>120.4</ele>
        <time>2012-07-21T20:52:39Z</time>
      </trkpt>
      <trkpt lat="59.6772963" lon="14.8151277">
        <ele>120</ele>
        <time>2012-07-21T20:52:44Z</time>
      </trkpt>
      <trkpt lat="59.6769321" lon="14.8154678">
        <ele>119.8</ele>
        <time>2012-07-21T20:52:49Z</time>
      </trkpt>
      <trkpt lat="59.6765888" lon="14.815821">
        <ele>121</ele>
        <time>2012-07-21T20:52:54Z</time>
      </trkpt>
      <trkpt lat="59.6762054" lon="14.8161999">
        <ele>120.2</ele>
        <time>2012-07-21T20:52:59Z</time>
      </trkpt>
      <trkpt lat="59.675856" lon="14.8165115">
        <ele>120.4</ele>
        <time>2012-07-21T20:53:04Z</time>
      </trkpt>
      <trkpt lat="59.6755427" lon="14.8168745">
        <ele>121.6</ele>
        <time>2012-07-21T20:53:09Z</time>
      </trkpt>
      <trkpt lat="59.6752306" lon="14.8173315">
        <ele>123.6</ele>
        <time>2012-07-21T20:53:15Z</time>
      </trkpt>
      <trkpt lat="59.6749471" lon="14.8177847">
        <ele>125.8</ele>
        <time>2012-07-21T20:53:21Z</time>
      </trkpt>
      <trkpt lat="59.6746404" lon="14.8182502">
        <ele>126.8</ele>
        <time>2012-07-21T20:53:27Z</time>
      </trkpt>
      <trkpt lat="59.6743285" lon="14.8187445">
        <ele>127.4</ele>
        <time>2012-07-21T20:53:33Z</time>
      </trkpt>
      <trkpt lat="59.6740183" lon="14.8192585">
        <ele>128</ele>
        <time>2012-07-21T20:53:39Z</time>
      </trkpt>
      <trkpt lat="59.6737303" lon="14.8197972">
        <ele>130.4</ele>
        <time>2012-07-21T20:53:45Z</time>
      </trkpt>
      <trkpt lat="59.673464" lon="14.8203944">
        <ele>132.4</ele>
        <time>2012-07-21T20:53:51Z</time>
      </trkpt>
      <trkpt lat="59.6731996" lon="14.8210124">
        <ele>133.2</ele>
        <time>2012-07-21T20:53:57Z</time>
      </trkpt>
      <trkpt lat="59.6729433" lon="14.8216765">
        <ele>132.2</ele>
        <time>2012-07-21T20:54:03Z</time>
      </trkpt>
      <trkpt lat="59.6727099" lon="14.8222624">
        <ele>130.4</ele>
        <time>2012-07-21T20:54:08Z</time>
      </trkpt>
      <trkpt lat="59.6724424" lon="14.8228845">
        <ele>129</ele>
        <time>2012-07-21T20:54:13Z</time>
      </trkpt>
      <trkpt lat="59.6721839" lon="14.8234268">
        <ele>128.6</ele>
        <time>2012-07-21T20:54:18Z</time>
      </trkpt>
      <trkpt lat="59.6719171" lon="14.8239247">
        <ele>127.8</ele>
        <time>2012-07-21T20:54:23Z</time>
      </trkpt>
      <trkpt lat="59.6716489" lon="14.8244156">
        <ele>127.4</ele>
        <time>2012-07-21T20:54:28Z</time>
      </trkpt>
      <trkpt lat="59.6713583" lon="14.8248996">
        <ele>127.8</ele>
        <time>2012-07-21T20:54:33Z</time>
      </trkpt>
      <trkpt lat="59.6710773" lon="14.8253773">
        <ele>127.6</ele>
        <time>2012-07-21T20:54:38Z</time>
      </trkpt>
      <trkpt lat="59.670776" lon="14.8259413">
        <ele>125.2</ele>
        <time>2012-07-21T20:54:43Z</time>
      </trkpt>
      <trkpt lat="59.6705127" lon="14.8264493">
        <ele>123.6</ele>
        <time>2012-07-21T20:54:47Z</time>
      </trkpt>
      <trkpt lat="59.6702456" lon="14.8269803">
        <ele>122.6</ele>
        <time>2012-07-21T20:54:51Z</time>
      </trkpt>
      <trkpt lat="59.6699928" lon="14.8274855">
        <ele>122.8</ele>
        <time>2012-07-21T20:54:55Z</time>
      </trkpt>
      <trkpt lat="59.6697005" lon="14.8280662">
        <ele>123.6</ele>
        <time>2012-07-21T20:55:00Z</time>
      </trkpt>
      <trkpt lat="59.6694433" lon="14.8285921">
        <ele>125</ele>
        <time>2012-07-21T20:55:05Z</time>
      </trkpt>
      <trkpt lat="59.6691827" lon="14.8291379">
        <ele>125.6</ele>
        <time>2012-07-21T20:55:10Z</time>
      </trkpt>
      <trkpt lat="59.6689057" lon="14.8296953">
        <ele>125.4</ele>
        <time>2012-07-21T20:55:15Z</time>
      </trkpt>
      <trkpt lat="59.6686295" lon="14.8302356">
        <ele>125.8</ele>
        <time>2012-07-21T20:55:20Z</time>
      </trkpt>
      <trkpt lat="59.6683257" lon="14.8307669">
        <ele>126.6</ele>
        <time>2012-07-21T20:55:26Z</time>
      </trkpt>
      <trkpt lat="59.6680287" lon="14.8312715">
        <ele>124.8</ele>
        <time>2012-07-21T20:55:32Z</time>
      </trkpt>
      <trkpt lat="59.6677626" lon="14.8317157">
        <ele>123.8</ele>
        <time>2012-07-21T20:55:37Z</time>
      </trkpt>
      <trkpt lat="59.6674663" lon="14.8322163">
        <ele>124.2</ele>
        <time>2012-07-21T20:55:43Z</time>
      </trkpt>
      <trkpt lat="59.66716" lon="14.8328144">
        <ele>123.4</ele>
        <time>2012-07-21T20:55:49Z</time>
      </trkpt>
      <trkpt lat="59.6669543" lon="14.8334741">
        <ele>124.6</ele>
        <time>2012-07-21T20:55:54Z</time>
      </trkpt>
      <trkpt lat="59.6668334" lon="14.8342414">
        <ele>124</ele>
        <time>2012-07-21T20:55:59Z</time>
      </trkpt>
      <trkpt lat="59.6667646" lon="14.8349719">
        <ele>124</ele>
        <time>2012-07-21T20:56:04Z</time>
      </trkpt>
      <trkpt lat="59.6666908" lon="14.8358064">
        <ele>124.2</ele>
        <time>2012-07-21T20:56:10Z</time>
      </trkpt>
      <trkpt lat="59.6666247" lon="14.836594">
        <ele>126.8</ele>
        <time>2012-07-21T20:56:16Z</time>
      </trkpt>
      <trkpt lat="59.6665857" lon="14.8373142">
        <ele>129.6</ele>
        <time>2012-07-21T20:56:22Z</time>
      </trkpt>
      <trkpt lat="59.6665692" lon="14.8381441">
        <ele>129.2</ele>
        <time>2012-07-21T20:56:28Z</time>
      </trkpt>
      <trkpt lat="59.6666548" lon="14.8389656">
        <ele>127.4</ele>
        <time>2012-07-21T20:56:34Z</time>
      </trkpt>
      <trkpt lat="59.6667864" lon="14.8396601">
        <ele>126.2</ele>
        <time>2012-07-21T20:56:39Z</time>
      </trkpt>
      <trkpt lat="59.6669732" lon="14.8403177">
        <ele>124.4</ele>
        <time>2012-07-21T20:56:44Z</time>
      </trkpt>
      <trkpt lat="59.667048" lon="14.8405721">
        <ele>123.2</ele>
        <time>2012-07-21T20:56:46Z</time>
      </trkpt>
      <trkpt lat="59.667123" lon="14.8410299">
        <ele>122</ele>
        <time>2012-07-21T20:56:49Z</time>
      </trkpt>
      <trkpt lat="59.6671547" lon="14.8415821">
        <ele>121</ele>
        <time>2012-07-21T20:56:52Z</time>
      </trkpt>
      <trkpt lat="59.6671599" lon="14.8417794">
        <ele>120.4</ele>
        <time>2012-07-21T20:56:53Z</time>
      </trkpt>
      <trkpt lat="59.6671742" lon="14.8426343">
        <ele>117.2</ele>
        <time>2012-07-21T20:56:57Z</time>
      </trkpt>
      <trkpt lat="59.667192" lon="14.8435436">
        <ele>115</ele>
        <time>2012-07-21T20:57:01Z</time>
      </trkpt>
      <trkpt lat="59.667193" lon="14.8443794">
        <ele>115.6</ele>
        <time>2012-07-21T20:57:05Z</time>
      </trkpt>
      <trkpt lat="59.6671767" lon="14.8451067">
        <ele>117.6</ele>
        <time>2012-07-21T20:57:09Z</time>
      </trkpt>
      <trkpt lat="59.6671469" lon="14.8460073">
        <ele>117</ele>
        <time>2012-07-21T20:57:14Z</time>
      </trkpt>
      <trkpt lat="59.6671136" lon="14.8467612">
        <ele>116.2</ele>
        <time>2012-07-21T20:57:18Z</time>
      </trkpt>
      <trkpt lat="59.667092" lon="14.8475847">
        <ele>117.6</ele>
        <time>2012-07-21T20:57:23Z</time>
      </trkpt>
      <trkpt lat="59.6670788" lon="14.8483153">
        <ele>117.4</ele>
        <time>2012-07-21T20:57:28Z</time>
      </trkpt>
      <trkpt lat="59.6670547" lon="14.8491585">
        <ele>115.6</ele>
        <time>2012-07-21T20:57:33Z</time>
      </trkpt>
      <trkpt lat="59.667005" lon="14.8496377">
        <ele>115</ele>
        <time>2012-07-21T20:57:36Z</time>
      </trkpt>
      <trkpt lat="59.6669001" lon="14.849905">
        <ele>114.4</ele>
        <time>2012-07-21T20:57:38Z</time>
      </trkpt>
      <trkpt lat="59.6665907" lon="14.8502866">
        <ele>113</ele>
        <time>2012-07-21T20:57:42Z</time>
      </trkpt>
      <trkpt lat="59.6662526" lon="14.8506129">
        <ele>112</ele>
        <time>2012-07-21T20:57:46Z</time>
      </trkpt>
      <trkpt lat="59.6659072" lon="14.8509581">
        <ele>111</ele>
        <time>2012-07-21T20:57:50Z</time>
      </trkpt>
      <trkpt lat="59.6655596" lon="14.851328">
        <ele>110</ele>
        <time>2012-07-21T20:57:54Z</time>
      </trkpt>
      <trkpt lat="59.6652287" lon="14.8516931">
        <ele>110.2</ele>
        <time>2012-07-21T20:57:58Z</time>
      </trkpt>
      <trkpt lat="59.664894" lon="14.8520068">
        <ele>110.8</ele>
        <time>2012-07-21T20:58:02Z</time>
      </trkpt>
      <trkpt lat="59.6645661" lon="14.8523356">
        <ele>111</ele>
        <time>2012-07-21T20:58:06Z</time>
      </trkpt>
      <trkpt lat="59.6642402" lon="14.8526809">
        <ele>111.4</ele>
        <time>2012-07-21T20:58:10Z</time>
      </trkpt>
      <trkpt lat="59.6638482" lon="14.8530797">
        <ele>111.8</ele>
        <time>2012-07-21T20:58:15Z</time>
      </trkpt>
      <trkpt lat="59.6635017" lon="14.8534274">
        <ele>112.6</ele>
        <time>2012-07-21T20:58:20Z</time>
      </trkpt>
      <trkpt lat="59.6631321" lon="14.8538124">
        <ele>114.4</ele>
        <time>2012-07-21T20:58:26Z</time>
      </trkpt>
      <trkpt lat="59.6630297" lon="14.8539517">
        <ele>115.2</ele>
        <time>2012-07-21T20:58:28Z</time>
      </trkpt>
      <trkpt lat="59.6628529" lon="14.8542625">
        <ele>117</ele>
        <time>2012-07-21T20:58:32Z</time>
      </trkpt>
      <trkpt lat="59.6625888" lon="14.8548635">
        <ele>119.2</ele>
        <time>2012-07-21T20:58:39Z</time>
      </trkpt>
      <trkpt lat="59.6623297" lon="14.8554591">
        <ele>122.4</ele>
        <time>2012-07-21T20:58:48Z</time>
      </trkpt>
      <trkpt lat="59.6620472" lon="14.8559957">
        <ele>122.2</ele>
        <time>2012-07-21T20:58:55Z</time>
      </trkpt>
      <trkpt lat="59.6617658" lon="14.8565008">
        <ele>121.4</ele>
        <time>2012-07-21T20:59:01Z</time>
      </trkpt>
      <trkpt lat="59.6614664" lon="14.8570331">
        <ele>120.8</ele>
        <time>2012-07-21T20:59:07Z</time>
      </trkpt>
      <trkpt lat="59.6611505" lon="14.857586">
        <ele>120.4</ele>
        <time>2012-07-21T20:59:13Z</time>
      </trkpt>
      <trkpt lat="59.6608793" lon="14.8580777">
        <ele>119.4</ele>
        <time>2012-07-21T20:59:18Z</time>
      </trkpt>
      <trkpt lat="59.660592" lon="14.8586035">
        <ele>118.2</ele>
        <time>2012-07-21T20:59:23Z</time>
      </trkpt>
      <trkpt lat="59.6602904" lon="14.859149">
        <ele>117.2</ele>
        <time>2012-07-21T20:59:28Z</time>
      </trkpt>
      <trkpt lat="59.6599717" lon="14.859728">
        <ele>116.4</ele>
        <time>2012-07-21T20:59:33Z</time>
      </trkpt>
      <trkpt lat="59.6596464" lon="14.8603082">
        <ele>115.4</ele>
        <time>2012-07-21T20:59:38Z</time>
      </trkpt>
      <trkpt lat="59.6593807" lon="14.8607966">
        <ele>114.4</ele>
        <time>2012-07-21T20:59:42Z</time>
      </trkpt>
      <trkpt lat="59.6591111" lon="14.861294">
        <ele>113.6</ele>
        <time>2012-07-21T20:59:46Z</time>
      </trkpt>
      <trkpt lat="59.6588406" lon="14.8617741">
        <ele>113.2</ele>
        <time>2012-07-21T20:59:50Z</time>
      </trkpt>
      <trkpt lat="59.6585177" lon="14.8623662">
        <ele>113</ele>
        <time>2012-07-21T20:59:55Z</time>
      </trkpt>
      <trkpt lat="59.658205" lon="14.8629163">
        <ele>113.4</ele>
        <time>2012-07-21T21:00:00Z</time>
      </trkpt>
      <trkpt lat="59.6578867" lon="14.8633572">
        <ele>114.4</ele>
        <time>2012-07-21T21:00:05Z</time>
      </trkpt>
      <trkpt lat="59.657535" lon="14.8637006">
        <ele>115.4</ele>
        <time>2012-07-21T21:00:10Z</time>
      </trkpt>
      <trkpt lat="59.6571634" lon="14.8640244">
        <ele>115.6</ele>
        <time>2012-07-21T21:00:15Z</time>
      </trkpt>
      <trkpt lat="59.6567823" lon="14.8643405">
        <ele>116.2</ele>
        <time>2012-07-21T21:00:20Z</time>
      </trkpt>
      <trkpt lat="59.6564039" lon="14.8646644">
        <ele>117</ele>
        <time>2012-07-21T21:00:25Z</time>
      </trkpt>
      <trkpt lat="59.6560452" lon="14.8649816">
        <ele>117.8</ele>
        <time>2012-07-21T21:00:30Z</time>
      </trkpt>
      <trkpt lat="59.6556953" lon="14.8653002">
        <ele>118</ele>
        <time>2012-07-21T21:00:35Z</time>
      </trkpt>
      <trkpt lat="59.6553385" lon="14.8656157">
        <ele>118.4</ele>
        <time>2012-07-21T21:00:40Z</time>
      </trkpt>
      <trkpt lat="59.6549711" lon="14.8659235">
        <ele>116.8</ele>
        <time>2012-07-21T21:00:45Z</time>
      </trkpt>
      <trkpt lat="59.6545661" lon="14.8662635">
        <ele>115.2</ele>
        <time>2012-07-21T21:00:50Z</time>
      </trkpt>
      <trkpt lat="59.6542166" lon="14.8665065">
        <ele>113.6</ele>
        <time>2012-07-21T21:00:54Z</time>
      </trkpt>
      <trkpt lat="59.6538509" lon="14.8667196">
        <ele>112.2</ele>
        <time>2012-07-21T21:00:58Z</time>
      </trkpt>
      <trkpt lat="59.6534849" lon="14.866919">
        <ele>111.4</ele>
        <time>2012-07-21T21:01:02Z</time>
      </trkpt>
      <trkpt lat="59.6531133" lon="14.867118">
        <ele>110.6</ele>
        <time>2012-07-21T21:01:06Z</time>
      </trkpt>
      <trkpt lat="59.6527344" lon="14.8673229">
        <ele>110.2</ele>
        <time>2012-07-21T21:01:10Z</time>
      </trkpt>
      <trkpt lat="59.6523639" lon="14.867522">
        <ele>109.4</ele>
        <time>2012-07-21T21:01:14Z</time>
      </trkpt>
      <trkpt lat="59.6519315" lon="14.8677549">
        <ele>109</ele>
        <time>2012-07-21T21:01:19Z</time>
      </trkpt>
      <trkpt lat="59.6515122" lon="14.8679706">
        <ele>108.8</ele>
        <time>2012-07-21T21:01:24Z</time>
      </trkpt>
      <trkpt lat="59.651102" lon="14.8681881">
        <ele>108.8</ele>
        <time>2012-07-21T21:01:29Z</time>
      </trkpt>
      <trkpt lat="59.6507062" lon="14.8683933">
        <ele>108.8</ele>
        <time>2012-07-21T21:01:34Z</time>
      </trkpt>
      <trkpt lat="59.6503318" lon="14.8685901">
        <ele>109.2</ele>
        <time>2012-07-21T21:01:39Z</time>
      </trkpt>
      <trkpt lat="59.6499273" lon="14.8688139">
        <ele>110</ele>
        <time>2012-07-21T21:01:45Z</time>
      </trkpt>
      <trkpt lat="59.6495382" lon="14.8690242">
        <ele>111.4</ele>
        <time>2012-07-21T21:01:51Z</time>
      </trkpt>
      <trkpt lat="59.6491332" lon="14.8692455">
        <ele>111.8</ele>
        <time>2012-07-21T21:01:57Z</time>
      </trkpt>
      <trkpt lat="59.6487779" lon="14.8694907">
        <ele>111.6</ele>
        <time>2012-07-21T21:02:02Z</time>
      </trkpt>
      <trkpt lat="59.6484434" lon="14.8697871">
        <ele>111.8</ele>
        <time>2012-07-21T21:02:07Z</time>
      </trkpt>
      <trkpt lat="59.6481401" lon="14.8701799">
        <ele>112.4</ele>
        <time>2012-07-21T21:02:12Z</time>
      </trkpt>
      <trkpt lat="59.647846" lon="14.8706811">
        <ele>112</ele>
        <time>2012-07-21T21:02:17Z</time>
      </trkpt>
      <trkpt lat="59.6475897" lon="14.8712421">
        <ele>111.4</ele>
        <time>2012-07-21T21:02:22Z</time>
      </trkpt>
      <trkpt lat="59.6473361" lon="14.8718265">
        <ele>110.8</ele>
        <time>2012-07-21T21:02:27Z</time>
      </trkpt>
      <trkpt lat="59.6470669" lon="14.8724518">
        <ele>110</ele>
        <time>2012-07-21T21:02:32Z</time>
      </trkpt>
      <trkpt lat="59.6467994" lon="14.8730806">
        <ele>109.2</ele>
        <time>2012-07-21T21:02:37Z</time>
      </trkpt>
      <trkpt lat="59.6465203" lon="14.873746">
        <ele>107.8</ele>
        <time>2012-07-21T21:02:42Z</time>
      </trkpt>
      <trkpt lat="59.6462417" lon="14.8743938">
        <ele>107</ele>
        <time>2012-07-21T21:02:47Z</time>
      </trkpt>
      <trkpt lat="59.64597" lon="14.8750227">
        <ele>106.6</ele>
        <time>2012-07-21T21:02:52Z</time>
      </trkpt>
      <trkpt lat="59.6457045" lon="14.8756422">
        <ele>106.4</ele>
        <time>2012-07-21T21:02:57Z</time>
      </trkpt>
      <trkpt lat="59.6454313" lon="14.876268">
        <ele>106</ele>
        <time>2012-07-21T21:03:02Z</time>
      </trkpt>
      <trkpt lat="59.6451982" lon="14.8768115">
        <ele>105.6</ele>
        <time>2012-07-21T21:03:06Z</time>
      </trkpt>
      <trkpt lat="59.6449643" lon="14.8773653">
        <ele>105</ele>
        <time>2012-07-21T21:03:10Z</time>
      </trkpt>
      <trkpt lat="59.6447234" lon="14.877939">
        <ele>102.8</ele>
        <time>2012-07-21T21:03:14Z</time>
      </trkpt>
      <trkpt lat="59.6444322" lon="14.8785894">
        <ele>102.8</ele>
        <time>2012-07-21T21:03:19Z</time>
      </trkpt>
      <trkpt lat="59.6441658" lon="14.8791807">
        <ele>103.6</ele>
        <time>2012-07-21T21:03:24Z</time>
      </trkpt>
      <trkpt lat="59.6438991" lon="14.8797682">
        <ele>103.6</ele>
        <time>2012-07-21T21:03:29Z</time>
      </trkpt>
      <trkpt lat="59.6436396" lon="14.8803592">
        <ele>103.8</ele>
        <time>2012-07-21T21:03:34Z</time>
      </trkpt>
      <trkpt lat="59.643392" lon="14.880913">
        <ele>104</ele>
        <time>2012-07-21T21:03:39Z</time>
      </trkpt>
      <trkpt lat="59.643158" lon="14.8814512">
        <ele>104.2</ele>
        <time>2012-07-21T21:03:44Z</time>
      </trkpt>
      <trkpt lat="59.6428754" lon="14.8820927">
        <ele>105.2</ele>
        <time>2012-07-21T21:03:50Z</time>
      </trkpt>
      <trkpt lat="59.6426389" lon="14.8826262">
        <ele>106.2</ele>
        <time>2012-07-21T21:03:55Z</time>
      </trkpt>
      <trkpt lat="59.6423705" lon="14.8832338">
        <ele>107.8</ele>
        <time>2012-07-21T21:04:01Z</time>
      </trkpt>
      <trkpt lat="59.6421141" lon="14.8838309">
        <ele>109</ele>
        <time>2012-07-21T21:04:08Z</time>
      </trkpt>
      <trkpt lat="59.6418692" lon="14.8843889">
        <ele>109.6</ele>
        <time>2012-07-21T21:04:15Z</time>
      </trkpt>
      <trkpt lat="59.6416303" lon="14.8849251">
        <ele>110.6</ele>
        <time>2012-07-21T21:04:21Z</time>
      </trkpt>
      <trkpt lat="59.6413665" lon="14.8855302">
        <ele>111.6</ele>
        <time>2012-07-21T21:04:28Z</time>
      </trkpt>
      <trkpt lat="59.6411022" lon="14.886143">
        <ele>112</ele>
        <time>2012-07-21T21:04:35Z</time>
      </trkpt>
      <trkpt lat="59.6408683" lon="14.8866959">
        <ele>111.6</ele>
        <time>2012-07-21T21:04:41Z</time>
      </trkpt>
      <trkpt lat="59.6406076" lon="14.8873095">
        <ele>111</ele>
        <time>2012-07-21T21:04:47Z</time>
      </trkpt>
      <trkpt lat="59.6403676" lon="14.8879222">
        <ele>109.4</ele>
        <time>2012-07-21T21:04:52Z</time>
      </trkpt>
      <trkpt lat="59.6401197" lon="14.8885733">
        <ele>108.4</ele>
        <time>2012-07-21T21:04:57Z</time>
      </trkpt>
      <trkpt lat="59.6398743" lon="14.8892457">
        <ele>106.6</ele>
        <time>2012-07-21T21:05:02Z</time>
      </trkpt>
      <trkpt lat="59.6396665" lon="14.8898492">
        <ele>104.6</ele>
        <time>2012-07-21T21:05:06Z</time>
      </trkpt>
      <trkpt lat="59.6394505" lon="14.8904846">
        <ele>102.2</ele>
        <time>2012-07-21T21:05:10Z</time>
      </trkpt>
      <trkpt lat="59.6392351" lon="14.8911306">
        <ele>100.6</ele>
        <time>2012-07-21T21:05:14Z</time>
      </trkpt>
      <trkpt lat="59.6390327" lon="14.8917945">
        <ele>101.2</ele>
        <time>2012-07-21T21:05:18Z</time>
      </trkpt>
      <trkpt lat="59.6389054" lon="14.8925325">
        <ele>101.6</ele>
        <time>2012-07-21T21:05:22Z</time>
      </trkpt>
      <trkpt lat="59.6388495" lon="14.8932731">
        <ele>101.6</ele>
        <time>2012-07-21T21:05:26Z</time>
      </trkpt>
      <trkpt lat="59.638833" lon="14.8941508">
        <ele>102.2</ele>
        <time>2012-07-21T21:05:31Z</time>
      </trkpt>
      <trkpt lat="59.6388419" lon="14.895004">
        <ele>102.4</ele>
        <time>2012-07-21T21:05:36Z</time>
      </trkpt>
      <trkpt lat="59.6388744" lon="14.8958587">
        <ele>102</ele>
        <time>2012-07-21T21:05:41Z</time>
      </trkpt>
      <trkpt lat="59.6389122" lon="14.8967186">
        <ele>101.4</ele>
        <time>2012-07-21T21:05:46Z</time>
      </trkpt>
      <trkpt lat="59.6389502" lon="14.8975878">
        <ele>100.8</ele>
        <time>2012-07-21T21:05:51Z</time>
      </trkpt>
      <trkpt lat="59.6389708" lon="14.8984621">
        <ele>100</ele>
        <time>2012-07-21T21:05:56Z</time>
      </trkpt>
      <trkpt lat="59.638955" lon="14.8991885">
        <ele>98.8</ele>
        <time>2012-07-21T21:06:00Z</time>
      </trkpt>
      <trkpt lat="59.6388978" lon="14.8999324">
        <ele>97.8</ele>
        <time>2012-07-21T21:06:04Z</time>
      </trkpt>
      <trkpt lat="59.6388121" lon="14.9006636">
        <ele>96.2</ele>
        <time>2012-07-21T21:06:08Z</time>
      </trkpt>
      <trkpt lat="59.6386901" lon="14.9013784">
        <ele>94.8</ele>
        <time>2012-07-21T21:06:12Z</time>
      </trkpt>
      <trkpt lat="59.6385459" lon="14.9020635">
        <ele>93.8</ele>
        <time>2012-07-21T21:06:16Z</time>
      </trkpt>
      <trkpt lat="59.6383554" lon="14.9027186">
        <ele>92.8</ele>
        <time>2012-07-21T21:06:20Z</time>
      </trkpt>
      <trkpt lat="59.6381166" lon="14.9033237">
        <ele>92</ele>
        <time>2012-07-21T21:06:24Z</time>
      </trkpt>
      <trkpt lat="59.6378348" lon="14.9038633">
        <ele>91</ele>
        <time>2012-07-21T21:06:28Z</time>
      </trkpt>
      <trkpt lat="59.6375129" lon="14.9043052">
        <ele>90.6</ele>
        <time>2012-07-21T21:06:32Z</time>
      </trkpt>
      <trkpt lat="59.6371834" lon="14.9046763">
        <ele>91.4</ele>
        <time>2012-07-21T21:06:36Z</time>
      </trkpt>
      <trkpt lat="59.6368616" lon="14.9050208">
        <ele>92.2</ele>
        <time>2012-07-21T21:06:40Z</time>
      </trkpt>
      <trkpt lat="59.6364808" lon="14.9054347">
        <ele>93</ele>
        <time>2012-07-21T21:06:45Z</time>
      </trkpt>
      <trkpt lat="59.6361295" lon="14.9058419">
        <ele>93.8</ele>
        <time>2012-07-21T21:06:50Z</time>
      </trkpt>
      <trkpt lat="59.6358155" lon="14.9062602">
        <ele>95</ele>
        <time>2012-07-21T21:06:55Z</time>
      </trkpt>
      <trkpt lat="59.6355214" lon="14.9066706">
        <ele>95.6</ele>
        <time>2012-07-21T21:07:00Z</time>
      </trkpt>
      <trkpt lat="59.6352032" lon="14.9071767">
        <ele>96.2</ele>
        <time>2012-07-21T21:07:06Z</time>
      </trkpt>
      <trkpt lat="59.6348918" lon="14.9077278">
        <ele>95.6</ele>
        <time>2012-07-21T21:07:12Z</time>
      </trkpt>
      <trkpt lat="59.634641" lon="14.9082141">
        <ele>97.8</ele>
        <time>2012-07-21T21:07:17Z</time>
      </trkpt>
      <trkpt lat="59.6343727" lon="14.908753">
        <ele>99.2</ele>
        <time>2012-07-21T21:07:23Z</time>
      </trkpt>
      <trkpt lat="59.634117" lon="14.9092846">
        <ele>100.2</ele>
        <time>2012-07-21T21:07:29Z</time>
      </trkpt>
      <trkpt lat="59.6338524" lon="14.9098717">
        <ele>102</ele>
        <time>2012-07-21T21:07:36Z</time>
      </trkpt>
      <trkpt lat="59.633581" lon="14.9104713">
        <ele>104</ele>
        <time>2012-07-21T21:07:42Z</time>
      </trkpt>
      <trkpt lat="59.6333146" lon="14.9110809">
        <ele>105.8</ele>
        <time>2012-07-21T21:07:48Z</time>
      </trkpt>
      <trkpt lat="59.6330715" lon="14.9116267">
        <ele>107.6</ele>
        <time>2012-07-21T21:07:53Z</time>
      </trkpt>
      <trkpt lat="59.6327959" lon="14.9122692">
        <ele>107</ele>
        <time>2012-07-21T21:07:59Z</time>
      </trkpt>
      <trkpt lat="59.632537" lon="14.9129332">
        <ele>107.8</ele>
        <time>2012-07-21T21:08:05Z</time>
      </trkpt>
      <trkpt lat="59.6323262" lon="14.9135496">
        <ele>108.8</ele>
        <time>2012-07-21T21:08:10Z</time>
      </trkpt>
      <trkpt lat="59.6321266" lon="14.9142074">
        <ele>109</ele>
        <time>2012-07-21T21:08:15Z</time>
      </trkpt>
      <trkpt lat="59.6319372" lon="14.9148945">
        <ele>109.6</ele>
        <time>2012-07-21T21:08:20Z</time>
      </trkpt>
      <trkpt lat="59.6317597" lon="14.9156311">
        <ele>110.2</ele>
        <time>2012-07-21T21:08:25Z</time>
      </trkpt>
      <trkpt lat="59.6315528" lon="14.9163953">
        <ele>104.6</ele>
        <time>2012-07-21T21:08:30Z</time>
      </trkpt>
      <trkpt lat="59.6313534" lon="14.9171799">
        <ele>100.8</ele>
        <time>2012-07-21T21:08:35Z</time>
      </trkpt>
      <trkpt lat="59.6311664" lon="14.917968">
        <ele>98.6</ele>
        <time>2012-07-21T21:08:40Z</time>
      </trkpt>
      <trkpt lat="59.6309768" lon="14.9187507">
        <ele>97</ele>
        <time>2012-07-21T21:08:45Z</time>
      </trkpt>
      <trkpt lat="59.630769" lon="14.9195198">
        <ele>96</ele>
        <time>2012-07-21T21:08:50Z</time>
      </trkpt>
      <trkpt lat="59.6305805" lon="14.9201338">
        <ele>95.4</ele>
        <time>2012-07-21T21:08:54Z</time>
      </trkpt>
      <trkpt lat="59.6303801" lon="14.920747">
        <ele>95</ele>
        <time>2012-07-21T21:08:58Z</time>
      </trkpt>
      <trkpt lat="59.6301698" lon="14.9213472">
        <ele>94.6</ele>
        <time>2012-07-21T21:09:02Z</time>
      </trkpt>
      <trkpt lat="59.6299465" lon="14.9219302">
        <ele>94.2</ele>
        <time>2012-07-21T21:09:06Z</time>
      </trkpt>
      <trkpt lat="59.6297259" lon="14.9225161">
        <ele>93.8</ele>
        <time>2012-07-21T21:09:10Z</time>
      </trkpt>
      <trkpt lat="59.6295014" lon="14.9231137">
        <ele>93.4</ele>
        <time>2012-07-21T21:09:14Z</time>
      </trkpt>
      <trkpt lat="59.629271" lon="14.9237146">
        <ele>92.8</ele>
        <time>2012-07-21T21:09:18Z</time>
      </trkpt>
      <trkpt lat="59.6290453" lon="14.9243161">
        <ele>92.4</ele>
        <time>2012-07-21T21:09:22Z</time>
      </trkpt>
      <trkpt lat="59.6288223" lon="14.9249087">
        <ele>91.6</ele>
        <time>2012-07-21T21:09:26Z</time>
      </trkpt>
      <trkpt lat="59.628595" lon="14.9254899">
        <ele>91</ele>
        <time>2012-07-21T21:09:30Z</time>
      </trkpt>
      <trkpt lat="59.6283664" lon="14.9260553">
        <ele>90.6</ele>
        <time>2012-07-21T21:09:34Z</time>
      </trkpt>
      <trkpt lat="59.6281093" lon="14.9265767">
        <ele>90.2</ele>
        <time>2012-07-21T21:09:38Z</time>
      </trkpt>
      <trkpt lat="59.6277885" lon="14.9271563">
        <ele>89.6</ele>
        <time>2012-07-21T21:09:43Z</time>
      </trkpt>
      <trkpt lat="59.6274326" lon="14.9276861">
        <ele>88.8</ele>
        <time>2012-07-21T21:09:48Z</time>
      </trkpt>
      <trkpt lat="59.6270549" lon="14.9281461">
        <ele>88</ele>
        <time>2012-07-21T21:09:53Z</time>
      </trkpt>
      <trkpt lat="59.626681" lon="14.9285439">
        <ele>87.2</ele>
        <time>2012-07-21T21:09:58Z</time>
      </trkpt>
      <trkpt lat="59.6263163" lon="14.9289025">
        <ele>86.6</ele>
        <time>2012-07-21T21:10:03Z</time>
      </trkpt>
      <trkpt lat="59.6259454" lon="14.9292544">
        <ele>85.8</ele>
        <time>2012-07-21T21:10:08Z</time>
      </trkpt>
      <trkpt lat="59.6255707" lon="14.929577">
        <ele>85.2</ele>
        <time>2012-07-21T21:10:13Z</time>
      </trkpt>
      <trkpt lat="59.6251926" lon="14.9298437">
        <ele>85.2</ele>
        <time>2012-07-21T21:10:18Z</time>
      </trkpt>
      <trkpt lat="59.6248061" lon="14.9300328">
        <ele>86</ele>
        <time>2012-07-21T21:10:23Z</time>
      </trkpt>
      <trkpt lat="59.6244386" lon="14.930154">
        <ele>87.2</ele>
        <time>2012-07-21T21:10:28Z</time>
      </trkpt>
      <trkpt lat="59.6240143" lon="14.930246">
        <ele>88.6</ele>
        <time>2012-07-21T21:10:34Z</time>
      </trkpt>
      <trkpt lat="59.623624" lon="14.9303351">
        <ele>90.8</ele>
        <time>2012-07-21T21:10:39Z</time>
      </trkpt>
      <trkpt lat="59.6232617" lon="14.9304152">
        <ele>93.2</ele>
        <time>2012-07-21T21:10:44Z</time>
      </trkpt>
      <trkpt lat="59.622899" lon="14.9304978">
        <ele>95.8</ele>
        <time>2012-07-21T21:10:49Z</time>
      </trkpt>
      <trkpt lat="59.6225244" lon="14.9305736">
        <ele>97.4</ele>
        <time>2012-07-21T21:10:54Z</time>
      </trkpt>
      <trkpt lat="59.6220967" lon="14.9306486">
        <ele>98.4</ele>
        <time>2012-07-21T21:11:00Z</time>
      </trkpt>
      <trkpt lat="59.6216957" lon="14.9307347">
        <ele>99</ele>
        <time>2012-07-21T21:11:06Z</time>
      </trkpt>
      <trkpt lat="59.6213267" lon="14.9308134">
        <ele>99.2</ele>
        <time>2012-07-21T21:11:12Z</time>
      </trkpt>
      <trkpt lat="59.6209596" lon="14.9308853">
        <ele>99.6</ele>
        <time>2012-07-21T21:11:18Z</time>
      </trkpt>
      <trkpt lat="59.6205502" lon="14.9309756">
        <ele>100</ele>
        <time>2012-07-21T21:11:24Z</time>
      </trkpt>
      <trkpt lat="59.6201896" lon="14.9310578">
        <ele>99.6</ele>
        <time>2012-07-21T21:11:29Z</time>
      </trkpt>
      <trkpt lat="59.6198104" lon="14.9311143">
        <ele>100.4</ele>
        <time>2012-07-21T21:11:34Z</time>
      </trkpt>
      <trkpt lat="59.619404" lon="14.9310936">
        <ele>99.8</ele>
        <time>2012-07-21T21:11:39Z</time>
      </trkpt>
      <trkpt lat="59.6190134" lon="14.9310118">
        <ele>98.6</ele>
        <time>2012-07-21T21:11:44Z</time>
      </trkpt>
      <trkpt lat="59.6185933" lon="14.9309108">
        <ele>99.8</ele>
        <time>2012-07-21T21:11:50Z</time>
      </trkpt>
      <trkpt lat="59.6181918" lon="14.9308175">
        <ele>100.8</ele>
        <time>2012-07-21T21:11:56Z</time>
      </trkpt>
      <trkpt lat="59.6177571" lon="14.9307061">
        <ele>100</ele>
        <time>2012-07-21T21:12:02Z</time>
      </trkpt>
      <trkpt lat="59.6173745" lon="14.9306219">
        <ele>99.2</ele>
        <time>2012-07-21T21:12:07Z</time>
      </trkpt>
      <trkpt lat="59.6169697" lon="14.9306082">
        <ele>97.2</ele>
        <time>2012-07-21T21:12:12Z</time>
      </trkpt>
      <trkpt lat="59.6165325" lon="14.9306963">
        <ele>95.2</ele>
        <time>2012-07-21T21:12:17Z</time>
      </trkpt>
      <trkpt lat="59.6160902" lon="14.9307861">
        <ele>93.4</ele>
        <time>2012-07-21T21:12:22Z</time>
      </trkpt>
      <trkpt lat="59.6156643" lon="14.9308742">
        <ele>93</ele>
        <time>2012-07-21T21:12:27Z</time>
      </trkpt>
      <trkpt lat="59.6152537" lon="14.9309662">
        <ele>93.4</ele>
        <time>2012-07-21T21:12:32Z</time>
      </trkpt>
      <trkpt lat="59.6148605" lon="14.9310593">
        <ele>93.6</ele>
        <time>2012-07-21T21:12:37Z</time>
      </trkpt>
      <trkpt lat="59.6144742" lon="14.9311368">
        <ele>93.6</ele>
        <time>2012-07-21T21:12:42Z</time>
      </trkpt>
      <trkpt lat="59.6140997" lon="14.9312179">
        <ele>93.6</ele>
        <time>2012-07-21T21:12:47Z</time>
      </trkpt>
      <trkpt lat="59.6136934" lon="14.9313126">
        <ele>92.2</ele>
        <time>2012-07-21T21:12:53Z</time>
      </trkpt>
    </trkseg>
  </trk>
</gpx>